[[{"header":{"parameterUnit":"m.s-1","parameterCategory":1,"la1":31.0,"la2":29.5877,"lo1":-88.7671,"lo2":-86.6584,"dy":0.0162,"dx":0.0185,"nx":115,"ny":88,"refTime":"2024-07-08T06:00:00:Z","depth":0,"parameterNumber":2,"parameterNumberName":"U-component_of_WINDS"},"data":[0.0,0.0,0.0,0.0,0.0,0.0,0.0,0.0,0.0,0.0,0.0,0.0,0.0,0.0,0.0,0.0,0.0,0.0,0.0,0.0,0.0,0.0,0.0,0.0,0.0,0.0,0.0,0.0,0.0,0.0,0.0,0.0,0.0,0.0,0.0,0.0,0.0,0.0,0.0,0.0,0.0,0.0,0.0,0.0,0.0,0.0,0.0,0.0,0.0,0.0,0.0,0.0,0.0,0.0,0.0,0.0,0.0,0.0,0.0,0.0,0.0,0.0,0.0,0.0,0.0,0.0,0.0,0.0,0.0,0.0,0.0,0.0,0.0,0.0,0.0,0.0,0.0,0.0,0.0,0.0,0.0,0.0,0.0,0.0,0.0,0.0,0.0,0.0,0.0,0.0,0.0,0.0,0.0,0.0,0.0,0.0,0.0,0.0,0.0,0.0,0.0,0.0,0.0,0.0,0.0,0.0,0.0,0.0,0.0,0.0,0.0,0.0,0.0,0.0,0.0,0.0,0.0,0.0,0.0,0.0,0.0,0.0,0.0,0.0,0.0,0.0,0.0,0.0,0.0,0.0,0.0,0.0,0.0,0.0,0.0,0.0,0.0,0.0,0.0,0.0,0.0,0.0,0.0,0.0,0.0,0.0,0.0,0.0,0.0,0.0,0.0,0.0,0.0,0.0,0.0,0.0,0.0,0.0,0.0,0.0,0.0,0.0,0.0,0.0,0.0,0.0,0.0,0.0,0.0,0.0,0.0,0.0,0.0,0.0,0.0,0.0,0.0,0.0,0.0,0.0,0.0,0.0,0.0,0.0,0.0,0.0,0.0,0.0,0.0,0.0,0.0,0.0,0.0,0.0,0.0,0.0,0.0,0.0,0.0,0.0,0.0,0.0,0.0,0.0,0.0,0.0,0.0,0.0,0.0,0.0,0.0,0.0,0.0,0.0,0.0,0.0,0.0,0.0,0.0,0.0,0.0,0.0,0.0,0.0,0.0,0.0,0.0,0.0,0.0,0.0,0.0,0.0,0.0,0.0,0.0,0.0,0.0,0.0,0.0,0.0,0.0,0.0,0.0,0.0,0.0,0.0,0.0,0.0,0.0,0.0,0.0,0.0,0.0,0.0,0.0,0.0,0.0,0.0,0.0,0.0,0.0,0.0,0.0,0.0,0.0,0.0,0.0,0.0,0.0,0.0,0.0,0.0,0.0,0.0,0.0,0.0,0.0,0.0,0.0,0.0,0.0,0.0,0.0,0.0,0.0,0.0,0.0,0.0,0.0,0.0,0.0,0.0,0.0,0.0,0.0,0.0,0.0,0.0,0.0,0.0,0.0,0.0,0.0,0.0,0.0,0.0,0.0,0.0,0.0,0.0,0.0,0.0,0.0,0.0,0.0,0.0,0.0,0.0,0.0,0.0,0.0,0.0,0.0,0.0,0.0,0.0,0.0,0.0,0.0,0.0,0.0,0.0,0.0,0.0,0.0,0.0,0.0,0.0,0.0,0.0,0.0,0.0,0.0,0.0,0.0,0.0,0.0,0.0,0.0,0.0,0.0,0.0,0.0,0.0,0.0,0.0,0.0,0.0,0.0,0.0,0.0,0.0,0.0,0.0,0.0,0.0,0.0,0.0,0.0,0.0,0.0,0.0,0.0,0.0,0.0,0.0,0.0,0.0,0.0,0.0,0.0,0.0,0.0,0.0,0.0,0.0,0.0,0.0,0.0,0.0,0.0,0.0,0.0,0.0,0.0,0.0,0.0,0.0,0.0,0.0,0.0,0.0,0.0,0.0,0.0,0.0,0.0,0.0,0.0,0.0,0.0,0.0,0.0,0.0,0.0,0.0,0.0,0.0,0.0,0.0,0.0,0.0,0.0,0.0,0.0,0.0,0.0,0.0,0.0,0.0,0.0,0.0,0.0,0.0,0.0,0.0,0.0,0.0,0.0,0.0,0.0,0.0,0.0,0.0,0.0,0.0,0.0,0.0,0.0,0.0,0.0,0.0,0.0,0.0,0.0,0.0,0.0,0.0,0.0,0.0,0.0,0.0,0.0,0.0,0.0,0.0,0.0,0.0,0.0,0.0,0.0,0.0,0.0,0.0,0.0,0.0,0.0,0.0,0.0,0.0,0.0,0.0,0.0,0.0,0.0,0.0,0.0,0.0,0.0,0.0,0.0,0.0,0.0,0.0,0.0,0.0,0.0,0.0,0.0,0.0,0.0,0.0,0.0,0.0,0.0,0.0,0.0,0.0,0.0,0.0,0.0,0.0,0.0,0.0,0.0,0.0,0.0,0.0,0.0,0.0,0.0,0.0,0.0,0.0,0.0,0.0,0.0,0.0,0.0,0.0,0.0,0.0,0.0,0.0,0.0,0.0,0.0,0.0,0.0,0.0,0.0,0.0,0.0,0.0,0.0,0.0,0.0,0.0,0.0,0.0,0.0,0.0,0.0,0.0,0.0,0.0,0.0,0.0,0.0,0.0,0.0,0.0,0.0,0.0,0.0,0.0,0.0,0.0,0.0,0.0,0.0,0.0,0.0,0.0,0.0,0.0,0.0,0.0,0.0,0.0,0.0,0.0,0.0,0.0,0.0,0.0,0.0,0.0,0.0,0.0,0.0,0.0,0.0,0.0,0.0,0.0,0.0,0.0,0.0,0.0,0.0,0.0,0.0,0.0,0.0,0.0,0.0,0.0,0.0,0.0,0.0,0.0,0.0,0.0,0.0,0.0,0.0,0.0,0.0,0.0,0.0,0.0,0.0,0.0,0.0,0.0,0.0,0.0,0.0,0.0,0.0,0.0,0.0,0.0,0.0,0.0,0.0,0.0,0.0,0.0,0.0,0.0,0.0,0.0,0.0,0.0,0.0,0.0,0.0,0.0,0.0,0.0,0.0,0.0,0.0,0.0,0.0,0.0,0.0,0.0,0.0,0.0,0.0,0.0,0.0,0.0,0.0,0.0,0.0,0.0,0.0,0.0,0.0,0.0,0.0,0.0,0.0,0.0,0.0,0.0,0.0,0.0,0.0,0.0,0.0,0.0,0.0,0.0,0.0,0.0,0.0,0.0,0.0,0.0,0.0,0.0,0.0,0.0,0.0,0.0,0.0,0.0,0.0,0.0,0.0,0.0,0.0,0.0,0.0,0.0,0.0,0.0,0.0,0.0,0.0,0.0,0.0,0.0,0.0,0.0,0.0,0.0,0.0,0.0,0.0,0.0,0.0,0.0,0.0,0.0,0.0,0.0,0.0,0.0,0.0,0.0,0.0,0.0,0.0,0.0,0.0,0.0,0.0,0.0,0.0,0.0,0.0,0.0,0.0,0.0,0.0,0.0,0.0,0.0,0.0,0.0,0.0,0.0,0.0,0.0,0.0,0.0,0.0,0.0,0.0,0.0,0.0,0.0,0.0,0.0,0.0,0.0,0.0,0.0,0.0,0.0,0.0,0.0,0.0,0.0,0.0,0.0,0.0,0.0,0.0,0.0,0.0,0.0,0.0,0.0,0.0,0.0,0.0,0.0,0.0,0.0,0.0,0.0,0.0,0.0,0.0,0.0,0.0,0.0,0.0,0.0,0.0,0.0,0.0,0.0,0.0,0.0,0.0,0.0,0.0,0.0,0.0,0.0,0.0,0.0,0.0,0.0,0.0,0.0,0.0,0.0,0.0,0.0,0.0,0.0,0.0,0.0,0.0,0.0,0.0,0.0,0.0,0.0,0.0,0.0,0.0,0.0,0.0,0.0,0.0,0.0,0.0,0.0,0.0,0.0,0.0,0.0,0.0,0.0,0.0,0.0,0.0,0.0,0.0,0.0,0.0,0.0,0.0,0.0,0.0,0.0,0.0,0.0,0.0,0.0,0.0,0.0,0.0,0.0,0.0,0.0,0.0,0.0,0.0,0.0,0.0,0.0,0.0,0.0,0.0,0.0,0.0,0.0,0.0,0.0,0.0,0.0,0.0,0.0,0.0,0.0,0.0,0.0,0.0,0.0,0.0,0.0,0.0,0.0,0.0,0.0,0.0,0.0,0.0,0.0,0.0,0.0,0.0,0.0,0.0,0.0,0.0,0.0,0.0,0.0,0.0,0.0,0.0,0.0,0.0,0.0,0.0,0.0,0.0,0.0,0.0,0.0,0.0,0.0,0.0,0.0,0.0,0.0,0.0,0.0,0.0,0.0,0.0,0.0,0.0,0.0,0.0,0.0,0.0,0.0,0.0,0.0,0.0,0.0,0.0,0.0,0.0,0.0,0.0,0.0,0.0,0.0,0.0,0.0,0.0,0.0,-0.0515,0.0,0.0,0.0,0.0,0.0,0.0,0.0,0.0,0.0,0.0,0.0,0.0,0.0,0.0,0.0,0.0,0.0,0.0,0.0,0.0,0.0,0.0,0.0,0.0,0.0,0.0,0.0,0.0,0.0,0.0,0.0,0.0,0.0,0.0,0.0,0.0,0.0,0.0,0.0,0.0,0.0,0.0,0.0,0.0,0.0,0.0,0.0,0.0,0.0,0.0,0.0,0.0,0.0,0.0,0.0,0.0,0.0,0.0,0.0,0.0,0.0,0.0,0.0,0.0,0.0,0.0,0.0,0.0,0.0,0.0,0.0,0.0,0.0,0.0,0.0,0.0,0.0,0.0,0.0,0.0,0.0,0.0,0.0,0.0,0.0,0.0,0.0,0.0,0.0,0.0,0.0,0.0,0.0,0.0,0.0,0.0,0.0,0.0,0.0,0.0,0.0,0.0,0.0,0.0,0.0,0.0,0.0,0.0,0.0,0.0,-0.0613,-0.0548,-0.0642,-0.0631,-0.051,0.0,0.0,0.0,0.0,0.0,0.0,0.0,0.0,0.0,0.0,0.0,0.0,0.0,0.0,0.0,0.0,0.0,0.0,0.0,0.0,0.0,0.0,0.0,0.0,0.0,0.0,0.0,0.0,0.0,0.0,0.0,0.0,0.0,0.0,0.0,0.0,0.0,0.0,0.0,0.0,0.0,0.0,0.0,0.0,0.0,0.0,0.0,0.0,0.0,0.0,0.0,0.0,0.0,0.0,0.0,0.0,0.0,0.0,0.0,0.0,0.0,0.0,0.0,0.0,0.0,0.0,0.0,0.0,0.0,0.0,0.0,0.0,0.0,0.0,0.0,0.0,0.0,0.0,0.0,0.0,0.0,0.0,0.0,0.0,0.0,0.0,0.0,0.0,0.0,0.0,0.0,0.0,0.0,0.0,0.0,0.0,0.0,0.0,0.0,0.0,0.0,0.0,0.0,0.0,0.0,0.0,0.0,0.0,0.0,0.0,0.0,0.0,-0.066,-0.0652,-0.0548,0.0,0.0,0.0,0.0,0.0,0.0,0.0,0.0,0.0,0.0,0.0,0.0,0.0,0.0,0.0,0.0,0.0,0.0,0.0,0.0,0.0,0.0,0.0,0.0,0.0,0.0,0.0,0.0,0.0,0.0,0.0,0.0,0.0,0.0,0.0,0.0,0.0,0.0,0.0,0.0,0.0,0.0,0.0,0.0,0.0,0.0,0.0,0.0,0.0,0.0,0.0,0.0,0.0,0.0,0.0,0.0,0.0,0.0,0.0,0.0,0.0,0.0,0.0,0.0,0.0,0.0,0.0,0.0,0.0,0.0,0.0,0.0,0.0,0.0,0.0,0.0,0.0,0.0,0.0,0.0,0.0,0.0,0.0,0.0,0.0,0.0,0.0,0.0,0.0,0.0,0.0,0.0,0.0,0.0,0.0,0.0,0.0,0.0,0.0,0.0,0.0,0.0,0.0,0.0,0.0,0.0,0.0,0.0,0.0,0.0,-0.0626,-0.0705,-0.0712,0.0,-0.0703,0.0,0.0,0.0,0.0,0.0,0.0,0.0,0.0,0.0,0.0,0.0,0.0,0.0,0.0,0.0,0.0,0.0,0.0,0.0,0.0,0.0,0.0,0.0,0.0,0.0,0.0,0.0,0.0,0.0,0.0,0.0,0.0,0.0,0.0,0.0,0.0,0.0,0.0,0.0,0.0,0.0,0.0,0.0,0.0,0.0,0.0,0.0,0.0,0.0,0.0,0.0,0.0,0.0,0.0,0.0,0.0,0.0,0.0,0.0,0.0,0.0,0.0,0.0,0.0,0.0,0.0,0.0,0.0,0.0,0.0,0.0,0.0,0.0,0.0,0.0,0.0,0.0,0.0,0.0,0.0,0.0,0.0,0.0,0.0,0.0,0.0,0.0,0.0,0.0,0.0,0.0,0.0,0.0,0.0,0.0,0.0,0.0,0.0,0.0,0.0,0.0,0.0,0.0,0.0,0.0,0.0,0.0,0.0,0.0,0.0,0.0,-0.0693,-0.0693,-0.0693,0.0,0.0,0.0,0.0,0.0,0.0,0.0,0.0,0.0,0.0,0.0,0.0,0.0,0.0,0.0,0.0,0.0,0.0,0.0,0.0,0.0,0.0,0.0,0.0,0.0,0.0,0.0,0.0,0.0,0.0,0.0,0.0,0.0,0.0,0.0,0.0,0.0,0.0,0.0,0.0,0.0,0.0,0.0,0.0,0.0,0.0,0.0,0.0,0.0,0.0,0.0,0.0,0.0,0.0,0.0,0.0,0.0,0.0,0.0,0.0,0.0,0.0,0.0,0.0,0.0,0.0,0.0,0.0,0.0,0.0,0.0,0.0,0.0,0.0,0.0,0.0,0.0,0.0,0.0,0.0,0.0,0.0,0.0,0.0,0.0,0.0,0.0,0.0,0.0,0.0,0.0,0.0,0.0,0.0,0.0,0.0,0.0,0.0,0.0,0.0,0.0,0.0,0.0,0.0,0.0,0.0,0.0,0.0,0.0,0.0,-0.0675,0.0,-0.0755,-0.071,-0.0743,-0.0717,0.0,0.0,0.0,0.0,0.0,0.0,0.0,0.0,0.0,0.0,0.0,0.0,0.0,0.0,0.0,0.0,0.0,0.0,0.0,0.0,0.0,0.0,0.0,0.0,0.0,0.0,0.0,0.0,0.0,0.0,0.0,0.0,0.0,0.0,0.0,0.0,0.0,0.0,0.0,0.0,0.0,0.0,0.0,0.0,0.0,0.0,0.0,0.0,0.0,0.0,0.0,0.0,0.0,0.0,0.0,0.0,0.0,0.0,0.0,0.0,0.0,0.0,0.0,0.0,0.0,0.0,0.0,0.0,0.0,0.0,0.0,0.0,0.0,0.0,0.0,0.0,0.0,0.0,0.0,0.0,0.0,0.0,0.0,0.0,0.0,0.0,0.0,0.0,0.0,0.0,0.0,0.0,0.0,0.0,0.0,0.0,0.0,0.0,0.0,0.0,0.0,0.0,0.0,0.0,0.0,0.0,0.0,0.0,0.0,-0.0716,-0.0717,-0.0799,-0.0802,-0.0761,0.0,0.0,0.0,0.0,0.0,0.0,0.0,0.0,0.0,0.0,0.0,0.0,0.0,0.0,0.0,0.0,0.0,0.0,0.0,0.0,0.0,0.0,0.0,0.0,0.0,0.0,0.0,0.0,0.0,0.0,0.0,0.0,0.0,0.0,0.0,0.0,0.0,0.0,0.0,0.0,0.0,0.0,0.0,0.0,0.0,0.0,0.0,0.0,0.0,0.0,0.0,0.0,0.0,0.0,0.0,0.0,0.0,0.0,0.0,0.0,0.0,0.0,0.0,0.0,0.0,0.0,0.0,0.0,0.0,0.0,0.0,0.0,0.0,0.0,0.0,0.0,0.0,0.0,0.0,0.0,0.0,0.0,0.0,0.0,0.0,0.0,0.0,0.0,0.0,0.0,0.0,0.0,0.0,0.0,0.0,0.0,0.0,0.0,0.0,0.0,0.0,0.0,0.0,0.0,0.0,0.0,0.0,0.0,0.0,-0.0633,-0.0679,-0.0784,0.0,-0.0822,-0.0762,0.0,0.0,0.0,0.0,0.0,0.0,0.0,0.0,0.0,0.0,0.0,0.0,0.0,0.0,0.0,0.0,0.0,0.0,0.0,0.0,0.0,0.0,0.0,0.0,0.0,0.0,0.0,0.0,0.0,0.0,0.0,0.0,0.0,0.0,0.0,0.0,0.0,0.0,0.0,0.0,0.0,0.0,0.0,0.0,0.0,0.0,0.0,0.0,0.0,0.0,0.0,0.0,0.0,0.0,0.0,0.0,0.0,0.0,0.0,0.0,0.0,0.0,0.0,0.0,0.0,0.0,0.0,0.0,0.0,0.0,0.0,0.0,0.0,0.0,0.0,0.0,0.0,0.0,0.0,0.0,0.0,0.0,0.0,0.0,0.0,0.0,0.0,0.0,0.0,0.0,0.0,0.0,0.0,0.0,0.0,0.0,0.0,0.0,0.0,0.0,0.0,0.0,0.0,0.0,0.0,0.0,0.0,0.0,0.0,-0.0587,0.0,-0.0856,0.0,-0.0833,-0.0758,0.0,0.0,0.0,0.0,0.0,0.0,0.0,0.0,0.0,0.0,0.0,0.0,0.0,0.0,0.0,0.0,0.0,0.0,0.0,0.0,0.0,0.0,0.0,0.0,0.0,0.0,0.0,0.0,0.0,0.0,0.0,0.0,0.0,0.0,0.0,0.0,0.0,0.0,0.0,0.0,0.0,0.0,0.0,0.0,0.0,0.0,0.0,0.0,0.0,0.0,0.0,0.0,0.0,0.0,0.0,0.0,0.0,0.0,0.0,0.0,0.0,0.0,0.0,0.0,0.0,0.0,0.0,0.0,0.0,0.0,0.0,0.0,0.0,0.0,0.0,0.0,0.0,0.0,0.0,0.0,0.0,0.0,0.0,0.0,0.0,0.0,0.0,0.0,0.0,0.0,0.0,0.0,0.0,0.0,0.0,0.0,0.0,0.0,0.0,0.0,0.0,0.0,0.0,0.0,0.0,0.0,0.0,0.0,-0.0589,-0.0798,-0.0833,-0.0868,-0.0901,-0.084,-0.0753,0.0,0.0,0.0,0.0,0.0,0.0,0.0,0.0,0.0,0.0,0.0,0.0,0.0,0.0,0.0,0.0,0.0,0.0,0.0,0.0,0.0,0.0,0.0,0.0,0.0,0.0,0.0,0.0,0.0,0.0,0.0,0.0,0.0,0.0,0.0,0.0,0.0,0.0,0.0,0.0,0.0,0.0,0.0,0.0,0.0,0.0,0.0,0.0,0.0,0.0,0.0,0.0,0.0,0.0,0.0,0.0,0.0,0.0,0.0,0.0,0.0,0.0,0.0,0.0,0.0,0.0,0.0,0.0,0.0,0.0,0.0,0.0,0.0,0.0,0.0,0.0,0.0,0.0,0.0,0.0,0.0,0.0,0.0,0.0,0.0,0.0,0.0,0.0,0.0,0.0,0.0,0.0,0.0,0.0,0.0,0.0,0.0,0.0,0.0,0.0,0.0,0.0,0.0,0.0,0.0,0.0,0.0,0.0,0.0,-0.073,-0.0812,-0.0897,-0.104,-0.0874,-0.081,0.0,0.0,0.0,0.0,0.0,0.0,0.0,0.0,0.0,0.0,0.0,0.0,0.0,0.0,0.0,0.0,0.0,0.0,0.0,0.0,0.0,0.0,0.0,0.0,0.0,0.0,0.0,0.0,0.0,0.0,0.0,0.0,0.0,0.0,0.0,0.0,0.0,0.0,0.0,0.0,0.0,0.0,0.0,0.0,0.0,0.0,0.0,0.0,0.0,0.0,0.0,0.0,0.0,0.0,0.0,0.0,0.0,0.0,0.0,0.0,0.0,0.0,0.0,0.0,0.0,0.0,0.0,0.0,0.0,0.0,0.0,0.0,0.0,0.0,0.0,0.0,0.0,0.0,0.0,0.0,0.0,0.0,0.0,0.0,0.0,0.0,0.0,0.0,0.0,0.0,0.0,0.0,0.0,0.0,0.0,0.0,0.0,0.0,0.0,0.0,0.0,0.0,0.0,0.0,0.0,0.0,0.0,0.0,0.0,-0.0861,-0.0919,-0.0983,-0.1119,-0.0943,-0.087,-0.0913,0.0,0.0,0.0,0.0,0.0,0.0,0.0,0.0,0.0,0.0,0.0,0.0,0.0,0.0,0.0,0.0,0.0,0.0,0.0,0.0,0.0,0.0,0.0,0.0,0.0,0.0,0.0,0.0,0.0,0.0,0.0,0.0,0.0,0.0,0.0,0.0,0.0,0.0,0.0,0.0,0.0,0.0,0.0,0.0,0.0,0.0,0.0,0.0,0.0,0.0,0.0,0.0,0.0,0.0,0.0,0.0,0.0,0.0,0.0,0.0,0.0,0.0,0.0,0.0,0.0,0.0,0.0,0.0,0.0,0.0,0.0,0.0,0.0,0.0,0.0,0.0,0.0,0.0,0.0,0.0,0.0,0.0,0.0,0.0,0.0,0.0,0.0,0.0,0.0,0.0,0.0,0.0,0.0,0.0,0.0,0.0,0.0,0.0,0.0,0.0,0.0,0.0,0.0,0.0,0.0,0.0,0.0,0.0,-0.117,-0.1205,-0.1196,-0.1137,-0.1042,-0.0938,0.0,0.0,0.0,0.0,0.0,0.0,0.0,0.0,0.0,0.0,0.0,0.0,0.0,0.0,0.0,0.0,0.0,0.0,0.0,0.0,0.0,0.0,0.0,0.0,0.0,0.0,0.0,0.0,0.0,0.0,0.0,0.0,0.0,0.0,0.0,0.0,0.0,0.0,0.0,0.0,0.0,0.0,0.0,0.0,0.0,0.0,0.0,0.0,0.0,0.0,0.0,0.0,0.0,0.0,0.0,0.0,0.0,0.0,0.0,0.0,0.0,0.0,0.0,0.0,0.0,0.0,0.0,0.0,0.0,0.0,0.0,0.0,0.0,0.0,0.0,0.0,0.0,0.0,0.0,0.0,0.0,0.0,0.0,0.0,0.0,0.0,0.0,0.0,0.0,0.0,0.0,0.0,0.0,0.0,0.0,0.0,0.0,0.0,0.0,0.0,0.0,0.0,0.0,0.0,0.0,0.0,0.0,0.0,0.0,-0.0616,-0.1078,-0.1348,-0.1369,-0.1207,-0.1028,0.0,0.0,0.0,0.0,0.0,0.0,0.0,0.0,0.0,0.0,0.0,0.0,0.0,0.0,0.0,0.0,0.0,0.0,0.0,0.0,0.0,0.0,0.0,0.0,0.0,0.0,0.0,0.0,0.0,0.0,0.0,0.0,0.0,0.0,0.0,0.0,0.0,0.0,0.0,0.0,0.0,0.0,0.0,0.0,0.0,0.0,0.0,0.0,0.0,0.0,0.0,0.0,0.0,0.0,0.0,0.0,0.0,0.0,0.0,0.0,0.0,0.0,0.0,0.0,0.0,0.0,0.0,0.0,0.0,0.0,0.0,0.0,0.0,0.0,0.0,0.0,0.0,0.0,0.0,0.0,0.0,0.0,0.0,0.0,0.0,0.0,0.0,0.0,0.0,0.0,0.0,0.0,0.0,0.0,0.0,0.0,0.0,0.0,0.0,0.0,0.0,0.0,0.0,0.0,0.0,0.0,0.0,0.0,-0.0596,-0.0421,-0.1083,-0.147,-0.1512,-0.1204,-0.1009,0.0,0.0,0.0,0.0,0.0,0.0,0.0,0.0,0.0,0.0,0.0,0.0,0.0,0.0,0.0,0.0,0.0,0.0,0.0,0.0,0.0,0.0,0.0,0.0,0.0,0.0,0.0,0.0,0.0,0.0,0.0,0.0,0.0,0.0,0.0,0.0,0.0,0.0,0.0,0.0,0.0,0.0,0.0,0.0,0.0,0.0,0.0,0.0,0.0,0.0,0.0,0.0,0.0,0.0,0.0,0.0,0.0,0.0,0.0,0.0,0.0,0.0,0.0,0.0,0.0,0.0,0.0,0.0,0.0,0.0,0.0,0.0,0.0,0.0,0.0,0.0,0.0,0.0,0.0,0.0,0.0,0.0,0.0,0.0,0.0,0.0,0.0,0.0,0.0,0.0,0.0,0.0,0.0,0.0,0.0,0.0,0.0,0.0,0.0,0.0,0.0,0.0,0.0,0.0,0.0,0.0,0.0,0.0,-0.0398,-0.0368,-0.0961,-0.1363,-0.1625,-0.1259,-0.104,0.0,0.0,0.0,0.0,0.0,0.0,0.0,0.0,0.0,0.0,0.0,0.0,0.0,0.0,0.0,0.0,0.0,0.0,0.0,0.0,0.0,0.0,0.0,0.0,0.0,0.0,0.0,0.0,0.0,0.0,0.0,0.0,0.0,0.0,0.0,0.0,0.0,0.0,0.0,0.0,0.0,0.0,0.0,0.0,0.0,0.0,0.0,0.0,0.0,0.0,0.0,0.0,0.0,0.0,0.0,0.0,0.0,0.0,0.0,0.0,0.0,0.0,0.0,0.0,0.0,0.0,0.0,0.0,0.0,0.0,0.0,0.0,0.0,0.0,0.0,0.0,0.0,0.0,0.0,0.0,0.0,0.0,0.0,0.0,0.0,0.0,0.0,0.0,0.0,0.0,0.0,0.0,0.0,0.0,0.0,0.0,0.0,0.0,0.0,0.0,0.0,0.0,0.0,0.0,0.0,0.0,0.0,0.0,-0.0326,-0.009,-0.0191,-0.0686,-0.1561,-0.1429,-0.1357,0.0,0.0,0.0,0.0,0.0,0.0,0.0,0.0,0.0,0.0,0.0,0.0,0.0,0.0,0.0,0.0,0.0,0.0,0.0,0.0,0.0,0.0,0.0,0.0,0.0,0.0,0.0,0.0,0.0,0.0,0.0,0.0,0.0,0.0,0.0,0.0,0.0,0.0,0.0,0.0,0.0,0.0,0.0,0.0,0.0,0.0,0.0,0.0,-0.108,0.0,0.0,0.0,0.0,0.0,0.0,0.0,0.0,0.0,0.0,0.0,0.0,0.0,0.0,0.0,0.0,0.0,0.0,0.0,0.0,0.0,0.0,0.0,0.0,0.0,0.0,0.0,0.0,0.0,0.0,0.0,0.0,0.0,0.0,0.0,0.0,0.0,0.0,0.0,0.0,0.0,0.0,0.0,0.0,0.0,0.0,0.0,0.0,0.0,0.0,0.0,0.0,0.0,0.0,0.0,0.0,0.0,0.0,0.0,-0.0429,-0.0,-0.0,-0.0299,-0.0794,-0.0829,-0.0916,0.0,0.0,0.0,0.0,0.0,0.0,0.0,0.0,0.0,0.0,0.0,0.0,0.0,0.0,0.0,0.0,0.0,0.0,0.0,0.0,0.0,0.0,0.0,0.0,0.0,0.0,0.0,0.0,0.0,0.0,0.0,0.0,0.0,0.0,0.0,0.0,0.0,0.0,0.0,0.0,0.0,0.0,0.0,0.0,0.0,0.0,0.0,0.0,0.0,0.0,0.0,0.0,0.0,0.0,0.0,0.0,0.0,0.0,0.0,0.0,0.0,0.0,0.0,0.0,0.0,0.0,0.0,0.0,0.0,0.0,0.0,0.0,0.0,0.0,0.0,0.0,0.0,0.0,0.0,0.0,0.0,0.0,0.0,0.0,0.0,0.0,0.0,0.0,0.0,0.0,0.0,0.0,0.0,0.0,0.0,0.0,0.0,0.0,0.0,0.0,0.0,0.0,0.0,0.0,0.0,0.0,0.0,-0.0811,-0.0535,-0.0,-0.0,-0.0,-0.0,-0.0,-0.0263,-0.0689,0.0,0.0,0.0,0.0,0.0,0.0,0.0,0.0,0.0,0.0,0.0,0.0,0.0,0.0,0.0,0.0,0.0,0.0,0.0,0.0,0.0,0.0,0.0,0.0,0.0,0.0,0.0,0.0,0.0,0.0,0.0,0.0,0.0,0.0,0.0,0.0,0.0,0.0,-0.0789,-0.1613,0.0,0.0,0.0,0.0,0.0,0.0,0.0,0.0,-0.1233,0.0,0.0,0.0,0.0,0.0,0.0,0.0,0.0,0.0,0.0,0.0,0.0,0.0,0.0,0.0,0.0,0.0,0.0,0.0,0.0,0.0,0.0,0.0,0.0,0.0,0.0,0.0,0.0,0.0,0.0,0.0,0.0,0.0,0.0,0.0,0.0,0.0,0.0,0.0,0.0,0.0,0.0,0.0,0.0,0.0,0.0,0.0,0.0,0.0,0.0,0.0,0.0,0.0,0.0,0.0,0.0,-0.0615,-0.0564,-0.0346,-0.0,-0.0,-0.0,-0.0,-0.0,-0.0179,-0.0471,0.0,0.0,0.0,0.0,0.0,0.0,0.0,0.0,0.0,0.0,0.0,0.0,0.0,0.0,0.0,0.0,0.0,0.0,0.0,0.0,0.0,0.0,0.0,0.0,0.0,0.0,0.0,0.0,0.0,0.0,0.0,0.0,0.0,0.0,0.0,0.0,0.0,0.0,0.0,-0.1914,-0.2116,0.0,0.0,0.0,0.0,0.0,0.0,0.0,0.0,-0.1555,0.0,0.0,0.0,0.0,0.0,0.0,0.0,0.0,0.0,0.0,0.0,0.0,0.0,0.0,0.0,0.0,0.0,0.0,0.0,0.0,0.0,0.0,0.0,0.0,0.0,0.0,0.0,0.0,0.0,0.0,0.0,0.0,0.0,0.0,0.0,0.0,0.0,0.0,0.0,0.0,0.0,0.0,0.0,0.0,0.0,0.0,0.0,0.0,0.0,0.0,0.0,0.0,0.0,0.0,0.0,-0.0766,-0.0424,-0.0183,-0.0,-0.0,-0.0,-0.0,-0.0,-0.0088,0.0,0.0,0.0,0.0,0.0,0.0,0.0,0.0,0.0,0.0,0.0,0.0,0.0,0.0,0.0,0.0,0.0,0.0,0.0,0.0,0.0,0.0,0.0,0.0,0.0,0.0,0.0,0.0,0.0,0.0,0.0,0.0,0.0,0.0,0.0,0.0,0.0,0.0,0.0,0.0,-0.2116,-0.2321,-0.1879,0.0,0.0,0.0,0.0,0.0,0.0,-0.1477,-0.1458,0.0,0.0,0.0,0.0,0.0,0.0,0.0,0.0,0.0,0.0,0.0,0.0,0.0,0.0,0.0,0.0,0.0,0.0,0.0,0.0,0.0,0.0,0.0,0.0,0.0,0.0,0.0,0.0,0.0,0.0,0.0,0.0,0.0,0.0,0.0,0.0,0.0,0.0,0.0,0.0,0.0,0.0,0.0,0.0,0.0,0.0,0.0,0.0,0.0,0.0,0.0,0.0,0.0,0.0,0.0,-0.0757,-0.0438,-0.0095,-0.0,-0.0,-0.0,-0.0,-0.0188,-0.0347,0.0,0.0,0.0,0.0,0.0,0.0,0.0,0.0,0.0,0.0,0.0,0.0,0.0,0.0,0.0,0.0,0.0,0.0,0.0,0.0,0.0,0.0,0.0,0.0,0.0,0.0,0.0,0.0,0.0,0.0,0.0,0.0,0.0,0.0,0.0,0.0,0.0,0.0,0.0,0.0,0.0,-0.2495,-0.192,-0.182,0.0,0.0,0.0,0.0,-0.1496,-0.1567,0.0,0.0,0.0,0.0,0.0,0.0,0.0,0.0,0.0,0.0,0.0,0.0,0.0,0.0,0.0,0.0,0.0,0.0,0.0,0.0,0.0,0.0,0.0,0.0,0.0,0.0,0.0,0.0,0.0,0.0,0.0,0.0,0.0,0.0,0.0,0.0,0.0,0.0,0.0,0.0,0.0,0.0,0.0,0.0,0.0,0.0,0.0,0.0,0.0,0.0,0.0,0.0,0.0,0.0,0.0,0.0,-0.0453,-0.0671,-0.0548,-0.0,-0.0,-0.0,-0.0,-0.0762,-0.0879,0.0,0.0,0.0,0.0,0.0,0.0,0.0,0.0,0.0,0.0,0.0,0.0,0.0,0.0,0.0,0.0,0.0,0.0,0.0,0.0,0.0,0.0,0.0,0.0,0.0,0.0,0.0,0.0,0.0,0.0,0.0,0.0,0.0,0.0,0.0,0.0,0.0,0.0,0.0,0.0,0.0,-0.2355,-0.1891,-0.1848,-0.1874,0.0,0.0,-0.2024,-0.2215,-0.2341,0.0,0.0,0.0,0.0,0.0,0.0,0.0,0.0,0.0,0.0,0.0,0.0,0.0,0.0,0.0,0.0,0.0,0.0,0.0,0.0,0.0,0.0,0.0,0.0,0.0,0.0,0.0,0.0,0.0,0.0,0.0,0.0,0.0,0.0,0.0,0.0,0.0,0.0,0.0,0.0,0.0,0.0,0.0,0.0,0.0,0.0,0.0,0.0,0.0,0.0,0.0,0.0,0.0,0.0,0.0,-0.0796,-0.0618,-0.0439,-0.0286,-0.0,-0.0,-0.0,-0.0,-0.0841,-0.1119,0.0,0.0,0.0,0.0,0.0,0.0,0.0,0.0,0.0,0.0,0.0,0.0,0.0,0.0,0.0,0.0,0.0,0.0,0.0,0.0,0.0,0.0,0.0,0.0,0.0,0.0,0.0,0.0,0.0,0.0,0.0,0.0,0.0,0.0,0.0,0.0,0.0,0.0,0.0,0.0,0.0,0.0,-0.2095,-0.2086,0.0,0.0,0.0,-0.2164,-0.224,0.0,0.0,0.0,0.0,0.0,0.0,0.0,0.0,0.0,0.0,0.0,0.0,0.0,0.0,0.0,0.0,0.0,0.0,0.0,0.0,0.0,0.0,0.0,0.0,0.0,0.0,0.0,0.0,0.0,0.0,0.0,0.0,0.0,0.0,0.0,0.0,0.0,0.0,0.0,0.0,0.0,0.0,0.0,0.0,0.0,0.0,0.0,0.0,0.0,0.0,0.0,0.0,0.0,0.0,0.0,0.0,0.0,-0.0951,-0.0553,-0.03,-0.0205,-0.041,-0.0307,-0.0,-0.0844,0.0,0.0,0.0,0.0,0.0,0.0,0.0,0.0,0.0,0.0,0.0,0.0,0.0,0.0,0.0,0.0,0.0,0.0,0.0,0.0,0.0,0.0,0.0,0.0,0.0,0.0,0.0,-0.1165,0.0,0.0,0.0,0.0,0.0,0.0,0.0,0.0,0.0,0.0,0.0,0.0,0.0,0.0,-0.2208,-0.2366,-0.2311,-0.2389,0.0,0.0,-0.2301,-0.244,-0.2544,-0.2492,0.0,0.0,0.0,0.0,0.0,0.0,0.0,0.0,0.0,0.0,0.0,0.0,0.0,0.0,0.0,0.0,0.0,0.0,0.0,0.0,0.0,0.0,0.0,0.0,0.0,0.0,0.0,0.0,0.0,0.0,0.0,0.0,0.0,0.0,0.0,0.0,0.0,0.0,0.0,0.0,0.0,0.0,0.0,0.0,0.0,0.0,0.0,0.0,0.0,0.0,0.0,0.0,0.0,0.0,0.0,-0.1383,-0.1412,-0.1231,-0.0849,-0.1382,-0.117,-0.0106,-0.0988,-0.1357,0.0,0.0,0.0,0.0,0.0,0.0,0.0,0.0,0.0,0.0,0.0,0.0,0.0,0.0,0.0,0.0,0.0,0.0,0.0,0.0,0.0,0.0,0.0,0.0,0.0,0.0,0.0,0.0,0.0,0.0,0.0,0.0,0.0,0.0,0.0,0.0,0.0,0.0,0.0,0.0,0.0,-0.2258,-0.2433,-0.2571,-0.2692,0.0,0.0,-0.2744,-0.3025,-0.312,-0.2882,-0.2217,0.0,0.0,0.0,0.0,0.0,0.0,0.0,0.0,0.0,0.0,0.0,0.0,0.0,0.0,0.0,0.0,0.0,0.0,0.0,0.0,0.0,0.0,0.0,0.0,0.0,0.0,0.0,0.0,0.0,0.0,0.0,0.0,0.0,0.0,0.0,0.0,0.0,0.0,0.0,0.0,0.0,0.0,0.0,0.0,0.0,0.0,0.0,0.0,0.0,0.0,0.0,0.0,0.0,-0.1254,-0.1544,-0.1624,-0.1457,-0.1064,-0.1494,-0.1707,-0.1705,-0.1607,-0.1669,0.0,0.0,0.0,0.0,0.0,0.0,0.0,0.0,0.0,0.0,0.0,0.0,0.0,0.0,0.0,0.0,0.0,0.0,0.0,0.0,0.0,0.0,0.0,0.0,0.0,0.0,0.0,0.0,-0.1665,-0.1703,-0.1725,0.0,0.0,0.0,0.0,0.0,0.0,0.0,0.0,0.0,0.0,-0.2756,-0.2675,-0.2801,0.0,0.0,-0.3038,-0.3027,-0.3267,-0.3218,-0.3017,-0.2754,-0.2644,0.0,0.0,0.0,0.0,0.0,0.0,0.0,0.0,0.0,0.0,0.0,0.0,0.0,0.0,0.0,0.0,0.0,0.0,0.0,0.0,0.0,0.0,0.0,0.0,0.0,0.0,0.0,0.0,0.0,0.0,0.0,0.0,0.0,0.0,0.0,0.0,0.0,0.0,0.0,0.0,0.0,0.0,0.0,0.0,0.0,0.0,0.0,0.0,0.0,0.0,0.0,0.0,-0.1357,-0.1741,-0.1858,-0.1703,-0.1406,-0.1841,-0.2166,-0.2594,-0.2159,-0.2014,0.0,0.0,0.0,0.0,0.0,0.0,0.0,0.0,0.0,0.0,0.0,0.0,0.0,0.0,0.0,0.0,0.0,0.0,0.0,0.0,0.0,0.0,0.0,0.0,0.0,0.0,0.0,0.0,-0.1857,-0.1823,-0.1823,0.0,0.0,0.0,0.0,0.0,0.0,0.0,0.0,0.0,0.0,-0.3179,-0.2971,-0.3076,-0.3155,-0.3406,-0.3271,-0.3153,-0.3406,-0.3305,-0.3194,-0.3017,0.0,0.0,0.0,0.0,0.0,0.0,0.0,0.0,0.0,0.0,0.0,0.0,0.0,0.0,0.0,0.0,0.0,0.0,0.0,0.0,0.0,0.0,0.0,0.0,0.0,0.0,0.0,0.0,0.0,0.0,-0.0593,0.0,0.0,0.0,0.0,0.0,0.0,0.0,0.0,0.0,0.0,0.0,0.0,0.0,0.0,0.0,0.0,0.0,0.0,0.0,0.0,0.0,0.0,-0.1426,-0.1823,-0.2131,-0.2201,-0.2127,-0.2354,-0.2353,-0.2461,-0.2451,-0.2523,-0.2566,0.0,0.0,0.0,0.0,0.0,0.0,0.0,0.0,0.0,0.0,0.0,0.0,0.0,0.0,0.0,0.0,0.0,0.0,0.0,0.0,0.0,0.0,0.0,0.0,0.0,0.0,-0.1987,-0.1925,-0.1877,0.0,0.0,0.0,0.0,0.0,0.0,0.0,0.0,0.0,0.0,-0.3118,-0.3406,-0.3292,-0.3373,-0.3417,-0.3417,-0.3414,-0.3414,-0.342,-0.3409,-0.326,0.0,0.0,0.0,0.0,0.0,0.0,0.0,0.0,0.0,0.0,0.0,0.0,0.0,0.0,0.0,0.0,0.0,0.0,0.0,0.0,0.0,0.0,0.0,0.0,0.0,0.0,0.0,-0.0938,-0.0885,0.0,0.0,0.0,0.0,0.0,0.0,0.0,0.0,0.0,0.0,0.0,-0.2097,-0.2411,0.0,0.0,0.0,0.0,0.0,0.0,0.0,0.0,0.0,0.0,0.0,0.0,-0.1625,-0.187,-0.2253,-0.2427,-0.2242,-0.2244,-0.2356,-0.258,-0.2401,-0.2371,-0.2345,0.0,0.0,0.0,0.0,0.0,0.0,0.0,0.0,0.0,0.0,0.0,0.0,0.0,0.0,0.0,0.0,0.0,0.0,0.0,0.0,0.0,0.0,0.0,0.0,0.0,-0.1804,0.0,0.0,0.0,0.0,0.0,0.0,0.0,0.0,0.0,0.0,0.0,-0.2357,-0.2901,-0.3276,-0.3535,-0.3425,-0.3523,-0.3589,0.0,0.0,0.0,0.0,0.0,0.0,0.0,0.0,0.0,0.0,0.0,0.0,0.0,0.0,-0.3104,-0.2759,-0.2584,-0.243,-0.2486,0.0,0.0,0.0,0.0,0.0,0.0,0.0,0.0,0.0,0.0,0.0,0.0,0.0,0.0,-0.1395,0.0,-0.1218,0.0,0.0,0.0,0.0,0.0,0.0,0.0,0.0,-0.2206,-0.2504,-0.2461,-0.2783,-0.2889,0.0,-0.247,-0.2249,0.0,0.0,0.0,0.0,0.0,0.0,0.0,0.0,-0.1867,-0.2204,-0.2496,-0.2551,-0.2466,-0.2466,-0.258,-0.2805,-0.2758,-0.2626,-0.2491,-0.2649,-0.2505,0.0,0.0,0.0,0.0,0.0,0.0,0.0,0.0,0.0,0.0,0.0,0.0,0.0,0.0,0.0,0.0,0.0,0.0,0.0,0.0,0.0,0.0,0.0,-0.1888,0.0,0.0,0.0,0.0,0.0,0.0,0.0,0.0,0.0,-0.2589,-0.2573,-0.2707,-0.317,-0.3524,-0.363,-0.3553,0.0,0.0,0.0,0.0,0.0,0.0,0.0,-0.3523,-0.3561,-0.3488,-0.3441,-0.339,-0.3621,-0.3706,-0.3457,0.0,0.0,-0.3229,-0.3038,-0.2962,-0.3019,-0.3046,-0.3065,-0.3087,-0.3041,-0.2971,0.0,0.0,0.0,0.0,0.0,0.0,0.0,0.0,-0.2068,-0.1907,0.0,-0.1664,0.0,0.0,0.0,0.0,0.0,-0.1604,0.0,0.0,-0.2653,-0.2962,-0.2914,-0.3229,-0.3335,-0.3335,-0.3016,-0.2804,-0.2692,-0.2306,0.0,0.0,0.0,0.0,0.0,0.0,-0.2159,-0.2778,-0.2777,-0.2809,-0.3029,-0.3029,-0.3141,-0.3136,-0.3308,-0.331,-0.2941,-0.3023,-0.2856,-0.2455,-0.2239,0.0,0.0,0.0,0.0,0.0,0.0,0.0,0.0,0.0,0.0,0.0,0.0,0.0,0.0,0.0,0.0,0.0,0.0,0.0,0.0,-0.1761,0.0,0.0,0.0,0.0,0.0,0.0,0.0,0.0,0.0,0.0,-0.2926,-0.3052,-0.3287,-0.3564,0.0,0.0,0.0,0.0,-0.3668,-0.3613,-0.3651,-0.3692,-0.3692,-0.3785,-0.3853,-0.3979,0.0,0.0,-0.3872,-0.4038,-0.4057,-0.388,-0.3913,-0.3899,-0.3719,-0.3537,-0.3444,-0.3491,-0.3461,-0.345,-0.3496,-0.3542,-0.3583,-0.2867,0.0,0.0,0.0,0.0,-0.2244,-0.2349,-0.2511,-0.2279,-0.2118,-0.1945,-0.176,0.0,0.0,0.0,0.0,0.0,0.0,-0.2165,-0.2668,-0.2955,-0.3293,-0.3466,-0.3621,-0.364,-0.364,-0.3485,-0.3429,-0.3361,-0.3223,-0.267,-0.1844,0.0,0.0,0.0,0.0,-0.2638,-0.2688,-0.3243,-0.3234,-0.2851,-0.3079,-0.3176,-0.3138,-0.3458,-0.3515,-0.3316,-0.3349,-0.3196,-0.2954,-0.2711,0.0,0.0,0.0,0.0,0.0,0.0,0.0,0.0,0.0,0.0,0.0,0.0,0.0,0.0,0.0,0.0,0.0,0.0,0.0,-0.1938,-0.2144,-0.2315,0.0,0.0,0.0,0.0,0.0,0.0,0.0,0.0,0.0,-0.3493,-0.351,-0.3545,0.0,0.0,-0.3844,-0.3684,-0.379,-0.3867,-0.3847,0.0,0.0,0.0,-0.4255,-0.4234,-0.4282,-0.4094,-0.4003,-0.4362,-0.4287,-0.4325,-0.4431,-0.419,-0.4057,-0.4006,-0.3891,-0.3807,-0.3818,-0.3807,-0.3801,-0.3818,-0.3837,-0.3845,-0.3545,-0.3011,-0.2804,-0.2697,-0.2753,-0.2734,-0.2824,-0.3091,-0.2841,-0.2681,-0.2517,-0.2307,-0.2118,-0.1883,-0.1667,0.0,0.0,0.0,-0.2369,-0.2804,-0.3112,-0.3305,-0.3598,-0.3752,-0.3768,-0.3766,-0.3614,-0.3598,-0.3714,-0.3537,-0.3153,-0.2598,0.0,0.0,-0.244,-0.2855,-0.3033,-0.3045,-0.3556,-0.3632,-0.325,-0.3364,-0.3464,-0.3431,-0.3522,-0.3608,-0.357,-0.3512,-0.3403,-0.3232,-0.3033,-0.2766,0.0,0.0,0.0,0.0,0.0,0.0,0.0,0.0,0.0,0.0,0.0,-0.185,0.0,0.0,0.0,0.0,-0.1985,-0.2103,-0.2338,-0.2546,0.0,0.0,0.0,0.0,0.0,0.0,0.0,-0.3365,-0.3529,-0.3687,-0.385,-0.3809,-0.3788,-0.3847,-0.401,-0.401,-0.3828,0.0,-0.3976,-0.4077,-0.425,-0.4413,-0.4791,-0.4765,-0.4771,-0.4588,-0.45,-0.4397,-0.4662,-0.4695,-0.4851,-0.472,-0.4589,-0.4327,-0.4196,-0.4139,-0.4074,-0.403,-0.4019,-0.4019,-0.4022,-0.4019,-0.4019,-0.4057,-0.403,-0.3518,-0.329,-0.3277,-0.3233,-0.3354,-0.363,-0.363,-0.3429,-0.3241,-0.3243,-0.3075,-0.2758,-0.2455,0.0,-0.1986,-0.2244,-0.2412,-0.248,-0.3076,-0.3312,-0.3428,-0.3667,-0.3785,-0.379,-0.3551,-0.3554,-0.379,-0.35,-0.3302,-0.3529,-0.3255,-0.309,-0.3025,-0.3129,-0.3324,-0.3602,-0.3717,-0.3777,-0.3777,-0.3771,-0.3766,-0.376,-0.3709,-0.3676,-0.367,-0.3616,-0.3561,-0.3501,-0.3281,-0.3046,-0.2809,0.0,0.0,0.0,0.0,0.0,0.0,0.0,0.0,0.0,0.0,0.0,0.0,0.0,0.0,0.0,-0.2287,0.0,-0.2807,-0.2959,0.0,0.0,0.0,-0.3025,-0.3262,-0.3431,-0.36,-0.3771,0.0,0.0,-0.4044,0.0,-0.4198,-0.4131,-0.4131,-0.4104,-0.4044,-0.4041,-0.4156,-0.4484,-0.4649,-0.482,-0.5093,-0.5318,-0.5291,-0.4951,-0.4986,-0.4852,-0.4986,-0.5396,-0.5534,-0.5127,-0.4858,-0.4723,-0.4456,-0.4311,-0.4278,-0.4169,-0.4145,-0.4142,-0.4139,-0.4139,-0.4139,-0.4243,-0.4232,-0.3986,-0.3888,-0.3804,-0.3791,-0.382,-0.3995,-0.3748,-0.3606,-0.346,-0.3211,-0.3056,-0.2998,-0.3176,-0.316,-0.3069,-0.3118,-0.3372,-0.3605,-0.3687,-0.3825,-0.3786,-0.3786,-0.3929,-0.397,-0.3846,-0.3846,-0.397,-0.3833,-0.3767,-0.3779,-0.376,-0.3519,-0.33,-0.3442,-0.3665,-0.3725,-0.3801,-0.3837,-0.3839,-0.3793,-0.3747,-0.37,-0.3684,-0.3657,-0.361,-0.3594,-0.358,-0.3561,-0.3382,-0.3191,-0.2992,-0.2531,0.0,0.0,0.0,0.0,0.0,0.0,0.0,0.0,0.0,-0.2431,-0.2005,0.0,-0.2632,0.0,-0.2513,-0.2564,-0.2959,-0.3448,0.0,0.0,-0.3398,-0.3512,-0.3752,-0.4053,-0.4237,-0.3962,-0.4542,-0.4875,-0.4689,-0.4825,-0.4851,-0.4649,-0.4313,-0.4104,-0.4046,-0.4377,-0.4692,-0.4813,-0.4988,-0.5297,-0.5697,-0.5778,-0.5851,-0.5869,-0.5093,-0.4848,-0.5688,-0.6245,-0.6383,-0.5964,-0.5411,-0.4996,-0.4993,-0.4684,-0.4371,-0.4335,-0.4297,-0.4264,-0.4264,-0.4264,-0.4264,-0.4324,-0.4343,-0.4283,-0.41,-0.3929,-0.3981,-0.4093,-0.4125,-0.4125,-0.4109,-0.4079,-0.4076,-0.3931,-0.3771,-0.3867,-0.373,-0.3482,-0.351,-0.3633,-0.3733,-0.3918,-0.4057,-0.403,-0.403,-0.4046,-0.4074,-0.4076,-0.4076,-0.4076,-0.4074,-0.4041,-0.3978,-0.3978,-0.3869,-0.3662,-0.3698,-0.3736,-0.3768,-0.3828,-0.3886,-0.3935,-0.388,-0.3807,-0.3722,-0.3692,-0.3638,-0.355,-0.3496,-0.3469,-0.3466,-0.3349,-0.3224,-0.3093,-0.2763,-0.252,0.0,0.0,0.0,0.0,0.0,0.0,0.0,0.0,0.0,0.0,0.0,-0.2929,0.0,-0.2989,-0.3168,-0.3379,-0.3734,-0.3865,-0.3728,-0.3883,-0.3993,-0.4087,-0.4339,-0.4485,-0.4185,-0.4595,-0.4744,-0.4781,-0.492,-0.5078,-0.4876,-0.4824,-0.4631,-0.447,-0.4787,-0.5248,-0.5413,-0.559,-0.5891,-0.6161,-0.634,-0.6371,-0.6095,-0.5709,-0.56,-0.6163,-0.6585,-0.6725,-0.6302,-0.5883,-0.5464,-0.5321,-0.5156,-0.4851,-0.4707,-0.4684,-0.4515,-0.4354,-0.4368,-0.4384,-0.4362,-0.4403,-0.4352,-0.4221,-0.3974,-0.4094,-0.4026,-0.4018,-0.4409,-0.4671,-0.4668,-0.5185,-0.5052,-0.4791,-0.4526,-0.4265,-0.3878,-0.3878,-0.3744,-0.3737,-0.4005,-0.4134,-0.4125,-0.4125,-0.4128,-0.4136,-0.4136,-0.4139,-0.4136,-0.4136,-0.4131,-0.4115,-0.4115,-0.4057,-0.3951,-0.3845,-0.3785,-0.3771,-0.3828,-0.391,-0.4008,-0.3956,-0.3869,-0.3752,-0.3695,-0.361,-0.3491,-0.3387,-0.3332,-0.333,-0.3275,-0.3221,-0.3172,-0.2989,-0.2845,0.0,-0.2572,0.0,0.0,0.0,0.0,0.0,0.0,0.0,0.0,-0.3194,-0.3224,-0.3232,-0.3531,-0.3728,-0.3736,-0.4007,-0.413,-0.4052,-0.4322,-0.4523,-0.4283,-0.4666,-0.4681,-0.4387,-0.4493,-0.46,-0.487,-0.5002,-0.5027,-0.5218,-0.5502,-0.5498,-0.524,-0.5368,-0.566,-0.6155,-0.6302,-0.6283,-0.6569,-0.6729,-0.6601,-0.6457,-0.6481,-0.6617,-0.6344,-0.6625,-0.6625,-0.634,-0.6067,-0.5919,-0.5631,-0.5484,-0.5334,-0.5057,-0.4914,-0.4893,-0.4566,-0.4442,-0.448,-0.4458,-0.4463,-0.4455,-0.4431,-0.4258,-0.436,-0.3915,-0.3337,-0.3737,-0.427,-0.4803,-0.5468,-0.5601,-0.5331,-0.5405,-0.5246,-0.4985,-0.4985,-0.4822,-0.4514,-0.4571,-0.4435,-0.4128,-0.4125,-0.4153,-0.4199,-0.4199,-0.4199,-0.4199,-0.4199,-0.4147,-0.4055,-0.4052,-0.4016,-0.3948,0.0,0.0,0.0,-0.3828,-0.3869,-0.3891,-0.3834,-0.3747,-0.3627,-0.361,0.0,-0.3436,-0.3406,-0.3395,-0.3392,-0.3335,0.0,0.0,0.0,0.0,0.0,0.0,0.0,0.0,0.0,0.0,0.0,-0.3357,-0.3308,-0.3229,-0.348,-0.367,-0.3722,-0.3872,-0.3989,-0.4038,-0.4117,-0.4302,-0.4183,-0.4226,-0.4403,-0.4305,-0.4612,-0.4783,-0.4395,-0.5256,-0.5698,-0.556,-0.5979,-0.6125,-0.5865,-0.614,-0.631,-0.5948,-0.6041,-0.6148,-0.6163,-0.6457,-0.6589,-0.6725,-0.6786,-0.6831,-0.6835,-0.6896,-0.6933,-0.6789,-0.6354,-0.6217,-0.6357,-0.5788,-0.5351,-0.5351,-0.5021,-0.4849,-0.4701,-0.4701,-0.4681,-0.448,-0.4477,-0.4482,-0.4501,0.0,-0.4463,-0.4442,0.0,-0.4376,-0.4062,-0.3765,-0.4305,-0.4977,-0.5647,-0.6046,-0.6049,-0.5915,-0.5741,-0.5457,-0.5321,-0.4926,-0.4775,-0.4744,-0.4778,-0.4775,-0.4741,-0.4475,-0.4493,-0.4525,-0.4395,-0.4262,-0.4262,-0.4262,-0.4229,-0.4429,-0.4426,-0.4523,-0.4588,-0.4554,-0.4505,-0.4195,-0.4069,-0.41,-0.4284,-0.4102,-0.3872,-0.373,0.0,0.0,0.0,0.0,0.0,0.0,0.0,0.0,0.0,0.0,0.0,-0.3395,-0.3292,-0.338,-0.371,-0.3752,-0.3856,-0.4165,-0.4245,-0.4211,-0.3818,-0.4044,-0.4357,-0.4579,-0.4781,-0.4729,-0.4562,-0.4603,-0.462,-0.4349,-0.4513,-0.4681,-0.471,-0.4854,-0.5008,-0.5035,-0.5324,-0.5617,-0.594,-0.6226,-0.6406,-0.6327,-0.6594,-0.6745,-0.652,-0.6587,-0.6516,-0.6559,-0.6713,-0.6856,-0.686,-0.6888,-0.6941,-0.6978,-0.699,-0.7007,-0.7047,-0.6727,-0.6406,-0.6559,-0.6148,-0.5883,-0.5883,-0.573,-0.5586,-0.5586,-0.5586,-0.5577,-0.5535,-0.5045,-0.4572,-0.4551,-0.4594,-0.4631,-0.4611,-0.4648,-0.4538,-0.4617,-0.4738,0.0,0.0,0.0,-0.6455,-0.6464,-0.648,-0.5938,-0.568,-0.5555,-0.5014,-0.4879,-0.5011,-0.5011,-0.5146,-0.542,-0.5011,-0.4876,-0.4876,-0.4462,-0.4324,-0.4324,-0.4313,-0.4574,-0.4839,-0.4839,-0.5078,-0.5287,-0.5226,-0.5066,-0.4933,-0.4331,-0.4339,-0.4704,-0.4254,-0.4019,-0.3864,-0.3861,-0.3785,-0.3627,-0.3572,-0.3545,-0.3542,-0.3608,-0.3611,-0.3667,-0.372,-0.3896,-0.3966,-0.3975,-0.413,-0.4457,-0.4504,-0.469,-0.5028,-0.5144,-0.5154,-0.4646,-0.474,-0.4991,-0.5389,-0.5413,-0.5335,-0.5172,-0.5184,-0.5045,-0.4762,-0.4902,-0.5207,-0.5257,-0.5247,-0.5386,-0.5716,-0.5709,-0.5852,-0.6494,-0.6649,-0.6688,-0.6802,-0.7076,-0.7206,-0.7256,-0.7011,-0.6941,-0.7019,-0.7039,-0.7039,-0.7039,-0.7039,-0.7068,-0.7277,-0.7231,-0.7068,-0.726,-0.7235,-0.719,-0.7198,-0.6806,-0.6689,-0.6704,-0.6593,-0.68,-0.6804,-0.6804,-0.6653,-0.6642,-0.5806,-0.4988,-0.4673,-0.4725,-0.4947,-0.5066,-0.5069,-0.5418,-0.5631,-0.5979,-0.5573,-0.5647,-0.6046,-0.6317,-0.6496,-0.657,-0.6433,-0.6477,-0.6549,-0.641,-0.6268,0.0,-0.599,-0.5848,-0.557,-0.5156,-0.5017,-0.5011,-0.4546,-0.4387,-0.4379,-0.4603,-0.4705,-0.4839,-0.5111,-0.5372,-0.5366,-0.5355,-0.5482,-0.5741,-0.4891,-0.4551,-0.4567,-0.413,-0.3937,-0.3867,-0.3864,-0.3826,-0.3747,-0.3736,-0.373,-0.373,-0.407,-0.4208,-0.4275,-0.4529,-0.4714,-0.484,-0.4853,-0.5066,-0.5263,-0.5236,-0.5267,-0.5534,-0.5573,-0.541,-0.5328,-0.5338,-0.5386,-0.5471,-0.5394,-0.5298,-0.5461,-0.5331,-0.5194,-0.5467,-0.5464,-0.5467,-0.5634,-0.6016,-0.6376,-0.6391,-0.7101,-0.7472,-0.7629,-0.7936,-0.7787,-0.7523,-0.7818,-0.8272,-0.8113,-0.7599,-0.7133,-0.7199,-0.7227,-0.7227,-0.7352,-0.7223,-0.7369,-0.769,-0.7523,-0.7502,-0.8131,-0.8267,-0.8099,-0.7814,-0.7373,-0.7231,-0.7235,-0.7243,-0.7268,-0.7276,-0.7129,-0.6819,-0.6823,-0.6337,-0.5849,-0.5149,-0.5293,-0.5593,-0.572,-0.5825,-0.6177,-0.6379,-0.6442,-0.6226,-0.6191,-0.6324,-0.6461,-0.6627,-0.6664,-0.6521,-0.6407,-0.6446,-0.6163,-0.6163,-0.6163,-0.6163,-0.6163,-0.6163,-0.5883,-0.5744,-0.56,-0.5292,-0.4996,-0.5134,-0.5237,-0.5341,-0.5437,-0.5803,-0.6049,-0.6053,-0.6095,-0.6122,-0.625,-0.5433,-0.4968,-0.4965,-0.4807,-0.4628,-0.4437,-0.456,-0.4652,-0.4583,-0.458,-0.458,-0.458,-0.4703,-0.484,-0.4873,-0.508,-0.5154,-0.5219,-0.5395,-0.5464,-0.5705,-0.5949,-0.6115,-0.6237,-0.6249,-0.6233,-0.6054,-0.5913,-0.5946,-0.6163,-0.6207,-0.6107,-0.6286,-0.6151,-0.6151,-0.6294,-0.6471,-0.6501,-0.6657,-0.6755,-0.7125,-0.7582,-0.78,-0.8031,-0.8237,-0.8393,-0.8421,-0.8148,-0.8745,-0.9167,-0.8702,-0.8205,-0.7867,-0.7867,-0.8013,-0.8013,-0.8013,-0.8013,-0.8035,-0.8232,-0.8195,-0.8342,-0.8521,-0.8668,-0.8624,-0.8318,-0.7898,-0.7777,-0.7629,-0.7676,-0.7851,-0.8017,-0.8017,-0.7864,-0.771,-0.737,-0.6709,-0.5596,-0.5859,-0.6356,-0.6945,-0.7478,-0.767,-0.7727,-0.7658,-0.7495,-0.7486,-0.7481,-0.7025,-0.6737,-0.6754,-0.6473,-0.634,-0.636,-0.6074,-0.6078,-0.636,-0.636,-0.65,-0.6645,-0.636,-0.636,-0.6497,-0.6056,-0.5905,-0.6181,-0.6166,-0.6268,-0.6477,-0.6545,-0.6517,-0.6517,-0.6586,-0.6619,-0.6615,-0.6005,-0.5694,-0.5541,-0.5406,-0.5238,-0.504,-0.5159,-0.5267,-0.5209,-0.5332,-0.5461,-0.5465,-0.5739,-0.5877,-0.5885,-0.6156,-0.6238,-0.6246,-0.6305,-0.6352,-0.6505,-0.6668,-0.6709,-0.6778,-0.6786,-0.6786,-0.6927,-0.6641,-0.6657,-0.699,-0.701,-0.7056,-0.7115,-0.7152,-0.7165,-0.7314,-0.7391,-0.7582,-0.7752,-0.7831,-0.804,-0.8498,-0.8517,-0.8574,-0.8784,-0.8962,-0.8992,-0.9201,-0.964,-0.9592,-0.9116,-0.8962,-0.8923,-0.8863,-0.8682,-0.8545,-0.8531,-0.854,-0.8578,-0.8799,-0.8903,-0.8898,-0.8932,-0.9198,-0.9152,-0.8859,-0.875,-0.8487,-0.8501,-0.8548,-0.8594,-0.891,-0.875,-0.8608,-0.8288,-0.7778,-0.7257,-0.5873,-0.6072,-0.7556,-0.9086,-1.0345,-1.0375,-1.0158,-1.0274,-1.0035,-1.0132,-0.9672,-0.764,-0.6774,-0.6835,-0.6981,-0.7023,-0.6954,-0.6962,-0.6958,-0.6958,-0.6966,-0.6966,-0.6954,-0.6673,-0.6821,-0.7378,-0.7019,-0.6981,-0.754,-0.7879,-0.797,-0.7683,-0.6979,-0.6696,-0.67,-0.6709,-0.6713,-0.6713,-0.6565,-0.6383,-0.6032,-0.5618,-0.5447,-0.5372,-0.5372,-0.5369,-0.5496,-0.6023,-0.6285,-0.6423,-0.7305,-0.7897,-0.8043,-0.8423,-0.8628,-0.8628,-0.8639,-0.8413,-0.7813,-0.7334,-0.6945,-0.6966,-0.7102,-0.7242,-0.7531,-0.7531,-0.736,-0.7464,-0.7504,-0.7697,-0.7865,-0.7792,-0.7837,-0.8145,-0.8234,-0.8445,-0.8459,-0.8839,-0.9213,-0.9218,-0.9444,-0.9837,-0.9832,-0.9832,-0.9842,-0.9703,-0.9848,-0.9987,-0.9826,-0.9671,-0.9671,-0.9666,-0.9206,-0.8891,-0.8886,-0.875,-0.9041,-0.9216,-0.9216,-0.9351,-0.9661,-0.9821,-0.9826,-0.9613,-0.9656,-0.9671,-0.9677,-0.9858,-0.9547,-0.9241,-0.909,-0.8622,-0.7838,-0.7513,-0.7325,-0.8363,-0.8664,-0.9595,-1.0312,-1.0956,-1.0161,-1.0248,-1.0755,-0.9166,-0.8821,-0.9238,-0.7652,-0.7612,-0.8939,-0.8939,-0.8965,-0.9008,-0.9013,-0.9008,-0.9013,-0.8868,-0.8724,-0.8579,-0.7856,-0.7566,-0.7851,-0.7238,-0.7077,-0.7347,-0.7553,-0.7504,-0.7358,-0.6894,-0.6725,-0.6729,-0.6774,-0.7085,-0.7513,-0.7562,-0.7681,-0.7725,-0.6831,-0.6099,-0.5931,-0.6061,-0.6203,-0.6203,-0.6473,-0.6611,-0.6611,-0.7061,-0.7359,-0.7359,-0.7589,-0.7926,-0.8354,-0.8545,-0.8744,-0.8801,-0.8266,-0.7996,-0.829,-0.8579,-0.8579,-0.829,-0.8724,-0.8703,-0.8246,-0.7982,-0.8024,-0.8528,-0.843,-0.8627,-0.8994,-0.9242,-0.9309,-0.9314,-0.9566,-0.964,-0.9794,-0.9837,-1.0175,-1.0486,-1.0325,-1.0008,-1.0014,-1.0019,-1.0019,-1.0019,-1.0019,-1.0019,-1.0019,-0.9713,-0.9553,-0.9553,-0.9553,-0.9553,-0.9708,-0.9708,-0.9864,-0.9864,-1.0019,-1.0019,-1.0019,-1.0019,-1.0019,-1.0014,-1.0019,-0.9864,-0.9708,-0.9246,-0.8622,-0.831,-0.7838,-0.7661,-1.0245,-1.0517,-1.0996,-1.1327,-1.1511,-1.0451,-1.0376,-1.0703,-0.8969,-0.8622,-0.9323,-0.8363,-0.891,-1.0209,-0.9746,-0.9446,-0.9446,-0.9441,-0.9441,-0.9446,-0.9157,-0.9157,-0.9013,-0.8285,-0.7851,-0.7996,-0.7856,-0.7856,-0.814,-0.793,-0.7888,-0.7879,-0.7535,-0.7363,-0.7367,-0.7576,-0.7888,-0.8326,-0.8539,-0.8822,-0.9029,-0.8101,-0.7332,-0.7004,-0.7139,-0.7279,-0.7279,-0.7562,-0.7697,-0.7701,-0.7864,-0.8019,-0.8023,-0.812,-0.8459,-0.8897,-0.896,-0.9002,-0.9302,-0.9008,-0.8863,-0.8868,-0.9302,-0.9307,-0.8874,-0.9302,-0.9318,-0.9066,-0.8629,-0.8675,-0.9029,-0.9102,-0.9324,-0.9709,-0.9971,-1.019,-1.0201,-1.0435,-1.0791,-1.0641,-1.0791,-1.0796,-1.1101,-1.063,-1.0008,-1.0019,-1.0019,-1.0019,-1.0019,-1.0019,-1.0019,-1.0019,-1.0019,-1.0019,-1.0019,-1.0019,-1.0019,-1.0019,-1.0019,-1.0019,-1.0019,-1.0019,-1.0019,-1.0019,-1.0019,-1.0019,-1.0019,-1.0019,-1.0019,-0.9708,-0.9246,-0.8778,-0.8622,-0.8154,-0.8154,-1.0311,-1.0492,-1.1186,-1.1985,-1.2567,-1.1808,-1.1277,-1.0996,-1.0536,-1.047,-1.0516,-1.0346,-1.0486,-1.0474,-0.8484,-0.728,-0.728,-0.7566,-0.7711,-0.7711,-0.7566,-0.728,-0.7135,-0.7135,-0.7566,-0.843,-0.8868,-0.974,-1.1038,-1.0593,-1.0299,-1.0149,-0.9413,-0.9136,-0.9125,-0.9131,-0.9147,-0.9285,-0.9585,-0.9729,-0.9435,-0.9568,-0.945,-0.8986,-0.8809,-0.882,-0.8954,-0.9504,-0.9926,-0.9926,-1.0467,-1.0953,-1.1114,-1.109,-1.1168,-1.1168,-1.0449,-0.9873,-0.959,-0.974,-0.9452,-0.829,-0.8868,-0.8874,-0.9018,-0.9173,-0.9362,-0.9465,-0.9628,-0.9645,-0.9525,-0.9677,-0.9796,-0.9982,-1.0703,-1.1231,-1.1244,-1.1708,-1.2347,-1.2192,-1.2037,-1.1727,-1.1262,-1.0486,-1.0175,-1.0019,-1.0019,-1.0019,-1.0019,-1.0019,-1.0019,-1.0019,-1.0019,-1.0019,-1.0019,-1.0019,-1.0019,-1.0019,-1.0019,-1.0019,-1.0019,-1.0019,-1.0019,-1.0019,-1.0019,-1.0019,-1.0019,-1.0019,-0.9864,-0.9558,-0.9246,-0.8934,-0.8934,-0.8778,-0.8778,-1.2381,-1.2191,-1.289,-1.3185,-1.302,-1.2428,-1.2543,-1.294,-1.1444,-1.1269,-1.1669,-1.1218,-1.073,-1.0645,-0.9719,-0.9658,-1.0167,-0.9585,-1.0017,-1.1168,-1.0449,-1.0305,-1.0881,-1.0305,-1.0017,-1.0305,-1.0161,-1.0167,-1.0455,-1.0023,-0.9879,-1.0023,-0.9879,-0.9735,-0.9879,-0.9735,-0.9879,-1.0311,-1.0311,-1.0455,-1.075,-1.0894,-1.0986,-1.1031,-0.9888,-0.9171,-0.9171,-0.9462,-0.9604,-0.9604,-0.9935,-1.0102,-1.0102,-1.0575,-1.0894,-1.0887,-1.1038,-1.1038,-1.075,-1.0449,-1.0449,-1.0599,-1.1175,-1.1319,-1.1188,-1.126,-1.1338,-1.1116,-1.1275,-1.1202,-1.0769,-1.0696,-1.0785,-1.101,-1.1689,-1.2037,-1.2037,-1.2347,-1.2347,-1.1882,-1.1727,-1.1572,-1.1572,-1.1423,-1.1119,-1.0175,-1.0019,-1.0019,-1.0019,-1.0019,-1.0019,-1.0019,-1.0019,-1.0019,-1.0019,-1.0019,-1.0019,-1.0019,-1.0019,-1.0019,-1.0019,-1.0019,-1.0019,-1.0019,-1.0019,-1.0019,-1.0019,-1.0019,-0.9864,-0.9864,-0.9402,-0.9246,-0.9246,-0.909,-0.909,-1.3682,-1.3359,-1.3566,-1.3506,-1.3015,-1.2473,-1.2607,-1.303,-1.1619,-1.1339,-1.1904,-1.1345,-1.1014,-1.0779,-1.0878,-1.1371,-1.2107,-1.0906,-1.1312,-1.2602,-1.1743,-1.1599,-1.2173,-1.1606,-1.1168,-1.1168,-1.1025,-1.0737,-1.0887,-1.0599,-1.0599,-1.0887,-1.0887,-1.0887,-1.1175,-1.0887,-1.1031,-1.1456,-1.1456,-1.1606,-1.2043,-1.2043,-1.2187,-1.2187,-1.1031,-1.0455,-1.0455,-1.0455,-1.0449,-1.0455,-1.0455,-1.0311,-1.0311,-1.0599,-1.0887,-1.1031,-1.1325,-1.1613,-1.1756,-1.1592,-1.1736,-1.2187,-1.2949,-1.3115,-1.2547,-1.2838,-1.2794,-1.26,-1.2585,-1.2422,-1.2,-1.202,-1.2079,-1.232,-1.2649,-1.2811,-1.2965,-1.2811,-1.2656,-1.2347,-1.1882,-1.1727,-1.1727,-1.1578,-1.1113,-1.0019,-1.0019,-1.0019,-1.0019,-1.0019,-1.0019,-1.0019,-1.0019,-1.0019,-1.0019,-1.0019,-1.0019,-1.0019,-1.0019,-1.0019,-1.0019,-1.0019,-1.0019,-1.0019,-1.0019,-1.0019,-1.0019,-1.0019,-1.0019,-1.0019,-0.9864,-0.9558,-0.9558,-0.9397,-0.9397,-1.392,-1.3666,-1.323,-1.2875,-1.2472,-1.1993,-1.1218,-1.1167,-1.1239,-1.1422,-1.1652,-1.1296,-1.1498,-1.1315,-1.1502,-1.1663,-1.2255,-1.1398,-1.0894,-1.1025,-1.0737,-1.0737,-1.1025,-1.1025,-1.0887,-1.0887,-1.1312,-1.2036,-1.261,-1.2466,-1.2466,-1.261,-1.261,-1.261,-1.2753,-1.261,-1.261,-1.2753,-1.2896,-1.2896,-1.2896,-1.2896,-1.3039,-1.2896,-1.261,-1.261,-1.261,-1.261,-1.2466,-1.261,-1.261,-1.2617,-1.2051,-1.1763,-1.1763,-1.2051,-1.1893,-1.1893,-1.2323,-1.3197,-1.3333,-1.2783,-1.3184,-1.3696,-1.3452,-1.3443,-1.3595,-1.3694,-1.362,-1.3376,-1.3013,-1.3524,-1.3868,-1.3443,-1.359,-1.3737,-1.3744,-1.3744,-1.3744,-1.3428,-1.2965,-1.2501,-1.2185,-1.1405,-1.0474,-1.0325,-1.0175,-1.0186,-1.0047,-1.0052,-1.003,-1.0047,-1.0079,-1.0106,-1.0063,-1.0025,-1.0025,-1.0025,-1.0019,-1.0019,-1.0019,-1.0019,-1.0019,-1.0019,-1.0019,-1.0019,-1.0019,-1.0019,-1.0019,-1.0019,-0.9864,-0.9864,-0.9864,-0.9708,-0.9864,-1.3905,-1.339,-1.383,-1.3606,-1.3022,-1.3363,-1.3348,-1.3178,-1.3401,-1.3453,-1.3446,-1.3733,-1.3748,-1.365,-1.3582,-1.3618,-1.3745,-1.329,-1.2865,-1.2632,-1.2036,-1.2036,-1.2602,-1.2753,-1.2753,-1.2753,-1.2753,-1.2896,-1.3039,-1.2896,-1.2896,-1.3039,-1.3182,-1.3325,-1.3468,-1.3325,-1.3182,-1.3182,-1.3039,-1.2896,-1.2753,-1.2896,-1.3039,-1.3182,-1.3182,-1.3182,-1.3468,-1.3039,-1.2753,-1.2753,-1.2753,-1.2753,-1.2617,-1.276,-1.276,-1.2896,-1.2595,-1.2738,-1.3468,-1.4659,-1.5006,-1.4355,-1.4566,-1.4804,-1.4931,-1.4951,-1.5085,-1.5161,-1.5261,-1.5217,-1.5242,-1.542,-1.5275,-1.4499,-1.4507,-1.4507,-1.4353,-1.4045,-1.4045,-1.4353,-1.3428,-1.2811,-1.2965,-1.2024,-1.1262,-1.0969,-1.1125,-1.0993,-1.0437,-1.0291,-1.0193,-1.0248,-1.0253,-1.0193,-1.0144,-1.009,-1.0068,-1.0052,-1.0036,-1.0019,-1.0019,-1.0019,-1.0019,-1.0019,-1.0019,-1.0019,-1.0019,-1.0019,-1.0019,-1.0019,-1.0019,-1.0019,-1.0019,-1.0019,-1.0019,-1.4219,-1.3552,-1.4088,-1.4136,-1.3683,-1.4284,-1.4432,-1.4456,-1.4627,-1.4708,-1.4741,-1.4887,-1.4911,-1.4822,-1.4806,-1.47,-1.4529,-1.4416,-1.4278,-1.3938,-1.3221,-1.3333,-1.3904,-1.3904,-1.3904,-1.3904,-1.3611,-1.3468,-1.3468,-1.3325,-1.3333,-1.3468,-1.3468,-1.3611,-1.3904,-1.3611,-1.3468,-1.3468,-1.3325,-1.3182,-1.3197,-1.3244,-1.3426,-1.3578,-1.3922,-1.4058,-1.4153,-1.3858,-1.3531,-1.334,-1.3182,-1.3325,-1.3468,-1.3468,-1.3611,-1.3611,-1.3452,-1.3595,-1.4474,-1.573,-1.6109,-1.5623,-1.5749,-1.603,-1.6175,-1.6346,-1.6464,-1.6491,-1.6581,-1.6662,-1.6662,-1.651,-1.6195,-1.6042,-1.5429,-1.4968,-1.4661,-1.4045,-1.3891,-1.4045,-1.3583,-1.3303,-1.3339,-1.3516,-1.2603,-1.2174,-1.2357,-1.2527,-1.1665,-1.1172,-1.1072,-1.0759,-1.0521,-1.0335,-1.0199,-1.0161,-1.0117,-1.0085,-1.0057,-1.0036,-1.0019,-1.0019,-1.0019,-1.0019,-1.0019,-1.0019,-1.0019,-1.0019,-1.0019,-1.0019,-1.0019,-1.0019,-1.0019,-1.0019,-1.0019,-1.491,-1.4448,-1.4456,-1.4489,-1.434,-1.4489,-1.4505,-1.4505,-1.4651,-1.4741,-1.4773,-1.4903,-1.496,-1.496,-1.4935,-1.4854,-1.4741,-1.4826,-1.472,-1.4514,-1.414,-1.4104,-1.3912,-1.3904,-1.4047,-1.4047,-1.4047,-1.4047,-1.4047,-1.4047,-1.3904,-1.4047,-1.4047,-1.4047,-1.4047,-1.4047,-1.4047,-1.4047,-1.4063,-1.408,-1.4088,-1.4244,-1.4334,-1.4342,-1.4759,-1.4914,-1.4787,-1.5052,-1.4813,-1.4071,-1.3904,-1.4047,-1.4332,-1.4189,-1.4189,-1.4483,-1.4181,-1.4634,-1.5533,-1.629,-1.6711,-1.6458,-1.6711,-1.7114,-1.6992,-1.7123,-1.7227,-1.7236,-1.7264,-1.7273,-1.7273,-1.7121,-1.6968,-1.7139,-1.6203,-1.513,-1.4045,-1.3891,-1.4045,-1.4053,-1.3906,-1.3959,-1.4258,-1.461,-1.423,-1.3663,-1.3858,-1.4025,-1.3401,-1.2722,-1.2311,-1.1836,-1.1255,-1.0605,-1.0667,-1.0307,-1.0264,-1.021,-1.0166,-1.0123,-1.0074,-1.0063,-1.003,-1.003,-1.0019,-1.0019,-1.0019,-1.0019,-1.0019,-1.0019,-1.0019,-1.0019,-1.0019,-1.0019,-1.0019,-1.5354,-1.5094,-1.4925,-1.483,-1.483,-1.4822,-1.4822,-1.483,-1.4871,-1.4887,-1.4911,-1.4944,-1.4968,-1.4968,-1.4968,-1.4935,-1.5023,-1.5068,-1.5136,-1.5043,-1.5138,-1.4711,-1.4088,-1.4189,-1.4332,-1.4332,-1.4474,-1.4759,-1.4759,-1.4617,-1.4625,-1.4759,-1.4617,-1.4768,-1.4759,-1.4617,-1.4768,-1.4785,-1.4906,-1.4957,-1.4992,-1.5138,-1.5242,-1.5251,-1.545,-1.545,-1.5389,-1.5536,-1.5377,-1.4794,-1.4759,-1.4759,-1.4927,-1.5061,-1.5061,-1.523,-1.5605,-1.5965,-1.6299,-1.6759,-1.694,-1.6925,-1.7038,-1.7171,-1.7331,-1.7388,-1.7426,-1.7426,-1.7426,-1.7426,-1.7426,-1.7273,-1.7121,-1.6815,-1.6203,-1.5582,-1.5122,-1.513,-1.5122,-1.5138,-1.5399,-1.5499,-1.5433,-1.5524,-1.5463,-1.4875,-1.5241,-1.5601,-1.4838,-1.4179,-1.3778,-1.2814,-1.2055,-1.1504,-1.0981,-1.0622,-1.0416,-1.0351,-1.0307,-1.0269,-1.021,-1.0161,-1.0101,-1.0052,-1.0025,-1.0019,-1.0019,-1.0019,-1.0019,-1.0019,-1.0019,-1.0019,-1.0019,-1.0019,-1.0019,-1.5911,-1.5733,-1.554,-1.5429,-1.5275,-1.5275,-1.5122,-1.4968,-1.4968,-1.4968,-1.4968,-1.4968,-1.5122,-1.5275,-1.5275,-1.5429,-1.5565,-1.5624,-1.5733,-1.569,-1.5667,-1.5233,-1.4813,-1.4736,-1.4845,-1.4768,-1.491,-1.5052,-1.5052,-1.5052,-1.5052,-1.5044,-1.5052,-1.5052,-1.5052,-1.5052,-1.5052,-1.507,-1.5167,-1.5246,-1.5342,-1.5518,-1.5659,-1.5878,-1.5949,-1.6125,-1.6193,-1.625,-1.594,-1.5623,-1.5434,-1.5578,-1.5714,-1.5919,-1.591,-1.5983,-1.6337,-1.6663,-1.6787,-1.6968,-1.713,-1.7095,-1.7171,-1.7294,-1.7388,-1.7426,-1.7426,-1.7426,-1.7426,-1.7426,-1.7426,-1.7426,-1.7273,-1.7121,-1.6501,-1.6042,-1.5897,-1.5975,-1.6001,-1.6052,-1.6329,-1.6652,-1.6397,-1.6182,-1.5946,-1.619,-1.6912,-1.6794,-1.6341,-1.565,-1.5139,-1.4266,-1.3124,-1.2188,-1.1492,-1.1143,-1.0672,-1.046,-1.0449,-1.0411,-1.0346,-1.0269,-1.0188,-1.0117,-1.0063,-1.0025,-1.0036,-1.0036,-1.0019,-1.0019,-1.0019,-1.0019,-1.0019,-1.0047,-1.0041,-1.6482,-1.6203,-1.6212,-1.605,-1.5744,-1.5744,-1.5582,-1.5275,-1.5275,-1.5275,-1.5275,-1.5122,-1.5429,-1.5735,-1.5735,-1.5897,-1.6203,-1.6177,-1.6339,-1.6286,-1.6295,-1.5895,-1.5603,-1.5523,-1.5434,-1.5175,-1.5105,-1.5239,-1.5381,-1.5221,-1.5195,-1.5195,-1.5195,-1.5186,-1.5337,-1.5195,-1.5203,-1.5248,-1.5462,-1.5587,-1.5757,-1.5946,-1.6116,-1.6241,-1.6509,-1.6812,-1.6983,-1.6852,-1.673,-1.6277,-1.6232,-1.6315,-1.6599,-1.6594,-1.6604,-1.6717,-1.666,-1.6679,-1.6831,-1.7178,-1.7302,-1.719,-1.7331,-1.7426,-1.7426,-1.7426,-1.7426,-1.7426,-1.7426,-1.7426,-1.7426,-1.7426,-1.7426,-1.7273,-1.6968,-1.6662,-1.641,-1.6543,-1.6485,-1.6658,-1.6827,-1.704,-1.6825,-1.658,-1.6291,-1.7008,-1.7729,-1.7747,-1.7421,-1.7051,-1.652,-1.6024,-1.4504,-1.2943,-1.2293,-1.1486,-1.1038,-1.0721,-1.0574,-1.0547,-1.0476,-1.0394,-1.0291,-1.0221,-1.0193,-1.0134,-1.0074,-1.0063,-1.0052,-1.0019,-1.0019,-1.0019,-1.0025,-1.0074,-1.009,-1.6633,-1.6653,-1.6653,-1.651,-1.6203,-1.6348,-1.6501,-1.6348,-1.6042,-1.6042,-1.6195,-1.6042,-1.5897,-1.605,-1.605,-1.605,-1.6357,-1.651,-1.6815,-1.7111,-1.7093,-1.6917,-1.6675,-1.6232,-1.5976,-1.5885,-1.6048,-1.6137,-1.6109,-1.6007,-1.5904,-1.5923,-1.5818,-1.5904,-1.5923,-1.5818,-1.5988,-1.6127,-1.6276,-1.6443,-1.6629,-1.6824,-1.6963,-1.7037,-1.7084,-1.7245,-1.7369,-1.7312,-1.7294,-1.7067,-1.6861,-1.6702,-1.684,-1.6774,-1.6783,-1.6683,-1.6934,-1.713,-1.7226,-1.7378,-1.735,-1.7341,-1.7379,-1.7426,-1.7426,-1.7426,-1.7426,-1.7426,-1.7426,-1.7426,-1.7426,-1.7426,-1.7445,-1.7454,-1.7311,-1.7358,-1.7325,-1.7089,-1.697,-1.7207,-1.7594,-1.7984,-1.7718,-1.7873,-1.7774,-1.801,-1.8183,-1.8529,-1.8491,-1.8118,-1.7756,-1.706,-1.6057,-1.4519,-1.354,-1.2729,-1.2257,-1.1617,-1.1305,-1.0986,-1.0919,-1.0536,-1.0443,-1.0378,-1.034,-1.0264,-1.0177,-1.0139,-1.0134,-1.0079,-1.003,-1.0036,-1.0057,-1.0101,-1.0161,-1.7452,-1.7569,-1.7569,-1.7416,-1.7121,-1.7264,-1.7264,-1.6959,-1.6653,-1.6662,-1.6653,-1.6357,-1.6357,-1.6501,-1.6501,-1.651,-1.6815,-1.6968,-1.7121,-1.7426,-1.7416,-1.736,-1.7284,-1.6983,-1.6712,-1.6536,-1.6543,-1.6632,-1.6594,-1.6538,-1.65,-1.6471,-1.6462,-1.65,-1.6471,-1.6462,-1.6538,-1.6623,-1.6736,-1.6897,-1.7095,-1.7209,-1.7341,-1.7407,-1.7426,-1.7426,-1.7416,-1.7416,-1.7416,-1.7369,-1.7218,-1.7086,-1.7067,-1.7001,-1.6991,-1.6946,-1.7067,-1.718,-1.7265,-1.735,-1.7416,-1.7426,-1.7426,-1.7426,-1.7426,-1.7426,-1.7426,-1.7426,-1.7426,-1.7426,-1.7435,-1.7693,-1.7558,-1.7587,-1.7662,-1.7757,-1.7695,-1.7566,-1.7622,-1.7734,-1.8163,-1.8294,-1.8407,-1.8636,-1.8654,-1.8346,-1.8346,-1.8683,-1.8683,-1.8482,-1.8328,-1.781,-1.7001,-1.5999,-1.5005,-1.4174,-1.3501,-1.3012,-1.2516,-1.2191,-1.183,-1.1294,-1.0596,-1.0525,-1.0449,-1.0373,-1.0291,-1.0259,-1.0204,-1.0144,-1.0101,-1.0085,-1.0095,-1.047,-1.0385,-1.8218,-1.8603,-1.8633,-1.8491,-1.8177,-1.8177,-1.8025,-1.7711,-1.7102,-1.7111,-1.6959,-1.6662,-1.6662,-1.6806,-1.6959,-1.7111,-1.7273,-1.7426,-1.7426,-1.7426,-1.7426,-1.7407,-1.7379,-1.7341,-1.7086,-1.6925,-1.6868,-1.6849,-1.684,-1.6812,-1.6717,-1.6783,-1.6783,-1.6736,-1.6774,-1.6802,-1.6793,-1.684,-1.6868,-1.6982,-1.7142,-1.7199,-1.7294,-1.7388,-1.7426,-1.7426,-1.7426,-1.7426,-1.7426,-1.7426,-1.7426,-1.7426,-1.7379,-1.7284,-1.7218,-1.7398,-1.7256,-1.7256,-1.735,-1.7416,-1.7426,-1.7426,-1.7426,-1.7426,-1.7426,-1.7426,-1.7426,-1.7445,-1.7454,-1.7348,-1.7492,-1.7662,-1.7922,-1.7804,-1.7946,-1.805,-1.8087,-1.8097,-1.8172,-1.8295,-1.8456,-1.8588,-1.8626,-1.8673,-1.8673,-1.8673,-1.8673,-1.8673,-1.8673,-1.8673,-1.851,-1.851,-1.7846,-1.7026,-1.6032,-1.4871,-1.4368,-1.4203,-1.3542,-1.3211,-1.3045,-1.2682,-1.1965,-1.0771,-1.0536,-1.0633,-1.0556,-1.0335,-1.0275,-1.021,-1.0605,-1.0855,-1.0902,-1.0832,-1.093,-1.8127,-1.838,-1.8864,-1.8946,-1.8643,-1.8785,-1.8936,-1.8785,-1.8025,-1.8025,-1.8187,-1.7578,-1.7121,-1.7273,-1.7273,-1.7426,-1.7426,-1.7426,-1.7426,-1.7426,-1.7426,-1.7426,-1.7426,-1.7416,-1.7369,-1.7303,-1.7161,-1.7057,-1.701,-1.6897,-1.6887,-1.6831,-1.684,-1.684,-1.6849,-1.6821,-1.6934,-1.7038,-1.7057,-1.7161,-1.7294,-1.7341,-1.735,-1.7426,-1.7426,-1.7426,-1.7426,-1.7426,-1.7426,-1.7426,-1.7426,-1.7426,-1.7416,-1.7379,-1.7379,-1.7398,-1.7379,-1.7369,-1.7416,-1.7426,-1.7426,-1.7426,-1.7426,-1.7426,-1.7426,-1.7426,-1.7435,-1.7483,-1.7414,-1.7498,-1.7681,-1.787,-1.7974,-1.8012,-1.8059,-1.8144,-1.8267,-1.8305,-1.8314,-1.8409,-1.856,-1.8673,-1.8673,-1.8673,-1.8673,-1.8673,-1.8673,-1.8673,-1.8673,-1.8673,-1.8673,-1.8673,-1.851,-1.7682,-1.6698,-1.5695,-1.4863,-1.5028,-1.4698,-1.4533,-1.4368,-1.4368,-1.3665,-1.2301,-1.1294,-1.1259,-1.1009,-1.0895,-1.1101,-1.164,-1.1861,-1.1927,-1.222,-1.2509,-1.2949,-1.8696,-1.8915,-1.9446,-1.939,-1.9401,-1.9401,-1.9542,-1.9401,-1.8633,-1.8491,-1.8339,-1.7731,-1.7426,-1.7426,-1.7426,-1.7426,-1.7426,-1.7426,-1.7426,-1.7426,-1.7426,-1.7426,-1.7426,-1.7426,-1.7426,-1.7398,-1.7312,-1.7265,-1.7265,-1.719,-1.7105,-1.7133,-1.7123,-1.7123,-1.7133,-1.7142,-1.7171,-1.7256,-1.7265,-1.7303,-1.7416,-1.7426,-1.7426,-1.7426,-1.7426,-1.7426,-1.7426,-1.7426,-1.7426,-1.7426,-1.7426,-1.7426,-1.7426,-1.7426,-1.7426,-1.7426,-1.7426,-1.7426,-1.7426,-1.7426,-1.7426,-1.7426,-1.7426,-1.7426,-1.7426,-1.7435,-1.7473,-1.7577,-1.747,-1.7611,-1.7879,-1.8087,-1.835,-1.8229,-1.8286,-1.8399,-1.8484,-1.8513,-1.8503,-1.8494,-1.8598,-1.8673,-1.8673,-1.8673,-1.8673,-1.8673,-1.8673,-1.8673,-1.8673,-1.8673,-1.8673,-1.8673,-1.8673,-1.8346,-1.7682,-1.6854,-1.6024,-1.6024,-1.5851,-1.5687,-1.553,-1.553,-1.4863,-1.3514,-1.2847,-1.2662,-1.2527,-1.2849,-1.2881,-1.291,-1.2984,-1.3269,-1.3749,-1.4214,-1.4655,-1.9262,-1.9456,-1.9725,-1.9844,-1.9844,-1.9844,-1.9844,-1.9693,-1.9098,-1.8643,-1.8491,-1.7883,-1.7426,-1.7426,-1.7426,-1.7426,-1.7426,-1.7426,-1.7426,-1.7426,-1.7426,-1.7426,-1.7426,-1.7426,-1.7426,-1.7416,-1.7407,-1.7426,-1.7398,-1.7379,-1.7407,-1.7369,-1.7407,-1.7426,-1.7388,-1.735,-1.7416,-1.7426,-1.7426,-1.7426,-1.7426,-1.7426,-1.7426,-1.7426,-1.7426,-1.7426,-1.7426,-1.7426,-1.7426,-1.7426,-1.7426,-1.7426,-1.7426,-1.7426,-1.7426,-1.7426,-1.7426,-1.7426,-1.7426,-1.7426,-1.7426,-1.7426,-1.7426,-1.7426,-1.7445,-1.7483,-1.7558,-1.77,-1.7695,-1.777,-1.8106,-1.8465,-1.857,-1.8608,-1.855,-1.8664,-1.8645,-1.8636,-1.8626,-1.8636,-1.8673,-1.8673,-1.8673,-1.8673,-1.8673,-1.8673,-1.8673,-1.8673,-1.8673,-1.8673,-1.8673,-1.8673,-1.8673,-1.8673,-1.851,-1.8346,-1.7846,-1.7673,-1.7346,-1.7018,-1.6862,-1.6871,-1.6032,-1.5358,-1.5522,-1.5467,-1.5139,-1.4486,-1.4003,-1.3877,-1.4117,-1.4774,-1.5398,-1.5847,-1.5963,-1.9165,-1.923,-1.9671,-1.9844,-1.9844,-1.9844,-1.9844,-1.9844,-1.939,-1.8946,-1.8643,-1.8177,-1.7721,-1.7578,-1.7426,-1.7426,-1.7426,-1.7426,-1.7426,-1.7426,-1.7426,-1.7426,-1.7426,-1.7426,-1.7578,-1.7578,-1.7578,-1.7426,-1.7426,-1.7426,-1.7426,-1.7426,-1.7426,-1.7426,-1.7426,-1.7426,-1.7426,-1.7426,-1.7426,-1.7426,-1.7426,-1.7426,-1.7426,-1.7426,-1.7426,-1.7426,-1.7426,-1.7426,-1.7426,-1.7426,-1.7426,-1.7426,-1.7426,-1.7426,-1.7426,-1.7426,-1.7426,-1.7426,-1.7426,-1.7426,-1.7426,-1.7426,-1.7426,-1.7426,-1.7483,-1.7587,-1.7681,-1.7728,-1.8012,-1.8239,-1.8324,-1.8503,-1.8607,-1.8617,-1.8636,-1.8673,-1.8673,-1.8673,-1.8673,-1.8673,-1.8673,-1.8673,-1.8673,-1.8673,-1.8673,-1.8673,-1.8673,-1.8673,-1.8673,-1.8673,-1.8673,-1.8673,-1.8673,-1.8673,-1.8673,-1.8673,-1.8673,-1.8673,-1.8346,-1.801,-1.7855,-1.7855,-1.8183,-1.7682,-1.7837,-1.7112,-1.595,-1.5289,-1.4955,-1.5144,-1.5515,-1.639,-1.7344,-1.749,-1.7333,-1.9273,-1.9187,-1.965,-1.9844,-1.9844,-1.9844,-1.9844,-1.9844,-1.939,-1.9088,-1.8946,-1.8491,-1.8187,-1.7721,-1.7721,-1.7578,-1.7426,-1.7426,-1.7569,-1.7721,-1.7721,-1.7873,-1.8035,-1.8035,-1.8035,-1.8035,-1.8035,-1.8187,-1.8035,-1.7578,-1.7426,-1.7426,-1.7426,-1.7426,-1.7426,-1.7426,-1.7426,-1.7426,-1.7426,-1.7426,-1.7426,-1.7426,-1.7426,-1.7426,-1.7426,-1.7426,-1.7426,-1.7426,-1.7426,-1.7426,-1.7426,-1.7426,-1.7426,-1.7426,-1.7426,-1.7426,-1.7426,-1.7426,-1.7426,-1.7426,-1.7435,-1.7435,-1.7445,-1.7473,-1.7577,-1.769,-1.787,-1.8078,-1.8229,-1.838,-1.8494,-1.8617,-1.8654,-1.8673,-1.8645,-1.8673,-1.8673,-1.8673,-1.8673,-1.8673,-1.8673,-1.8673,-1.8673,-1.8673,-1.8673,-1.8673,-1.8673,-1.8673,-1.8673,-1.8673,-1.8673,-1.8673,-1.8673,-1.8673,-1.8673,-1.8673,-1.8673,-1.8673,-1.8673,-1.851,-1.851,-1.8673,-1.8673,-1.8673,-1.8346,-1.7575,-1.6589,-1.6427,-1.6406,-1.6573,-1.6897,-1.7401,-1.792,-1.8191,-1.8017,-1.9391,-1.9284,-1.9682,-1.9844,-1.9844,-1.9844,-1.9844,-1.9844,-1.9542,-1.9401,-1.9098,-1.8795,-1.8339,-1.8187,-1.8177,-1.8035,-1.7731,-1.7731,-1.7883,-1.8025,-1.8187,-1.8339,-1.8491,-1.8501,-1.8501,-1.8643,-1.8491,-1.8491,-1.8339,-1.8035,-1.7731,-1.7578,-1.7426,-1.7426,-1.7426,-1.7426,-1.7426,-1.7426,-1.7426,-1.7426,-1.7426,-1.7426,-1.7426,-1.7426,-1.7426,-1.7426,-1.7426,-1.7426,-1.7426,-1.7426,-1.7426,-1.7426,-1.7426,-1.7426,-1.7426,-1.7445,-1.7473,-1.753,-1.753,-1.753,-1.7501,-1.7511,-1.7577,-1.769,-1.7785,-1.7842,-1.7955,-1.8286,-1.8409,-1.8503,-1.856,-1.8579,-1.856,-1.856,-1.8569,-1.8617,-1.8664,-1.8673,-1.8673,-1.8673,-1.8673,-1.8673,-1.8673,-1.8673,-1.8673,-1.8673,-1.8673,-1.8673,-1.8673,-1.8673,-1.8673,-1.8673,-1.8673,-1.8673,-1.8673,-1.8673,-1.8673,-1.8673,-1.8673,-1.8673,-1.8673,-1.8673,-1.8673,-1.8673,-1.8673,-1.8388,-1.7414,-1.7723,-1.8031,-1.7613,-1.741,-1.7845,-1.8201,-1.8484,-1.8645,-1.9488,-1.9499,-1.9747,-1.9844,-1.9844,-1.9844,-1.9844,-1.9844,-1.9844,-1.9542,-1.9249,-1.8795,-1.8643,-1.8491,-1.8491,-1.8491,-1.8491,-1.8491,-1.8491,-1.8491,-1.8643,-1.8643,-1.8795,-1.8795,-1.8643,-1.8643,-1.8795,-1.8795,-1.8643,-1.8643,-1.8187,-1.8025,-1.7731,-1.7426,-1.7426,-1.7426,-1.7426,-1.7426,-1.7426,-1.7426,-1.7426,-1.7426,-1.7426,-1.7426,-1.7426,-1.7426,-1.7426,-1.7426,-1.7426,-1.7426,-1.7426,-1.7426,-1.7426,-1.7426,-1.7426,-1.7501,-1.7596,-1.7662,-1.769,-1.7709,-1.7709,-1.7757,-1.7842,-1.7946,-1.8021,-1.8201,-1.8324,-1.838,-1.8513,-1.8532,-1.8475,-1.839,-1.8484,-1.8503,-1.856,-1.8588,-1.8636,-1.8673,-1.8673,-1.8673,-1.8673,-1.8673,-1.8673,-1.8673,-1.8673,-1.8673,-1.8673,-1.8673,-1.8673,-1.8673,-1.8673,-1.8673,-1.8673,-1.8673,-1.8673,-1.8673,-1.8673,-1.8673,-1.8673,-1.8673,-1.8673,-1.8673,-1.8673,-1.8673,-1.8664,-1.8532,-1.8437,-1.8352,-1.8248,-1.8106,-1.8078,-1.8182,-1.8305,-1.8541,-1.8645,-1.9714,-1.9725,-1.9811,-1.9844,-1.9844,-1.9844,-1.9844,-1.9844,-1.9844,-1.9854,-1.9542,-1.939,-1.9249,-1.8946,-1.8643,-1.8653,-1.8491,-1.8329,-1.8643,-1.8795,-1.8946,-1.9098,-1.9249,-1.939,-1.939,-1.939,-1.939,-1.939,-1.9401,-1.9088,-1.8936,-1.8633,-1.8025,-1.7721,-1.7569,-1.7426,-1.7426,-1.7426,-1.7426,-1.7426,-1.7426,-1.7426,-1.7426,-1.7426,-1.7426,-1.7426,-1.7426,-1.7426,-1.7426,-1.7426,-1.7426,-1.7426,-1.7435,-1.7435,-1.7492,-1.7587,-1.7709,-1.7804,-1.7908,-1.7917,-1.7927,-1.7936,-1.8002,-1.8106,-1.822,-1.8324,-1.8437,-1.8522,-1.8607,-1.8598,-1.8579,-1.855,-1.8579,-1.856,-1.855,-1.8579,-1.8626,-1.8664,-1.8673,-1.8673,-1.8673,-1.8673,-1.8673,-1.8673,-1.8673,-1.8673,-1.8673,-1.8673,-1.8673,-1.8673,-1.8673,-1.8673,-1.8673,-1.8673,-1.8673,-1.8673,-1.8673,-1.8673,-1.8673,-1.8673,-1.8673,-1.8673,-1.8673,-1.8673,-1.8673,-1.8607,-1.856,-1.856,-1.8447,-1.8239,-1.8239,-1.8333,-1.8475,-1.8607,-1.8645,-1.9844,-1.9844,-1.9844,-1.9844,-1.9844,-1.9844,-1.9844,-1.9844,-1.9844,-1.9844,-1.9844,-1.9844,-1.9693,-1.939,-1.9098,-1.9098,-1.8946,-1.8936,-1.8936,-1.9239,-1.939,-1.9693,-1.9844,-1.9844,-1.9844,-1.9844,-1.9844,-1.9844,-1.9844,-1.9542,-1.9239,-1.8936,-1.8633,-1.8177,-1.7569,-1.7426,-1.7426,-1.7426,-1.7426,-1.7426,-1.7426,-1.7426,-1.7426,-1.7426,-1.7426,-1.7426,-1.7426,-1.7426,-1.7426,-1.7426,-1.7426,-1.7426,-1.7445,-1.7492,-1.7587,-1.7709,-1.7851,-1.7974,-1.8087,-1.8135,-1.8172,-1.8248,-1.8258,-1.8343,-1.8399,-1.8447,-1.855,-1.8626,-1.8673,-1.8664,-1.8626,-1.8532,-1.8513,-1.8475,-1.8475,-1.8503,-1.8617,-1.8673,-1.8673,-1.8673,-1.8673,-1.8673,-1.8673,-1.8673,-1.8673,-1.8673,-1.8673,-1.8673,-1.8673,-1.8673,-1.8673,-1.8673,-1.8673,-1.8673,-1.8673,-1.8673,-1.8673,-1.8673,-1.8673,-1.8673,-1.8673,-1.8673,-1.8673,-1.8673,-1.8673,-1.8673,-1.8654,-1.8617,-1.8494,-1.8333,-1.8399,-1.8494,-1.8541,-1.8645,-1.8654,-1.9844,-1.9844,-1.9844,-1.9844,-1.9844,-1.9844,-1.9844,-1.9833,-1.9822,-1.9801,-1.9779,-1.979,-1.9811,-1.9822,-1.952,-1.9542,-1.9703,-1.9693,-1.9693,-1.9693,-1.9693,-1.9844,-1.9844,-1.9844,-1.9844,-1.9844,-1.9844,-1.9844,-1.9844,-1.9844,-1.9542,-1.939,-1.9088,-1.8633,-1.8025,-1.7578,-1.7426,-1.7426,-1.7426,-1.7426,-1.7426,-1.7426,-1.7426,-1.7426,-1.7426,-1.7426,-1.7426,-1.7426,-1.7426,-1.7426,-1.7426,-1.7426,-1.7435,-1.7568,-1.7662,-1.7719,-1.8059,-1.8239,-1.8324,-1.8333,-1.839,-1.8532,-1.8513,-1.8569,-1.8636,-1.8654,-1.8636,-1.8673,-1.8673,-1.8588,-1.8475,-1.8399,-1.8437,-1.8456,-1.8475,-1.8513,-1.8626,-1.8673,-1.8673,-1.8673,-1.8673,-1.8673,-1.8673,-1.8673,-1.8673,-1.8673,-1.8673,-1.8673,-1.8673,-1.8673,-1.8673,-1.8673,-1.8673,-1.8673,-1.8673,-1.8673,-1.8673,-1.8673,-1.8673,-1.8673,-1.8673,-1.8673,-1.8673,-1.8673,-1.8673,-1.8673,-1.8673,-1.8673,-1.856,-1.8484,-1.856,-1.8636,-1.8664,-1.8673,-1.8673,-1.9844,-1.9844,-1.9844,-1.9844,-1.9844,-1.9844,-1.9844,-1.9811,-1.9682,-1.9531,-1.9445,-1.9531,-1.9618,-1.965,-1.9629,-1.9682,-1.9844,-1.9542,-1.9542,-1.9844,-1.9844,-1.9844,-1.9844,-1.9844,-1.9844,-1.9844,-1.9844,-1.9844,-1.9844,-1.9844,-1.9844,-1.9693,-1.939,-1.8946,-1.8491,-1.8187,-1.8187,-1.7873,-1.7721,-1.7721,-1.7426,-1.7426,-1.7426,-1.7426,-1.7426,-1.7426,-1.7426,-1.7426,-1.7426,-1.7426,-1.7426,-1.7435,-1.7445,-1.7558,-1.7615,-1.769,-1.7946,-1.8002,-1.8097,-1.8172,-1.8324,-1.8522,-1.8654,-1.8654,-1.8673,-1.8673,-1.8673,-1.8673,-1.8673,-1.8617,-1.8598,-1.8579,-1.8598,-1.8598,-1.8607,-1.8617,-1.8673,-1.8673,-1.8673,-1.8673,-1.8673,-1.8673,-1.8673,-1.8664,-1.8664,-1.8837,-1.8837,-1.8837,-1.8837,-1.8673,-1.8673,-1.8673,-1.8673,-1.8673,-1.8673,-1.8673,-1.8673,-1.8673,-1.8673,-1.8673,-1.8673,-1.8673,-1.8673,-1.8673,-1.8673,-1.8673,-1.8673,-1.8673,-1.8673,-1.8664,-1.8673,-1.8673,-1.8673,-1.8673,-1.8673,-1.9779,-1.9844,-1.9844,-1.9801,-1.9736,-1.9725,-1.9693,-1.9596,-1.9445,-1.9284,-1.9219,-1.9327,-1.9435,-1.9383,-1.934,-1.9499,-1.9833,-1.9693,-1.9542,-1.9844,-1.9844,-1.9844,-1.9844,-1.9844,-1.9844,-1.9844,-1.9844,-1.9844,-1.9844,-1.9844,-1.9844,-1.9844,-1.9542,-1.939,-1.9098,-1.8795,-1.8339,-1.8025,-1.7873,-1.7721,-1.7569,-1.7426,-1.7426,-1.7426,-1.7426,-1.7426,-1.7426,-1.7426,-1.7426,-1.7426,-1.7435,-1.7473,-1.7501,-1.7549,-1.7634,-1.7766,-1.7851,-1.7936,-1.8031,-1.8059,-1.821,-1.838,-1.8513,-1.8598,-1.8654,-1.8673,-1.8673,-1.8673,-1.8673,-1.8673,-1.8673,-1.8673,-1.8673,-1.8673,-1.8837,-1.8837,-1.8837,-1.8837,-1.8837,-1.8837,-1.8837,-1.8837,-1.8837,-1.8664,-1.8818,-1.899,-1.899,-1.9,-1.9,-1.9,-1.8837,-1.8837,-1.8837,-1.8673,-1.8673,-1.8673,-1.8673,-1.8673,-1.8673,-1.8673,-1.8673,-1.8673,-1.8673,-1.8673,-1.8673,-1.8673,-1.8673,-1.8673,-1.8673,-1.8673,-1.8673,-1.8673,-1.8673,-1.8837,-1.8837,-1.9628,-1.9822,-1.9833,-1.9704,-1.9531,-1.9478,-1.9338,-1.9155,-1.9144,-1.9122,-1.9112,-1.9122,-1.9273,-1.9456,-1.951,-1.9661,-1.9811,-1.9844,-1.9844,-1.9844,-1.9844,-1.9844,-1.9844,-1.9844,-1.9844,-1.9844,-1.9844,-1.9844,-1.9844,-1.9844,-1.9844,-1.9844,-1.9844,-1.9693,-1.9542,-1.9098,-1.8643,-1.8329,-1.8177,-1.7873,-1.7569,-1.7426,-1.7426,-1.7426,-1.7426,-1.7426,-1.7426,-1.7426,-1.7445,-1.7454,-1.7454,-1.7577,-1.7662,-1.7728,-1.787,-1.7955,-1.7993,-1.7983,-1.7936,-1.7927,-1.7993,-1.8265,-1.8417,-1.8428,-1.8541,-1.8569,-1.8588,-1.8626,-1.8636,-1.8664,-1.8673,-1.8837,-1.8837,-1.8837,-1.8837,-1.8837,-1.8837,-1.8837,-1.8837,-1.9,-1.9,-1.9,-1.899,-1.8981,-1.8971,-1.9479,-1.9652,-1.9815,-1.9652,-1.9316,-1.9316,-1.9153,-1.9,-1.8837,-1.8673,-1.8673,-1.8673,-1.8673,-1.8673,-1.8673,-1.8673,-1.8673,-1.8673,-1.8673,-1.8673,-1.8673,-1.8673,-1.8673,-1.8837,-1.8837,-1.8837,-1.8837,-1.9,-1.9,-1.9163,-1.9381,-1.9596,-1.9596,-1.9564,-1.9445,-1.9133,-1.895,-1.8896,-1.8885,-1.881,-1.8659,-1.9004,-1.9155,-1.9273,-1.9596,-1.9736,-1.9811,-1.9844,-1.9844,-1.9844,-1.9844,-1.9844,-1.9844,-1.9844,-1.9844,-1.9844,-1.9844,-1.9844,-1.9844,-1.9844,-1.9844,-1.9844,-1.9844,-1.9844,-1.9844,-1.9693,-1.9239,-1.8785,-1.8481,-1.8016,-1.7559,-1.7416,-1.7416,-1.7426,-1.7426,-1.7426,-1.7426,-1.7426,-1.7473,-1.7605,-1.7624,-1.7738,-1.7927,-1.7946,-1.7983,-1.7813,-1.7794,-1.7757,-1.7634,-1.7596,-1.7836,-1.8192,-1.8513,-1.8284,-1.8408,-1.8551,-1.8636,-1.8713,-1.8789,-1.899,-1.899,-1.899,-1.9163,-1.9326,-1.9326,-1.9316,-1.9316,-1.9316,-1.9316,-1.9316,-1.9316,-1.9316,-1.9316,-1.9124,-1.9115,-1.9795,-2.014,-2.0303,-2.0303,-1.9978,-1.9805,-1.9479,-1.9316,-1.9163,-1.8837,-1.8837,-1.8673,-1.8673,-1.8837,-1.8837,-1.8837,-1.8837,-1.8837,-1.8837,-1.9,-1.8837,-1.8673,-1.8837,-1.9163,-1.9,-1.9,-1.899,-1.9153,-1.9316,-1.9479,-1.9144,-1.9348,-1.9359,-1.9305,-1.9155,-1.881,-1.8649,-1.8649,-1.8649,-1.8552,-1.8476,-1.8735,-1.8918,-1.9058,-1.937,-1.9596,-1.9704,-1.9801,-1.9844,-1.9844,-1.9844,-1.9844,-1.9844,-1.9844,-1.9844,-1.9844,-1.9844,-1.9844,-1.9844,-1.9844,-1.9844,-1.9844,-1.9844,-1.9844,-1.9844,-1.9844,-1.9693,-1.939,-1.8936,-1.8471,-1.8016,-1.7721,-1.7721,-1.7578,-1.7578,-1.7426,-1.7426,-1.7426,-1.753,-1.769,-1.7728,-1.8202,-1.8404,-1.8481,-1.8542,-1.8397,-1.8329,-1.83,-1.8232,-1.801,-1.8358,-1.8611,-1.8906,-1.8809,-1.8808,-1.8984,-1.9091,-1.9199,-1.9267,-1.9316,-1.9316,-1.9316,-1.9652,-1.9825,-1.9978,-1.9967,-1.9967,-1.9967,-1.9967,-1.9967,-1.9967,-1.9967,-1.9785,-1.943,-1.943,-2.012,-2.0627,-2.079,-2.079,-2.0465,-2.0303,-2.013,-1.9805,-1.9479,-1.9153,-1.9,-1.9,-1.9163,-1.9316,-1.9316,-1.9163,-1.9163,-1.9316,-1.9316,-1.9479,-1.9326,-1.9163,-1.9316,-1.9479,-1.9316,-1.9316,-1.9479,-1.9642,-1.9805,-1.9978,-1.8896,-1.9122,-1.9122,-1.9004,-1.8778,-1.8552,-1.8444,-1.8433,-1.8595,-1.8433,-1.8444,-1.8498,-1.8702,-1.8972,-1.9273,-1.9478,-1.9639,-1.9779,-1.9844,-1.9844,-1.9844,-1.9844,-1.9844,-1.9844,-1.9844,-1.9844,-1.9844,-1.9844,-1.9844,-1.9844,-1.9844,-1.9844,-1.9844,-1.9844,-1.9844,-1.9844,-1.9844,-1.9693,-1.939,-1.9088,-1.8633,-1.8329,-1.8025,-1.7873,-1.7731,-1.7578,-1.7578,-1.7454,-1.753,-1.7826,-1.829,-1.8612,-1.9045,-1.9344,-1.9364,-1.9243,-1.8996,-1.8926,-1.9053,-1.9013,-1.9043,-1.926,-1.931,-1.9518,-1.9502,-1.9474,-1.9433,-1.9493,-1.9553,-1.9622,-1.9632,-1.9805,-2.014,-2.0313,-2.0465,-2.0455,-2.0455,-2.0455,-2.0455,-2.0455,-2.0455,-2.0455,-2.0455,-2.0099,-2.0099,-2.0617,-2.0952,-2.1276,-2.1114,-2.079,-2.0627,-2.0465,-2.013,-1.9805,-1.9642,-1.9479,-1.9479,-1.9642,-1.9805,-1.9805,-1.9642,-1.9805,-1.9967,-1.9967,-1.9805,-1.9805,-1.9805,-1.9967,-1.9805,-1.9642,-1.9642,-1.9967,-2.013,-2.0303,-2.0465,-1.8659,-1.8875,-1.8875,-1.8832,-1.8756,-1.8812,-1.8714,-1.8433,-1.9133,-1.8993,-1.8498,-1.8789,-1.8972,-1.9036,-1.9572,-1.9799,-1.9864,-1.993,-1.9984,-1.9995,-1.9995,-2.0145,-1.9995,-1.9995,-1.9995,-1.9844,-1.9844,-1.9995,-1.9995,-1.9995,-1.9995,-1.9844,-1.9995,-1.9995,-1.9844,-1.9844,-1.9995,-1.9844,-1.9693,-1.9411,-1.8967,-1.8653,-1.8339,-1.8197,-1.8055,-1.8084,-1.8084,-1.8227,-1.8434,-1.8817,-1.9043,-1.9303,-1.9684,-1.9876,-1.9775,-1.9603,-1.9692,-1.9631,-1.9727,-2.0032,-2.02,-2.0043,-1.9927,-2.0316,-2.0231,-2.0005,-1.9906,-1.9957,-2.0008,-1.9917,-2.012,-2.0303,-2.0627,-2.08,-2.0962,-2.0952,-2.0952,-2.0952,-2.0952,-2.0952,-2.0952,-2.0941,-2.0941,-2.0952,-2.1114,-2.1114,-2.1114,-2.1276,-2.1276,-2.1114,-2.0952,-2.079,-2.0627,-2.0292,-1.9967,-1.9967,-2.013,-1.9967,-2.013,-2.013,-2.013,-2.013,-2.0292,-2.013,-2.013,-2.0292,-2.0292,-2.0303,-2.0303,-1.9967,-2.013,-2.0303,-2.0465,-2.0627,-2.0952,-1.8649,-1.891,-1.9052,-1.9193,-1.916,-1.9178,-1.9122,-1.8993,-1.9401,-1.9401,-1.9038,-1.9228,-1.9426,-1.9503,-2.007,-2.0314,-2.0336,-2.0414,-2.0447,-2.0458,-2.0307,-2.0458,-2.0458,-2.0307,-2.0458,-2.0458,-2.0458,-2.0458,-2.0307,-2.0458,-2.0458,-2.0296,-2.0296,-2.0296,-1.9995,-1.9995,-1.9995,-1.9844,-1.9844,-1.9746,-1.9354,-1.9233,-1.8937,-1.8785,-1.8712,-1.8732,-1.8772,-1.8772,-1.9058,-1.9437,-1.9529,-2.0072,-2.0362,-2.0596,-2.0554,-2.0471,-2.0569,-2.0527,-2.0432,-2.0718,-2.1047,-2.0761,-2.0634,-2.09,-2.0911,-2.0663,-2.0674,-2.0716,-2.0727,-2.0617,-2.0779,-2.0952,-2.0952,-2.1124,-2.1124,-2.1114,-2.1114,-2.1114,-2.1114,-2.1114,-2.1114,-2.1114,-2.1114,-2.1114,-2.1276,-2.1276,-2.1276,-2.1276,-2.1276,-2.1276,-2.1114,-2.0952,-2.079,-2.0627,-2.0465,-2.0465,-2.0627,-2.0465,-2.0455,-2.0617,-2.0617,-2.0617,-2.0617,-2.0617,-2.0627,-2.079,-2.079,-2.079,-2.0627,-2.0303,-2.0627,-2.079,-2.0952,-2.0952,-2.1114,-1.8714,-1.9122,-1.9401,-1.9552,-1.9541,-1.968,-1.968,-1.9541,-1.968,-1.968,-1.9715,-1.9968,-2.006,-2.0135,-2.0477,-2.0626,-2.0797,-2.0841,-2.091,-2.1071,-2.0921,-2.0921,-2.0921,-2.1071,-2.091,-2.091,-2.0921,-2.0921,-2.0921,-2.0921,-2.0759,-2.0597,-2.0597,-2.0759,-2.0307,-2.0145,-2.0296,-2.0016,-1.9919,-2.0027,-1.997,-1.9902,-1.9594,-1.9523,-1.9491,-1.9437,-1.9447,-1.9447,-1.9447,-1.9738,-2.0199,-2.0569,-2.0856,-2.1114,-2.1114,-2.106,-2.105,-2.105,-2.1211,-2.1179,-2.1211,-2.1243,-2.1276,-2.1276,-2.1265,-2.1265,-2.1265,-2.1265,-2.1276,-2.1276,-2.1276,-2.1276,-2.1286,-2.1286,-2.1276,-2.1276,-2.1276,-2.1276,-2.1276,-2.1276,-2.1276,-2.1276,-2.1276,-2.1276,-2.1276,-2.1276,-2.1276,-2.1276,-2.1276,-2.1276,-2.1276,-2.1114,-2.1114,-2.0952,-2.079,-2.079,-2.0952,-2.0952,-2.079,-2.1114,-2.1276,-2.1114,-2.0952,-2.1114,-2.1114,-2.1114,-2.1114,-2.1114,-2.0952,-2.079,-2.0952,-2.1114,-2.0952,-2.1114,-2.1276,-1.9122,-1.9541,-1.9541,-1.9541,-1.968,-1.9831,-1.982,-1.968,-2.0249,-2.0388,-2.0168,-2.0521,-2.0734,-2.0249,-2.0763,-2.1118,-2.1233,-2.1199,-2.106,-2.1071,-2.1222,-2.1222,-2.1222,-2.1372,-2.1071,-2.1222,-2.1222,-2.1071,-2.1372,-2.1222,-2.091,-2.0597,-2.091,-2.0759,-2.0145,-2.0145,-2.0296,-2.0038,-2.0027,-2.0167,-2.0199,-2.012,-2.004,-2.0125,-2.022,-2.0085,-2.0085,-2.0241,-2.0358,-2.0686,-2.0868,-2.1007,-2.1243,-2.1276,-2.1276,-2.1276,-2.1276,-2.1276,-2.1276,-2.1276,-2.1276,-2.1276,-2.1276,-2.1276,-2.1265,-2.1265,-2.1276,-2.1276,-2.1276,-2.1276,-2.1276,-2.1276,-2.1276,-2.1276,-2.1276,-2.1276,-2.1276,-2.1276,-2.1276,-2.1276,-2.1276,-2.1276,-2.1276,-2.1276,-2.1276,-2.1276,-2.1276,-2.1276,-2.1276,-2.1276,-2.1276,-2.1276,-2.1276,-2.1276,-2.1114,-2.1114,-2.1114,-2.1114,-2.1276,-2.1276,-2.1276,-2.1276,-2.1276,-2.1276,-2.1276,-2.1276,-2.1276,-2.1276,-2.1276,-2.1114,-2.1114,-2.1276,-2.1114,-2.1114,-2.1276]},{"header":{"parameterUnit":"m.s-1","parameterCategory":1,"la1":31.0,"la2":29.5877,"lo1":-88.7671,"lo2":-86.6584,"dy":0.0162,"dx":0.0185,"nx":115,"ny":88,"refTime":"2024-07-08T06:00:00:Z","depth":0,"parameterNumber":3,"parameterNumberName":"V-component_of_WINDS"},"data":[0.0,0.0,0.0,0.0,0.0,0.0,0.0,0.0,0.0,0.0,0.0,0.0,0.0,0.0,0.0,0.0,0.0,0.0,0.0,0.0,0.0,0.0,0.0,0.0,0.0,0.0,0.0,0.0,0.0,0.0,0.0,0.0,0.0,0.0,0.0,0.0,0.0,0.0,0.0,0.0,0.0,0.0,0.0,0.0,0.0,0.0,0.0,0.0,0.0,0.0,0.0,0.0,0.0,0.0,0.0,0.0,0.0,0.0,0.0,0.0,0.0,0.0,0.0,0.0,0.0,0.0,0.0,0.0,0.0,0.0,0.0,0.0,0.0,0.0,0.0,0.0,0.0,0.0,0.0,0.0,0.0,0.0,0.0,0.0,0.0,0.0,0.0,0.0,0.0,0.0,0.0,0.0,0.0,0.0,0.0,0.0,0.0,0.0,0.0,0.0,0.0,0.0,0.0,0.0,0.0,0.0,0.0,0.0,0.0,0.0,0.0,0.0,0.0,0.0,0.0,0.0,0.0,0.0,0.0,0.0,0.0,0.0,0.0,0.0,0.0,0.0,0.0,0.0,0.0,0.0,0.0,0.0,0.0,0.0,0.0,0.0,0.0,0.0,0.0,0.0,0.0,0.0,0.0,0.0,0.0,0.0,0.0,0.0,0.0,0.0,0.0,0.0,0.0,0.0,0.0,0.0,0.0,0.0,0.0,0.0,0.0,0.0,0.0,0.0,0.0,0.0,0.0,0.0,0.0,0.0,0.0,0.0,0.0,0.0,0.0,0.0,0.0,0.0,0.0,0.0,0.0,0.0,0.0,0.0,0.0,0.0,0.0,0.0,0.0,0.0,0.0,0.0,0.0,0.0,0.0,0.0,0.0,0.0,0.0,0.0,0.0,0.0,0.0,0.0,0.0,0.0,0.0,0.0,0.0,0.0,0.0,0.0,0.0,0.0,0.0,0.0,0.0,0.0,0.0,0.0,0.0,0.0,0.0,0.0,0.0,0.0,0.0,0.0,0.0,0.0,0.0,0.0,0.0,0.0,0.0,0.0,0.0,0.0,0.0,0.0,0.0,0.0,0.0,0.0,0.0,0.0,0.0,0.0,0.0,0.0,0.0,0.0,0.0,0.0,0.0,0.0,0.0,0.0,0.0,0.0,0.0,0.0,0.0,0.0,0.0,0.0,0.0,0.0,0.0,0.0,0.0,0.0,0.0,0.0,0.0,0.0,0.0,0.0,0.0,0.0,0.0,0.0,0.0,0.0,0.0,0.0,0.0,0.0,0.0,0.0,0.0,0.0,0.0,0.0,0.0,0.0,0.0,0.0,0.0,0.0,0.0,0.0,0.0,0.0,0.0,0.0,0.0,0.0,0.0,0.0,0.0,0.0,0.0,0.0,0.0,0.0,0.0,0.0,0.0,0.0,0.0,0.0,0.0,0.0,0.0,0.0,0.0,0.0,0.0,0.0,0.0,0.0,0.0,0.0,0.0,0.0,0.0,0.0,0.0,0.0,0.0,0.0,0.0,0.0,0.0,0.0,0.0,0.0,0.0,0.0,0.0,0.0,0.0,0.0,0.0,0.0,0.0,0.0,0.0,0.0,0.0,0.0,0.0,0.0,0.0,0.0,0.0,0.0,0.0,0.0,0.0,0.0,0.0,0.0,0.0,0.0,0.0,0.0,0.0,0.0,0.0,0.0,0.0,0.0,0.0,0.0,0.0,0.0,0.0,0.0,0.0,0.0,0.0,0.0,0.0,0.0,0.0,0.0,0.0,0.0,0.0,0.0,0.0,0.0,0.0,0.0,0.0,0.0,0.0,0.0,0.0,0.0,0.0,0.0,0.0,0.0,0.0,0.0,0.0,0.0,0.0,0.0,0.0,0.0,0.0,0.0,0.0,0.0,0.0,0.0,0.0,0.0,0.0,0.0,0.0,0.0,0.0,0.0,0.0,0.0,0.0,0.0,0.0,0.0,0.0,0.0,0.0,0.0,0.0,0.0,0.0,0.0,0.0,0.0,0.0,0.0,0.0,0.0,0.0,0.0,0.0,0.0,0.0,0.0,0.0,0.0,0.0,0.0,0.0,0.0,0.0,0.0,0.0,0.0,0.0,0.0,0.0,0.0,0.0,0.0,0.0,0.0,0.0,0.0,0.0,0.0,0.0,0.0,0.0,0.0,0.0,0.0,0.0,0.0,0.0,0.0,0.0,0.0,0.0,0.0,0.0,0.0,0.0,0.0,0.0,0.0,0.0,0.0,0.0,0.0,0.0,0.0,0.0,0.0,0.0,0.0,0.0,0.0,0.0,0.0,0.0,0.0,0.0,0.0,0.0,0.0,0.0,0.0,0.0,0.0,0.0,0.0,0.0,0.0,0.0,0.0,0.0,0.0,0.0,0.0,0.0,0.0,0.0,0.0,0.0,0.0,0.0,0.0,0.0,0.0,0.0,0.0,0.0,0.0,0.0,0.0,0.0,0.0,0.0,0.0,0.0,0.0,0.0,0.0,0.0,0.0,0.0,0.0,0.0,0.0,0.0,0.0,0.0,0.0,0.0,0.0,0.0,0.0,0.0,0.0,0.0,0.0,0.0,0.0,0.0,0.0,0.0,0.0,0.0,0.0,0.0,0.0,0.0,0.0,0.0,0.0,0.0,0.0,0.0,0.0,0.0,0.0,0.0,0.0,0.0,0.0,0.0,0.0,0.0,0.0,0.0,0.0,0.0,0.0,0.0,0.0,0.0,0.0,0.0,0.0,0.0,0.0,0.0,0.0,0.0,0.0,0.0,0.0,0.0,0.0,0.0,0.0,0.0,0.0,0.0,0.0,0.0,0.0,0.0,0.0,0.0,0.0,0.0,0.0,0.0,0.0,0.0,0.0,0.0,0.0,0.0,0.0,0.0,0.0,0.0,0.0,0.0,0.0,0.0,0.0,0.0,0.0,0.0,0.0,0.0,0.0,0.0,0.0,0.0,0.0,0.0,0.0,0.0,0.0,0.0,0.0,0.0,0.0,0.0,0.0,0.0,0.0,0.0,0.0,0.0,0.0,0.0,0.0,0.0,0.0,0.0,0.0,0.0,0.0,0.0,0.0,0.0,0.0,0.0,0.0,0.0,0.0,0.0,0.0,0.0,0.0,0.0,0.0,0.0,0.0,0.0,0.0,0.0,0.0,0.0,0.0,0.0,0.0,0.0,0.0,0.0,0.0,0.0,0.0,0.0,0.0,0.0,0.0,0.0,0.0,0.0,0.0,0.0,0.0,0.0,0.0,0.0,0.0,0.0,0.0,0.0,0.0,0.0,0.0,0.0,0.0,0.0,0.0,0.0,0.0,0.0,0.0,0.0,0.0,0.0,0.0,0.0,0.0,0.0,0.0,0.0,0.0,0.0,0.0,0.0,0.0,0.0,0.0,0.0,0.0,0.0,0.0,0.0,0.0,0.0,0.0,0.0,0.0,0.0,0.0,0.0,0.0,0.0,0.0,0.0,0.0,0.0,0.0,0.0,0.0,0.0,0.0,0.0,0.0,0.0,0.0,0.0,0.0,0.0,0.0,0.0,0.0,0.0,0.0,0.0,0.0,0.0,0.0,0.0,0.0,0.0,0.0,0.0,0.0,0.0,0.0,0.0,0.0,0.0,0.0,0.0,0.0,0.0,0.0,0.0,0.0,0.0,0.0,0.0,0.0,0.0,0.0,0.0,0.0,0.0,0.0,0.0,0.0,0.0,0.0,0.0,0.0,0.0,0.0,0.0,0.0,0.0,0.0,0.0,0.0,0.0,0.0,0.0,0.0,0.0,0.0,0.0,0.0,0.0,0.0,0.0,0.0,0.0,0.0,0.0,0.0,0.0,0.0,0.0,0.0,0.0,0.0,0.0,0.0,0.0,0.0,0.0,0.0,0.0,0.0,0.0,0.0,0.0,0.0,0.0,0.0,0.0,0.0,0.0,0.0,0.0,0.0,0.0,0.0,0.0,0.0,0.0,0.0,0.0,0.0,0.0,0.0,0.0,0.0,0.0,0.0,0.0,0.0,0.0,0.0,0.0,0.0,0.0,0.0,0.0,0.0,0.0,0.0,0.0,0.0,0.0,0.0,0.0,0.0,0.0,0.0,0.0,0.0,0.0,0.0,0.0,0.0,0.0,0.0,0.0,0.0,0.0,0.0,0.0,0.0,0.0,0.0,0.0,0.0,0.0,0.0,0.0,0.0,0.0,0.0,0.0,0.0,0.0,0.0,0.0,0.0,0.0,0.0,0.0,0.0,0.0,0.0,0.0,0.0,0.0,0.0,-1.5734,0.0,0.0,0.0,0.0,0.0,0.0,0.0,0.0,0.0,0.0,0.0,0.0,0.0,0.0,0.0,0.0,0.0,0.0,0.0,0.0,0.0,0.0,0.0,0.0,0.0,0.0,0.0,0.0,0.0,0.0,0.0,0.0,0.0,0.0,0.0,0.0,0.0,0.0,0.0,0.0,0.0,0.0,0.0,0.0,0.0,0.0,0.0,0.0,0.0,0.0,0.0,0.0,0.0,0.0,0.0,0.0,0.0,0.0,0.0,0.0,0.0,0.0,0.0,0.0,0.0,0.0,0.0,0.0,0.0,0.0,0.0,0.0,0.0,0.0,0.0,0.0,0.0,0.0,0.0,0.0,0.0,0.0,0.0,0.0,0.0,0.0,0.0,0.0,0.0,0.0,0.0,0.0,0.0,0.0,0.0,0.0,0.0,0.0,0.0,0.0,0.0,0.0,0.0,0.0,0.0,0.0,0.0,0.0,0.0,0.0,-1.7567,-1.6749,-1.8387,-1.8075,-1.5578,0.0,0.0,0.0,0.0,0.0,0.0,0.0,0.0,0.0,0.0,0.0,0.0,0.0,0.0,0.0,0.0,0.0,0.0,0.0,0.0,0.0,0.0,0.0,0.0,0.0,0.0,0.0,0.0,0.0,0.0,0.0,0.0,0.0,0.0,0.0,0.0,0.0,0.0,0.0,0.0,0.0,0.0,0.0,0.0,0.0,0.0,0.0,0.0,0.0,0.0,0.0,0.0,0.0,0.0,0.0,0.0,0.0,0.0,0.0,0.0,0.0,0.0,0.0,0.0,0.0,0.0,0.0,0.0,0.0,0.0,0.0,0.0,0.0,0.0,0.0,0.0,0.0,0.0,0.0,0.0,0.0,0.0,0.0,0.0,0.0,0.0,0.0,0.0,0.0,0.0,0.0,0.0,0.0,0.0,0.0,0.0,0.0,0.0,0.0,0.0,0.0,0.0,0.0,0.0,0.0,0.0,0.0,0.0,0.0,0.0,0.0,0.0,-1.8895,-1.866,-1.6749,0.0,0.0,0.0,0.0,0.0,0.0,0.0,0.0,0.0,0.0,0.0,0.0,0.0,0.0,0.0,0.0,0.0,0.0,0.0,0.0,0.0,0.0,0.0,0.0,0.0,0.0,0.0,0.0,0.0,0.0,0.0,0.0,0.0,0.0,0.0,0.0,0.0,0.0,0.0,0.0,0.0,0.0,0.0,0.0,0.0,0.0,0.0,0.0,0.0,0.0,0.0,0.0,0.0,0.0,0.0,0.0,0.0,0.0,0.0,0.0,0.0,0.0,0.0,0.0,0.0,0.0,0.0,0.0,0.0,0.0,0.0,0.0,0.0,0.0,0.0,0.0,0.0,0.0,0.0,0.0,0.0,0.0,0.0,0.0,0.0,0.0,0.0,0.0,0.0,0.0,0.0,0.0,0.0,0.0,0.0,0.0,0.0,0.0,0.0,0.0,0.0,0.0,0.0,0.0,0.0,0.0,0.0,0.0,0.0,0.0,-1.7919,-2.0183,-2.0378,0.0,-2.0144,0.0,0.0,0.0,0.0,0.0,0.0,0.0,0.0,0.0,0.0,0.0,0.0,0.0,0.0,0.0,0.0,0.0,0.0,0.0,0.0,0.0,0.0,0.0,0.0,0.0,0.0,0.0,0.0,0.0,0.0,0.0,0.0,0.0,0.0,0.0,0.0,0.0,0.0,0.0,0.0,0.0,0.0,0.0,0.0,0.0,0.0,0.0,0.0,0.0,0.0,0.0,0.0,0.0,0.0,0.0,0.0,0.0,0.0,0.0,0.0,0.0,0.0,0.0,0.0,0.0,0.0,0.0,0.0,0.0,0.0,0.0,0.0,0.0,0.0,0.0,0.0,0.0,0.0,0.0,0.0,0.0,0.0,0.0,0.0,0.0,0.0,0.0,0.0,0.0,0.0,0.0,0.0,0.0,0.0,0.0,0.0,0.0,0.0,0.0,0.0,0.0,0.0,0.0,0.0,0.0,0.0,0.0,0.0,0.0,0.0,0.0,-1.9832,-1.9832,-1.9832,0.0,0.0,0.0,0.0,0.0,0.0,0.0,0.0,0.0,0.0,0.0,0.0,0.0,0.0,0.0,0.0,0.0,0.0,0.0,0.0,0.0,0.0,0.0,0.0,0.0,0.0,0.0,0.0,0.0,0.0,0.0,0.0,0.0,0.0,0.0,0.0,0.0,0.0,0.0,0.0,0.0,0.0,0.0,0.0,0.0,0.0,0.0,0.0,0.0,0.0,0.0,0.0,0.0,0.0,0.0,0.0,0.0,0.0,0.0,0.0,0.0,0.0,0.0,0.0,0.0,0.0,0.0,0.0,0.0,0.0,0.0,0.0,0.0,0.0,0.0,0.0,0.0,0.0,0.0,0.0,0.0,0.0,0.0,0.0,0.0,0.0,0.0,0.0,0.0,0.0,0.0,0.0,0.0,0.0,0.0,0.0,0.0,0.0,0.0,0.0,0.0,0.0,0.0,0.0,0.0,0.0,0.0,0.0,0.0,0.0,-1.9324,0.0,-2.0338,-2.0339,-2.0025,-1.9323,0.0,0.0,0.0,0.0,0.0,0.0,0.0,0.0,0.0,0.0,0.0,0.0,0.0,0.0,0.0,0.0,0.0,0.0,0.0,0.0,0.0,0.0,0.0,0.0,0.0,0.0,0.0,0.0,0.0,0.0,0.0,0.0,0.0,0.0,0.0,0.0,0.0,0.0,0.0,0.0,0.0,0.0,0.0,0.0,0.0,0.0,0.0,0.0,0.0,0.0,0.0,0.0,0.0,0.0,0.0,0.0,0.0,0.0,0.0,0.0,0.0,0.0,0.0,0.0,0.0,0.0,0.0,0.0,0.0,0.0,0.0,0.0,0.0,0.0,0.0,0.0,0.0,0.0,0.0,0.0,0.0,0.0,0.0,0.0,0.0,0.0,0.0,0.0,0.0,0.0,0.0,0.0,0.0,0.0,0.0,0.0,0.0,0.0,0.0,0.0,0.0,0.0,0.0,0.0,0.0,0.0,0.0,0.0,0.0,-2.0495,-2.0534,-2.2877,-2.2955,-2.1784,0.0,0.0,0.0,0.0,0.0,0.0,0.0,0.0,0.0,0.0,0.0,0.0,0.0,0.0,0.0,0.0,0.0,0.0,0.0,0.0,0.0,0.0,0.0,0.0,0.0,0.0,0.0,0.0,0.0,0.0,0.0,0.0,0.0,0.0,0.0,0.0,0.0,0.0,0.0,0.0,0.0,0.0,0.0,0.0,0.0,0.0,0.0,0.0,0.0,0.0,0.0,0.0,0.0,0.0,0.0,0.0,0.0,0.0,0.0,0.0,0.0,0.0,0.0,0.0,0.0,0.0,0.0,0.0,0.0,0.0,0.0,0.0,0.0,0.0,0.0,0.0,0.0,0.0,0.0,0.0,0.0,0.0,0.0,0.0,0.0,0.0,0.0,0.0,0.0,0.0,0.0,0.0,0.0,0.0,0.0,0.0,0.0,0.0,0.0,0.0,0.0,0.0,0.0,0.0,0.0,0.0,0.0,0.0,0.0,-1.8114,-1.9441,-2.2447,0.0,-2.354,-2.1823,0.0,0.0,0.0,0.0,0.0,0.0,0.0,0.0,0.0,0.0,0.0,0.0,0.0,0.0,0.0,0.0,0.0,0.0,0.0,0.0,0.0,0.0,0.0,0.0,0.0,0.0,0.0,0.0,0.0,0.0,0.0,0.0,0.0,0.0,0.0,0.0,0.0,0.0,0.0,0.0,0.0,0.0,0.0,0.0,0.0,0.0,0.0,0.0,0.0,0.0,0.0,0.0,0.0,0.0,0.0,0.0,0.0,0.0,0.0,0.0,0.0,0.0,0.0,0.0,0.0,0.0,0.0,0.0,0.0,0.0,0.0,0.0,0.0,0.0,0.0,0.0,0.0,0.0,0.0,0.0,0.0,0.0,0.0,0.0,0.0,0.0,0.0,0.0,0.0,0.0,0.0,0.0,0.0,0.0,0.0,0.0,0.0,0.0,0.0,0.0,0.0,0.0,0.0,0.0,0.0,0.0,0.0,0.0,0.0,-1.792,0.0,-2.4516,0.0,-2.3853,-2.1705,0.0,0.0,0.0,0.0,0.0,0.0,0.0,0.0,0.0,0.0,0.0,0.0,0.0,0.0,0.0,0.0,0.0,0.0,0.0,0.0,0.0,0.0,0.0,0.0,0.0,0.0,0.0,0.0,0.0,0.0,0.0,0.0,0.0,0.0,0.0,0.0,0.0,0.0,0.0,0.0,0.0,0.0,0.0,0.0,0.0,0.0,0.0,0.0,0.0,0.0,0.0,0.0,0.0,0.0,0.0,0.0,0.0,0.0,0.0,0.0,0.0,0.0,0.0,0.0,0.0,0.0,0.0,0.0,0.0,0.0,0.0,0.0,0.0,0.0,0.0,0.0,0.0,0.0,0.0,0.0,0.0,0.0,0.0,0.0,0.0,0.0,0.0,0.0,0.0,0.0,0.0,0.0,0.0,0.0,0.0,0.0,0.0,0.0,0.0,0.0,0.0,0.0,0.0,0.0,0.0,0.0,0.0,0.0,-1.7998,-2.2838,-2.5455,-2.6509,-2.5805,-2.4048,-2.1549,0.0,0.0,0.0,0.0,0.0,0.0,0.0,0.0,0.0,0.0,0.0,0.0,0.0,0.0,0.0,0.0,0.0,0.0,0.0,0.0,0.0,0.0,0.0,0.0,0.0,0.0,0.0,0.0,0.0,0.0,0.0,0.0,0.0,0.0,0.0,0.0,0.0,0.0,0.0,0.0,0.0,0.0,0.0,0.0,0.0,0.0,0.0,0.0,0.0,0.0,0.0,0.0,0.0,0.0,0.0,0.0,0.0,0.0,0.0,0.0,0.0,0.0,0.0,0.0,0.0,0.0,0.0,0.0,0.0,0.0,0.0,0.0,0.0,0.0,0.0,0.0,0.0,0.0,0.0,0.0,0.0,0.0,0.0,0.0,0.0,0.0,0.0,0.0,0.0,0.0,0.0,0.0,0.0,0.0,0.0,0.0,0.0,0.0,0.0,0.0,0.0,0.0,0.0,0.0,0.0,0.0,0.0,0.0,0.0,-2.2293,-2.4791,-2.7407,-2.9786,-2.5024,-2.3189,0.0,0.0,0.0,0.0,0.0,0.0,0.0,0.0,0.0,0.0,0.0,0.0,0.0,0.0,0.0,0.0,0.0,0.0,0.0,0.0,0.0,0.0,0.0,0.0,0.0,0.0,0.0,0.0,0.0,0.0,0.0,0.0,0.0,0.0,0.0,0.0,0.0,0.0,0.0,0.0,0.0,0.0,0.0,0.0,0.0,0.0,0.0,0.0,0.0,0.0,0.0,0.0,0.0,0.0,0.0,0.0,0.0,0.0,0.0,0.0,0.0,0.0,0.0,0.0,0.0,0.0,0.0,0.0,0.0,0.0,0.0,0.0,0.0,0.0,0.0,0.0,0.0,0.0,0.0,0.0,0.0,0.0,0.0,0.0,0.0,0.0,0.0,0.0,0.0,0.0,0.0,0.0,0.0,0.0,0.0,0.0,0.0,0.0,0.0,0.0,0.0,0.0,0.0,0.0,0.0,0.0,0.0,0.0,0.0,-2.6314,-2.8071,-3.0023,-3.2051,-2.7015,-2.4907,-2.6156,0.0,0.0,0.0,0.0,0.0,0.0,0.0,0.0,0.0,0.0,0.0,0.0,0.0,0.0,0.0,0.0,0.0,0.0,0.0,0.0,0.0,0.0,0.0,0.0,0.0,0.0,0.0,0.0,0.0,0.0,0.0,0.0,0.0,0.0,0.0,0.0,0.0,0.0,0.0,0.0,0.0,0.0,0.0,0.0,0.0,0.0,0.0,0.0,0.0,0.0,0.0,0.0,0.0,0.0,0.0,0.0,0.0,0.0,0.0,0.0,0.0,0.0,0.0,0.0,0.0,0.0,0.0,0.0,0.0,0.0,0.0,0.0,0.0,0.0,0.0,0.0,0.0,0.0,0.0,0.0,0.0,0.0,0.0,0.0,0.0,0.0,0.0,0.0,0.0,0.0,0.0,0.0,0.0,0.0,0.0,0.0,0.0,0.0,0.0,0.0,0.0,0.0,0.0,0.0,0.0,0.0,0.0,0.0,-3.3495,-3.451,-3.4237,-3.2558,-2.9826,-2.6859,0.0,0.0,0.0,0.0,0.0,0.0,0.0,0.0,0.0,0.0,0.0,0.0,0.0,0.0,0.0,0.0,0.0,0.0,0.0,0.0,0.0,0.0,0.0,0.0,0.0,0.0,0.0,0.0,0.0,0.0,0.0,0.0,0.0,0.0,0.0,0.0,0.0,0.0,0.0,0.0,0.0,0.0,0.0,0.0,0.0,0.0,0.0,0.0,0.0,0.0,0.0,0.0,0.0,0.0,0.0,0.0,0.0,0.0,0.0,0.0,0.0,0.0,0.0,0.0,0.0,0.0,0.0,0.0,0.0,0.0,0.0,0.0,0.0,0.0,0.0,0.0,0.0,0.0,0.0,0.0,0.0,0.0,0.0,0.0,0.0,0.0,0.0,0.0,0.0,0.0,0.0,0.0,0.0,0.0,0.0,0.0,0.0,0.0,0.0,0.0,0.0,0.0,0.0,0.0,0.0,0.0,0.0,0.0,0.0,-3.5268,-3.7992,-3.8609,-3.6889,-3.2517,-2.9435,0.0,0.0,0.0,0.0,0.0,0.0,0.0,0.0,0.0,0.0,0.0,0.0,0.0,0.0,0.0,0.0,0.0,0.0,0.0,0.0,0.0,0.0,0.0,0.0,0.0,0.0,0.0,0.0,0.0,0.0,0.0,0.0,0.0,0.0,0.0,0.0,0.0,0.0,0.0,0.0,0.0,0.0,0.0,0.0,0.0,0.0,0.0,0.0,0.0,0.0,0.0,0.0,0.0,0.0,0.0,0.0,0.0,0.0,0.0,0.0,0.0,0.0,0.0,0.0,0.0,0.0,0.0,0.0,0.0,0.0,0.0,0.0,0.0,0.0,0.0,0.0,0.0,0.0,0.0,0.0,0.0,0.0,0.0,0.0,0.0,0.0,0.0,0.0,0.0,0.0,0.0,0.0,0.0,0.0,0.0,0.0,0.0,0.0,0.0,0.0,0.0,0.0,0.0,0.0,0.0,0.0,0.0,0.0,-3.4135,-3.8591,-4.1353,-4.2084,-4.0753,-3.6777,-3.3031,0.0,0.0,0.0,0.0,0.0,0.0,0.0,0.0,0.0,0.0,0.0,0.0,0.0,0.0,0.0,0.0,0.0,0.0,0.0,0.0,0.0,0.0,0.0,0.0,0.0,0.0,0.0,0.0,0.0,0.0,0.0,0.0,0.0,0.0,0.0,0.0,0.0,0.0,0.0,0.0,0.0,0.0,0.0,0.0,0.0,0.0,0.0,0.0,0.0,0.0,0.0,0.0,0.0,0.0,0.0,0.0,0.0,0.0,0.0,0.0,0.0,0.0,0.0,0.0,0.0,0.0,0.0,0.0,0.0,0.0,0.0,0.0,0.0,0.0,0.0,0.0,0.0,0.0,0.0,0.0,0.0,0.0,0.0,0.0,0.0,0.0,0.0,0.0,0.0,0.0,0.0,0.0,0.0,0.0,0.0,0.0,0.0,0.0,0.0,0.0,0.0,0.0,0.0,0.0,0.0,0.0,0.0,0.0,-3.6482,-4.2147,-4.4052,-4.4628,-4.3798,-4.1192,-3.6665,0.0,0.0,0.0,0.0,0.0,0.0,0.0,0.0,0.0,0.0,0.0,0.0,0.0,0.0,0.0,0.0,0.0,0.0,0.0,0.0,0.0,0.0,0.0,0.0,0.0,0.0,0.0,0.0,0.0,0.0,0.0,0.0,0.0,0.0,0.0,0.0,0.0,0.0,0.0,0.0,0.0,0.0,0.0,0.0,0.0,0.0,0.0,0.0,0.0,0.0,0.0,0.0,0.0,0.0,0.0,0.0,0.0,0.0,0.0,0.0,0.0,0.0,0.0,0.0,0.0,0.0,0.0,0.0,0.0,0.0,0.0,0.0,0.0,0.0,0.0,0.0,0.0,0.0,0.0,0.0,0.0,0.0,0.0,0.0,0.0,0.0,0.0,0.0,0.0,0.0,0.0,0.0,0.0,0.0,0.0,0.0,0.0,0.0,0.0,0.0,0.0,0.0,0.0,0.0,0.0,0.0,0.0,0.0,-3.7381,-4.1367,-4.3789,-4.4917,-4.4699,-4.0912,-3.6576,0.0,0.0,0.0,0.0,0.0,0.0,0.0,0.0,0.0,0.0,0.0,0.0,0.0,0.0,0.0,0.0,0.0,0.0,0.0,0.0,0.0,0.0,0.0,0.0,0.0,0.0,0.0,0.0,0.0,0.0,0.0,0.0,0.0,0.0,0.0,0.0,0.0,0.0,0.0,0.0,0.0,0.0,0.0,0.0,0.0,0.0,0.0,0.0,-2.4742,0.0,0.0,0.0,0.0,0.0,0.0,0.0,0.0,0.0,0.0,0.0,0.0,0.0,0.0,0.0,0.0,0.0,0.0,0.0,0.0,0.0,0.0,0.0,0.0,0.0,0.0,0.0,0.0,0.0,0.0,0.0,0.0,0.0,0.0,0.0,0.0,0.0,0.0,0.0,0.0,0.0,0.0,0.0,0.0,0.0,0.0,0.0,0.0,0.0,0.0,0.0,0.0,0.0,0.0,0.0,0.0,0.0,0.0,0.0,-3.9294,-4.2305,-4.4492,-4.5624,-4.5501,-4.2218,-3.8153,0.0,0.0,0.0,0.0,0.0,0.0,0.0,0.0,0.0,0.0,0.0,0.0,0.0,0.0,0.0,0.0,0.0,0.0,0.0,0.0,0.0,0.0,0.0,0.0,0.0,0.0,0.0,0.0,0.0,0.0,0.0,0.0,0.0,0.0,0.0,0.0,0.0,0.0,0.0,0.0,0.0,0.0,0.0,0.0,0.0,0.0,0.0,0.0,0.0,0.0,0.0,0.0,0.0,0.0,0.0,0.0,0.0,0.0,0.0,0.0,0.0,0.0,0.0,0.0,0.0,0.0,0.0,0.0,0.0,0.0,0.0,0.0,0.0,0.0,0.0,0.0,0.0,0.0,0.0,0.0,0.0,0.0,0.0,0.0,0.0,0.0,0.0,0.0,0.0,0.0,0.0,0.0,0.0,0.0,0.0,0.0,0.0,0.0,0.0,0.0,0.0,0.0,0.0,0.0,0.0,0.0,0.0,-3.7179,-4.0856,-4.3633,-4.5391,-4.6289,-4.625,-4.3906,-4.0194,-3.511,0.0,0.0,0.0,0.0,0.0,0.0,0.0,0.0,0.0,0.0,0.0,0.0,0.0,0.0,0.0,0.0,0.0,0.0,0.0,0.0,0.0,0.0,0.0,0.0,0.0,0.0,0.0,0.0,0.0,0.0,0.0,0.0,0.0,0.0,0.0,0.0,0.0,0.0,-2.2603,-2.5457,0.0,0.0,0.0,0.0,0.0,0.0,0.0,0.0,-2.6886,0.0,0.0,0.0,0.0,0.0,0.0,0.0,0.0,0.0,0.0,0.0,0.0,0.0,0.0,0.0,0.0,0.0,0.0,0.0,0.0,0.0,0.0,0.0,0.0,0.0,0.0,0.0,0.0,0.0,0.0,0.0,0.0,0.0,0.0,0.0,0.0,0.0,0.0,0.0,0.0,0.0,0.0,0.0,0.0,0.0,0.0,0.0,0.0,0.0,0.0,0.0,0.0,0.0,0.0,0.0,0.0,-3.5229,-3.691,-3.9647,-4.3633,-4.5391,-4.6289,-4.625,-4.4453,-4.1054,-3.6012,0.0,0.0,0.0,0.0,0.0,0.0,0.0,0.0,0.0,0.0,0.0,0.0,0.0,0.0,0.0,0.0,0.0,0.0,0.0,0.0,0.0,0.0,0.0,0.0,0.0,0.0,0.0,0.0,0.0,0.0,0.0,0.0,0.0,0.0,0.0,0.0,0.0,0.0,0.0,-2.8256,-2.9338,0.0,0.0,0.0,0.0,0.0,0.0,0.0,0.0,-2.8473,0.0,0.0,0.0,0.0,0.0,0.0,0.0,0.0,0.0,0.0,0.0,0.0,0.0,0.0,0.0,0.0,0.0,0.0,0.0,0.0,0.0,0.0,0.0,0.0,0.0,0.0,0.0,0.0,0.0,0.0,0.0,0.0,0.0,0.0,0.0,0.0,0.0,0.0,0.0,0.0,0.0,0.0,0.0,0.0,0.0,0.0,0.0,0.0,0.0,0.0,0.0,0.0,0.0,0.0,0.0,-3.5109,-3.8826,-4.1835,-4.4336,-4.5625,-4.6289,-4.625,-4.3789,-4.039,0.0,0.0,0.0,0.0,0.0,0.0,0.0,0.0,0.0,0.0,0.0,0.0,0.0,0.0,0.0,0.0,0.0,0.0,0.0,0.0,0.0,0.0,0.0,0.0,0.0,0.0,0.0,0.0,0.0,0.0,0.0,0.0,0.0,0.0,0.0,0.0,0.0,0.0,0.0,0.0,-2.9338,-3.0341,-3.0724,0.0,0.0,0.0,0.0,0.0,0.0,-2.9416,-2.9026,0.0,0.0,0.0,0.0,0.0,0.0,0.0,0.0,0.0,0.0,0.0,0.0,0.0,0.0,0.0,0.0,0.0,0.0,0.0,0.0,0.0,0.0,0.0,0.0,0.0,0.0,0.0,0.0,0.0,0.0,0.0,0.0,0.0,0.0,0.0,0.0,0.0,0.0,0.0,0.0,0.0,0.0,0.0,0.0,0.0,0.0,0.0,0.0,0.0,0.0,0.0,0.0,0.0,0.0,0.0,-3.4679,-4.0115,-4.3594,-4.4961,-4.5859,-4.6289,-4.625,-4.3164,-3.9725,0.0,0.0,0.0,0.0,0.0,0.0,0.0,0.0,0.0,0.0,0.0,0.0,0.0,0.0,0.0,0.0,0.0,0.0,0.0,0.0,0.0,0.0,0.0,0.0,0.0,0.0,0.0,0.0,0.0,0.0,0.0,0.0,0.0,0.0,0.0,0.0,0.0,0.0,0.0,0.0,0.0,-3.1699,-3.1387,-3.2058,0.0,0.0,0.0,0.0,-3.1136,-3.1211,0.0,0.0,0.0,0.0,0.0,0.0,0.0,0.0,0.0,0.0,0.0,0.0,0.0,0.0,0.0,0.0,0.0,0.0,0.0,0.0,0.0,0.0,0.0,0.0,0.0,0.0,0.0,0.0,0.0,0.0,0.0,0.0,0.0,0.0,0.0,0.0,0.0,0.0,0.0,0.0,0.0,0.0,0.0,0.0,0.0,0.0,0.0,0.0,0.0,0.0,0.0,0.0,0.0,0.0,0.0,0.0,-3.4567,-3.8432,-4.1832,-4.4844,-4.5859,-4.6289,-4.625,-4.3665,-4.0303,0.0,0.0,0.0,0.0,0.0,0.0,0.0,0.0,0.0,0.0,0.0,0.0,0.0,0.0,0.0,0.0,0.0,0.0,0.0,0.0,0.0,0.0,0.0,0.0,0.0,0.0,0.0,0.0,0.0,0.0,0.0,0.0,0.0,0.0,0.0,0.0,0.0,0.0,0.0,0.0,0.0,-3.4764,-3.3306,-3.3856,-3.4324,0.0,0.0,-3.5646,-3.6221,-3.6957,0.0,0.0,0.0,0.0,0.0,0.0,0.0,0.0,0.0,0.0,0.0,0.0,0.0,0.0,0.0,0.0,0.0,0.0,0.0,0.0,0.0,0.0,0.0,0.0,0.0,0.0,0.0,0.0,0.0,0.0,0.0,0.0,0.0,0.0,0.0,0.0,0.0,0.0,0.0,0.0,0.0,0.0,0.0,0.0,0.0,0.0,0.0,0.0,0.0,0.0,0.0,0.0,0.0,0.0,0.0,-3.038,-3.5385,-4.0271,-4.3749,-4.5664,-4.6094,-4.6289,-4.6289,-4.2843,-3.9437,0.0,0.0,0.0,0.0,0.0,0.0,0.0,0.0,0.0,0.0,0.0,0.0,0.0,0.0,0.0,0.0,0.0,0.0,0.0,0.0,0.0,0.0,0.0,0.0,0.0,0.0,0.0,0.0,0.0,0.0,0.0,0.0,0.0,0.0,0.0,0.0,0.0,0.0,0.0,0.0,0.0,0.0,-3.5524,-3.6738,0.0,0.0,0.0,-3.8103,-3.7981,0.0,0.0,0.0,0.0,0.0,0.0,0.0,0.0,0.0,0.0,0.0,0.0,0.0,0.0,0.0,0.0,0.0,0.0,0.0,0.0,0.0,0.0,0.0,0.0,0.0,0.0,0.0,0.0,0.0,0.0,0.0,0.0,0.0,0.0,0.0,0.0,0.0,0.0,0.0,0.0,0.0,0.0,0.0,0.0,0.0,0.0,0.0,0.0,0.0,0.0,0.0,0.0,0.0,0.0,0.0,0.0,0.0,-3.6316,-4.2262,-4.5858,-4.6914,-4.6951,-4.6952,-4.6875,-4.296,0.0,0.0,0.0,0.0,0.0,0.0,0.0,0.0,0.0,0.0,0.0,0.0,0.0,0.0,0.0,0.0,0.0,0.0,0.0,0.0,0.0,0.0,0.0,0.0,0.0,0.0,0.0,-1.5229,0.0,0.0,0.0,0.0,0.0,0.0,0.0,0.0,0.0,0.0,0.0,0.0,0.0,0.0,-3.6104,-3.7347,-3.919,-4.0515,0.0,0.0,-4.0521,-3.9886,-4.0154,-3.9335,0.0,0.0,0.0,0.0,0.0,0.0,0.0,0.0,0.0,0.0,0.0,0.0,0.0,0.0,0.0,0.0,0.0,0.0,0.0,0.0,0.0,0.0,0.0,0.0,0.0,0.0,0.0,0.0,0.0,0.0,0.0,0.0,0.0,0.0,0.0,0.0,0.0,0.0,0.0,0.0,0.0,0.0,0.0,0.0,0.0,0.0,0.0,0.0,0.0,0.0,0.0,0.0,0.0,0.0,0.0,-3.7279,-4.3141,-4.7015,-4.8664,-4.873,-4.8736,-4.8672,-4.5302,-4.1462,0.0,0.0,0.0,0.0,0.0,0.0,0.0,0.0,0.0,0.0,0.0,0.0,0.0,0.0,0.0,0.0,0.0,0.0,0.0,0.0,0.0,0.0,0.0,0.0,0.0,0.0,0.0,0.0,0.0,0.0,0.0,0.0,0.0,0.0,0.0,0.0,0.0,0.0,0.0,0.0,0.0,-3.8293,-3.8399,-4.0583,-4.2493,0.0,0.0,-4.3312,-4.3254,-4.4618,-4.3968,-3.9039,0.0,0.0,0.0,0.0,0.0,0.0,0.0,0.0,0.0,0.0,0.0,0.0,0.0,0.0,0.0,0.0,0.0,0.0,0.0,0.0,0.0,0.0,0.0,0.0,0.0,0.0,0.0,0.0,0.0,0.0,0.0,0.0,0.0,0.0,0.0,0.0,0.0,0.0,0.0,0.0,0.0,0.0,0.0,0.0,0.0,0.0,0.0,0.0,0.0,0.0,0.0,0.0,0.0,-3.3805,-3.7234,-4.3759,-4.7673,-4.8777,-4.8883,-4.8876,-4.8837,-4.6027,-4.2467,0.0,0.0,0.0,0.0,0.0,0.0,0.0,0.0,0.0,0.0,0.0,0.0,0.0,0.0,0.0,0.0,0.0,0.0,0.0,0.0,0.0,0.0,0.0,0.0,0.0,0.0,0.0,0.0,-2.3809,-2.4355,-2.4666,0.0,0.0,0.0,0.0,0.0,0.0,0.0,0.0,0.0,0.0,-4.0688,-4.222,-4.4208,0.0,0.0,-4.6346,-4.619,-4.6722,-4.602,-4.4546,-4.2019,-4.0343,0.0,0.0,0.0,0.0,0.0,0.0,0.0,0.0,0.0,0.0,0.0,0.0,0.0,0.0,0.0,0.0,0.0,0.0,0.0,0.0,0.0,0.0,0.0,0.0,0.0,0.0,0.0,0.0,0.0,0.0,0.0,0.0,0.0,0.0,0.0,0.0,0.0,0.0,0.0,0.0,0.0,0.0,0.0,0.0,0.0,0.0,0.0,0.0,0.0,0.0,0.0,0.0,-3.4544,-3.7968,-4.4805,-4.8759,-4.955,-4.9614,-4.9601,-4.9502,-4.7099,-4.3938,0.0,0.0,0.0,0.0,0.0,0.0,0.0,0.0,0.0,0.0,0.0,0.0,0.0,0.0,0.0,0.0,0.0,0.0,0.0,0.0,0.0,0.0,0.0,0.0,0.0,0.0,0.0,0.0,-2.5753,-2.6069,-2.6069,0.0,0.0,0.0,0.0,0.0,0.0,0.0,0.0,0.0,0.0,-4.2773,-4.5332,-4.693,-4.8139,-4.8709,-4.8288,-4.81,-4.8709,-4.7267,-4.567,-4.4546,0.0,0.0,0.0,0.0,0.0,0.0,0.0,0.0,0.0,0.0,0.0,0.0,0.0,0.0,0.0,0.0,0.0,0.0,0.0,0.0,0.0,0.0,0.0,0.0,0.0,0.0,0.0,0.0,0.0,0.0,-1.8115,0.0,0.0,0.0,0.0,0.0,0.0,0.0,0.0,0.0,0.0,0.0,0.0,0.0,0.0,0.0,0.0,0.0,0.0,0.0,0.0,0.0,0.0,-3.63,-3.9763,-4.6475,-5.0421,-5.1284,-5.1352,-5.1313,-5.123,-4.8806,-4.622,-4.3518,0.0,0.0,0.0,0.0,0.0,0.0,0.0,0.0,0.0,0.0,0.0,0.0,0.0,0.0,0.0,0.0,0.0,0.0,0.0,0.0,0.0,0.0,0.0,0.0,0.0,0.0,-2.4568,-2.5905,-2.6848,0.0,0.0,0.0,0.0,0.0,0.0,0.0,0.0,0.0,0.0,-4.1955,-4.4518,-4.7072,-4.8241,-4.8865,-4.8865,-4.8826,-4.8826,-4.8904,-4.8748,-4.8132,0.0,0.0,0.0,0.0,0.0,0.0,0.0,0.0,0.0,0.0,0.0,0.0,0.0,0.0,0.0,0.0,0.0,0.0,0.0,0.0,0.0,0.0,0.0,0.0,0.0,0.0,0.0,-2.6859,-2.5336,0.0,0.0,0.0,0.0,0.0,0.0,0.0,0.0,0.0,0.0,0.0,-3.6933,-3.9418,0.0,0.0,0.0,0.0,0.0,0.0,0.0,0.0,0.0,0.0,0.0,0.0,-3.723,-4.0777,-4.6899,-5.0528,-5.1357,-5.1396,-5.1391,-5.138,-4.9981,-4.7206,-4.2944,0.0,0.0,0.0,0.0,0.0,0.0,0.0,0.0,0.0,0.0,0.0,0.0,0.0,0.0,0.0,0.0,0.0,0.0,0.0,0.0,0.0,0.0,0.0,0.0,0.0,-2.5796,0.0,0.0,0.0,0.0,0.0,0.0,0.0,0.0,0.0,0.0,0.0,-3.997,-4.2831,-4.5429,-4.7564,-4.8982,-5.0385,-5.132,0.0,0.0,0.0,0.0,0.0,0.0,0.0,0.0,0.0,0.0,0.0,0.0,0.0,0.0,-4.5832,-4.0727,-3.8155,-3.7069,-3.7926,0.0,0.0,0.0,0.0,0.0,0.0,0.0,0.0,0.0,0.0,0.0,0.0,0.0,0.0,-3.1962,0.0,-3.0992,0.0,0.0,0.0,0.0,0.0,0.0,0.0,0.0,-4.0408,-4.2465,-4.1724,-4.3935,-4.4085,0.0,-4.188,-3.8137,0.0,0.0,0.0,0.0,0.0,0.0,0.0,0.0,-3.8861,-4.2052,-4.763,-5.0795,-5.1347,-5.1347,-5.138,-5.1369,-5.0511,-4.8092,-4.3875,-4.0421,-3.6985,0.0,0.0,0.0,0.0,0.0,0.0,0.0,0.0,0.0,0.0,0.0,0.0,0.0,0.0,0.0,0.0,0.0,0.0,0.0,0.0,0.0,0.0,0.0,-2.7004,0.0,0.0,0.0,0.0,0.0,0.0,0.0,0.0,0.0,-3.7019,-4.0622,-4.4253,-4.6807,-4.8857,-5.0338,-5.0813,0.0,0.0,0.0,0.0,0.0,0.0,0.0,-5.0385,-5.093,-4.9878,-4.9216,-5.0041,-5.1787,-5.2995,-5.2738,0.0,0.0,-4.6176,-4.3448,-4.2357,-4.3176,-4.3565,-4.3838,-4.415,-4.4897,-4.5332,0.0,0.0,0.0,0.0,0.0,0.0,0.0,0.0,-3.6426,-3.6395,0.0,-3.629,0.0,0.0,0.0,0.0,0.0,-3.8678,0.0,0.0,-4.6721,-4.8425,-4.7645,-4.7664,-4.7696,-4.7696,-4.76,-4.5852,-4.2493,-3.7703,0.0,0.0,0.0,0.0,0.0,0.0,-4.1193,-4.3857,-4.8905,-5.1447,-5.1356,-5.1356,-5.1349,-5.1271,-5.0478,-4.8872,-4.643,-4.4624,-4.2169,-3.875,-3.3049,0.0,0.0,0.0,0.0,0.0,0.0,0.0,0.0,0.0,0.0,0.0,0.0,0.0,0.0,0.0,0.0,0.0,0.0,0.0,0.0,-2.7796,0.0,0.0,0.0,0.0,0.0,0.0,0.0,0.0,0.0,0.0,-4.1851,-4.5053,-4.8522,-5.0969,0.0,0.0,0.0,0.0,-5.245,-5.1671,-5.2216,-5.2801,-5.2801,-5.4126,-5.51,-5.5169,0.0,0.0,-5.5372,-5.5987,-5.626,-5.5489,-5.5957,-5.5762,-5.319,-5.0579,-4.9255,-4.9917,-4.9488,-4.9333,-4.9995,-5.0657,-5.1242,-4.5261,0.0,0.0,0.0,0.0,-4.1111,-4.3022,-4.5986,-4.5372,-4.409,-4.2416,-4.2424,0.0,0.0,0.0,0.0,0.0,0.0,-4.311,-4.5234,-4.8308,-5.0244,-5.1172,-5.1787,-5.206,-5.206,-5.1445,-5.0626,-4.9613,-4.7586,-4.2142,-3.3778,0.0,0.0,0.0,0.0,-4.4727,-4.7345,-5.1186,-5.287,-5.2227,-5.2214,-5.1934,-5.131,-5.1055,-5.0268,-4.895,-4.7891,-4.5709,-4.2241,-3.8772,0.0,0.0,0.0,0.0,0.0,0.0,0.0,0.0,0.0,0.0,0.0,0.0,0.0,0.0,0.0,0.0,0.0,0.0,0.0,-2.8606,-3.0667,-3.2104,0.0,0.0,0.0,0.0,0.0,0.0,0.0,0.0,0.0,-4.9956,-5.019,-5.0696,0.0,0.0,-5.3299,-5.2684,-5.4203,-5.5295,-5.5022,0.0,0.0,0.0,-5.5619,-5.5346,-5.5969,-5.6766,-5.7243,-5.7021,-5.7692,-5.8199,-5.7917,-5.8091,-5.8022,-5.7282,-5.5645,-5.4437,-5.4593,-5.4437,-5.4359,-5.4593,-5.4866,-5.4983,-5.2341,-4.7522,-4.5852,-4.5741,-4.6677,-4.6365,-4.7885,-5.053,-5.0036,-4.9106,-4.802,-4.803,-4.6201,-4.3123,-4.2428,0.0,0.0,0.0,-4.7167,-4.9373,-5.0881,-5.2161,-5.312,-5.3658,-5.3892,-5.3853,-5.3354,-5.312,-5.3112,-5.2224,-4.81,-4.1011,0.0,0.0,-4.1373,-4.5066,-4.7873,-4.979,-5.2497,-5.3627,-5.3143,-5.3097,-5.2855,-5.2348,-5.199,-5.1593,-5.1047,-5.0229,-4.867,-4.6215,-4.3371,-3.9552,0.0,0.0,0.0,0.0,0.0,0.0,0.0,0.0,0.0,0.0,0.0,-2.6459,0.0,0.0,0.0,0.0,-3.0287,-3.208,-3.3434,-3.5299,0.0,0.0,0.0,0.0,0.0,0.0,0.0,-4.8125,-5.0463,-5.2723,-5.5061,-5.4476,-5.4164,-5.5022,-5.5598,-5.5598,-5.4749,0.0,-5.6853,-5.6533,-5.7186,-5.7683,-5.7653,-5.7341,-5.7419,-5.8296,-5.8812,-5.9173,-5.9231,-5.9659,-5.996,-5.9971,-5.9981,-6.0,-6.001,-5.9191,-5.8256,-5.7633,-5.7477,-5.7477,-5.7516,-5.7477,-5.7477,-5.8022,-5.7633,-5.3674,-5.1927,-5.1732,-5.103,-5.1179,-5.1904,-5.1904,-5.231,-5.2987,-5.3026,-5.2136,-5.0511,-4.8884,0.0,-5.0547,-5.1396,-5.2601,-5.4084,-5.417,-5.4156,-5.411,-5.4134,-5.4126,-5.4203,-5.418,-5.4219,-5.4203,-5.3401,-5.2122,-5.0463,-4.9659,-4.8769,-4.7756,-4.9393,-5.0711,-5.1515,-5.3151,-5.4009,-5.4009,-5.3931,-5.3853,-5.3775,-5.3034,-5.2567,-5.2489,-5.171,-5.093,-5.0073,-4.6917,-4.3565,-4.0175,0.0,0.0,0.0,0.0,0.0,0.0,0.0,0.0,0.0,0.0,0.0,0.0,0.0,0.0,0.0,-3.7391,0.0,-4.0136,-4.1026,0.0,0.0,0.0,-4.3254,-4.6644,-4.906,-5.1476,-5.3931,0.0,0.0,-5.7827,0.0,-5.8208,-5.9074,-5.9074,-5.8685,-5.7827,-5.7788,-5.7624,-5.6972,-5.7468,-5.8003,-5.8215,-5.9293,-6.0472,-6.1206,-6.1634,-6.1645,-6.1634,-6.1678,-6.1705,-6.1701,-6.1723,-6.1734,-6.1792,-6.1646,-6.1179,-5.962,-5.9269,-5.923,-5.9191,-5.9191,-5.9191,-6.0672,-6.0516,-5.8849,-5.7407,-5.616,-5.5965,-5.6394,-5.7126,-5.7182,-5.6917,-5.6574,-5.6549,-5.5971,-5.4918,-5.3852,-5.3579,-5.4053,-5.4911,-5.5131,-5.4999,-5.6246,-5.6472,-5.5887,-5.5887,-5.6191,-5.6775,-5.6784,-5.6784,-5.6775,-5.6589,-5.5615,-5.4048,-5.3775,-5.1951,-4.8716,-5.0821,-5.2411,-5.3268,-5.4359,-5.4866,-5.4905,-5.4242,-5.358,-5.2918,-5.2684,-5.2294,-5.1632,-5.1398,-5.1203,-5.093,-4.8358,-4.5631,-4.2786,-3.6201,0.0,0.0,0.0,0.0,0.0,0.0,0.0,0.0,0.0,-3.4759,-2.868,0.0,-3.7642,0.0,-4.1095,-4.3479,-4.3689,-4.5064,0.0,0.0,-4.8592,-5.0229,-5.3658,-5.4537,-5.5385,-5.6658,-5.7712,-5.8665,-5.9581,-5.9649,-5.996,-6.076,-5.9805,-5.8685,-5.7866,-5.89,-5.962,-5.9493,-6.0027,-6.055,-6.0553,-6.1408,-6.2186,-6.2381,-6.2958,-6.3369,-6.3417,-6.3404,-6.339,-6.3392,-6.3441,-6.3475,-6.3437,-6.3029,-6.2503,-6.1997,-6.1451,-6.0984,-6.0984,-6.0984,-6.0984,-6.1841,-6.2114,-6.1257,-6.0525,-5.9949,-5.8771,-5.8529,-5.8996,-5.8996,-5.8763,-5.8334,-5.8295,-5.8031,-5.7533,-5.7096,-5.6909,-5.6925,-5.7393,-5.7346,-5.6948,-5.7836,-5.8022,-5.7633,-5.7633,-5.7866,-5.8256,-5.8295,-5.8295,-5.8295,-5.8256,-5.7788,-5.6892,-5.6892,-5.5333,-5.2372,-5.2879,-5.3424,-5.3892,-5.4749,-5.5567,-5.6269,-5.5489,-5.4437,-5.3229,-5.2801,-5.2021,-5.0774,-4.9995,-4.9605,-4.9566,-4.7891,-4.6098,-4.4228,-3.9513,-3.6045,0.0,0.0,0.0,0.0,0.0,0.0,0.0,0.0,0.0,0.0,0.0,-4.189,0.0,-4.5605,-4.8334,-4.8319,-5.0252,-5.2005,-5.3307,-5.3844,-5.5364,-5.8451,-5.8394,-5.8618,-5.9854,-6.0059,-6.0282,-6.075,-6.0817,-6.1117,-6.1957,-6.1295,-6.0526,-6.0147,-6.0827,-6.1534,-6.1873,-6.2328,-6.2614,-6.2549,-6.2963,-6.3274,-6.3301,-6.3651,-6.4013,-6.4001,-6.3998,-6.3983,-6.3987,-6.4027,-6.4064,-6.4037,-6.3737,-6.3408,-6.3341,-6.3029,-6.2611,-6.227,-6.2465,-6.2698,-6.2387,-6.2971,-6.2231,-6.2318,-6.2726,-6.0447,-5.9434,-5.9317,-5.9328,-5.9348,-5.9309,-5.9266,-5.9238,-5.922,-5.9163,-5.9143,-5.917,-5.917,-5.91,-5.8983,-5.9122,-5.9113,-5.8996,-5.8996,-5.9035,-5.9152,-5.9152,-5.9191,-5.9152,-5.9152,-5.9074,-5.8841,-5.8841,-5.8022,-5.6503,-5.4983,-5.4126,-5.3931,-5.4749,-5.5918,-5.7321,-5.658,-5.5333,-5.3658,-5.284,-5.1632,-4.9917,-4.8436,-4.7657,-4.7618,-4.6839,-4.6059,-4.5358,-4.2747,-4.0682,0.0,-3.6785,0.0,0.0,0.0,0.0,0.0,0.0,0.0,0.0,-4.567,-4.6098,-4.6215,-5.0502,-5.3307,-5.3424,-5.5559,-5.7273,-5.7944,-5.816,-5.9124,-6.1257,-6.0993,-6.1188,-6.2737,-6.2299,-6.1899,-6.1879,-6.1829,-6.2141,-6.2791,-6.2885,-6.2846,-6.3064,-6.2935,-6.3106,-6.3923,-6.3987,-6.3793,-6.3842,-6.4022,-6.4153,-6.4129,-6.4362,-6.4309,-6.4415,-6.4386,-6.4386,-6.4376,-6.4481,-6.4416,-6.4363,-6.4298,-6.4193,-6.4254,-6.4226,-6.3954,-6.3312,-6.3517,-6.4062,-6.375,-6.3828,-6.3711,-6.3361,-6.2864,-6.2348,-6.179,-6.112,-6.1097,-6.1062,-6.1022,-6.0966,-6.0954,-6.0939,-6.0266,-5.9966,-5.9988,-5.9988,-5.961,-5.9007,-5.9747,-5.9679,-5.9035,-5.8996,-5.9386,-6.0049,-6.0049,-6.0049,-6.0049,-6.0049,-5.9308,-5.7983,-5.7944,-5.7438,-5.6464,0.0,0.0,0.0,-5.4749,-5.5333,-5.5645,-5.4827,-5.358,-5.1865,-5.1632,0.0,-4.9138,-4.8709,-4.8553,-4.8514,-4.7696,0.0,0.0,0.0,0.0,0.0,0.0,0.0,0.0,0.0,0.0,0.0,-4.8008,-4.7306,-4.6176,-4.9761,-5.2489,-5.3229,-5.5372,-5.7048,-5.7749,-5.888,-5.965,-5.9815,-6.0438,-6.1052,-6.1568,-6.2055,-6.2512,-6.2854,-6.3258,-6.3534,-6.3546,-6.3547,-6.3612,-6.3833,-6.3767,-6.4065,-6.4727,-6.4208,-6.3845,-6.4001,-6.4129,-6.4037,-6.3983,-6.4566,-6.4993,-6.5032,-6.5615,-6.5965,-6.598,-6.5984,-6.6075,-6.6023,-6.6153,-6.6151,-6.6151,-6.5628,-6.525,-6.5182,-6.5182,-6.4909,-6.4062,-6.4023,-6.4101,-6.4374,0.0,-6.3828,-6.3517,0.0,-6.2581,-6.1976,-6.1564,-6.1568,-6.1518,-6.146,-6.1383,-6.1421,-6.1434,-6.1019,-6.0849,-6.0822,-6.0895,-6.0672,-6.0282,-6.0711,-6.0672,-6.0243,-6.0224,-6.0458,-6.0887,-6.0935,-6.0945,-6.0945,-6.0945,-6.0477,-5.9601,-5.9562,-5.9124,-5.8296,-5.7868,-5.7245,-5.6446,-5.6416,-5.6844,-5.7653,-5.6883,-5.5372,-5.3346,0.0,0.0,0.0,0.0,0.0,0.0,0.0,0.0,0.0,0.0,0.0,-4.8553,-4.7072,-4.687,-4.8491,-4.9036,-5.0399,-5.2922,-5.3935,-5.3506,-5.1382,-5.442,-5.6943,-5.8179,-5.9104,-6.0087,-6.1393,-6.1938,-6.2172,-6.2192,-6.2572,-6.299,-6.338,-6.3447,-6.3631,-6.3982,-6.4076,-6.4208,-6.4649,-6.4662,-6.5037,-6.5712,-6.5489,-6.5552,-6.6203,-6.5411,-6.4712,-6.5139,-6.5241,-6.5226,-6.5265,-6.5537,-6.6042,-6.6392,-6.6508,-6.6664,-6.7052,-6.681,-6.6528,-6.6592,-6.6905,-6.7243,-6.7243,-6.7178,-6.7229,-6.7229,-6.7229,-6.7112,-6.6606,-6.594,-6.5387,-6.5075,-6.5699,-6.4208,-6.3935,-6.4442,-6.2922,-6.2133,-6.1928,0.0,0.0,0.0,-6.1419,-6.1497,-6.1652,-6.1668,-6.181,-6.1939,-6.1985,-6.1996,-6.1946,-6.1946,-6.1935,-6.1951,-6.1946,-6.1957,-6.1957,-6.187,-6.1841,-6.1841,-6.1685,-6.1549,-6.1489,-6.1489,-6.1117,-6.0433,-5.9733,-5.9394,-5.9366,-5.8277,-5.8394,-5.9776,-5.8987,-5.7477,-5.5256,-5.5217,-5.4126,-5.1865,-5.1086,-5.0696,-5.0657,-5.0026,-5.0065,-5.0844,-5.1585,-5.2433,-5.3368,-5.3485,-5.3983,-5.5093,-5.5677,-5.6446,-5.7476,-5.8799,-5.8915,-5.7429,-5.8597,-6.0066,-6.16,-6.1873,-6.2546,-6.3932,-6.4087,-6.4099,-6.4081,-6.407,-6.436,-6.4983,-6.4866,-6.4816,-6.5336,-6.5258,-6.5246,-6.5931,-6.6033,-6.6422,-6.7549,-6.7324,-6.7153,-6.7619,-6.6703,-6.6042,-6.678,-6.6975,-6.6975,-6.6975,-6.6975,-6.7247,-6.7814,-6.7386,-6.7247,-6.7658,-6.7425,-6.6998,-6.7076,-6.7588,-6.7913,-6.8069,-6.8472,-6.9041,-6.908,-6.908,-6.9094,-6.8978,-6.8073,-6.7119,-6.6829,-6.7569,-6.6574,-6.6213,-6.6252,-6.5205,-6.4363,-6.3547,-6.2133,-6.146,-6.1383,-6.1394,-6.1808,-6.2507,-6.2521,-6.2949,-6.3648,-6.3662,-6.3637,0.0,-6.3664,-6.3638,-6.3663,-6.3737,-6.3748,-6.367,-6.3039,-6.2737,-6.262,-6.1938,-6.15,-6.1489,-6.1507,-6.1406,-6.1328,-6.1211,-6.1122,-6.1019,-5.886,-5.7829,-5.8024,-5.7273,-5.6308,-5.5295,-5.5256,-5.471,-5.358,-5.3424,-5.3346,-5.3346,-5.3204,-5.3467,-5.4324,-5.45,-5.5268,-5.6747,-5.6903,-5.7904,-6.0161,-5.9849,-6.02,-6.1705,-6.2133,-6.1834,-6.09,-6.1017,-6.1562,-6.2534,-6.3247,-6.3764,-6.4025,-6.4154,-6.4204,-6.4103,-6.4064,-6.4103,-6.4402,-6.5466,-6.6217,-6.6373,-6.7557,-6.8225,-6.8286,-6.833,-6.8347,-6.8691,-6.8618,-6.8605,-6.8545,-6.8014,-6.7868,-6.849,-6.8762,-6.8762,-6.8513,-6.8723,-6.8668,-6.8829,-6.8691,-6.8497,-6.87,-6.8566,-6.8428,-6.858,-6.8707,-6.8801,-6.8839,-6.8917,-6.915,-6.9228,-6.9282,-6.9235,-6.9274,-6.8967,-6.8579,-6.7303,-6.7253,-6.7307,-6.7061,-6.6581,-6.5647,-6.4765,-6.3973,-6.321,-6.286,-6.2807,-6.2793,-6.3051,-6.3401,-6.3376,-6.3623,-6.4012,-6.4001,-6.4001,-6.4001,-6.4001,-6.4001,-6.4001,-6.4027,-6.404,-6.4013,-6.3687,-6.3475,-6.3464,-6.3025,-6.2624,-6.2145,-6.1681,-6.1421,-6.146,-6.1888,-6.216,-6.2069,-6.0577,-5.9794,-5.9755,-5.9415,-5.8802,-5.7994,-5.7946,-5.7507,-5.6651,-5.6612,-5.6612,-5.6612,-5.6602,-5.6747,-5.7136,-5.8059,-5.8915,-5.9655,-6.0149,-6.0927,-6.2082,-6.1784,-6.2082,-6.3326,-6.3443,-6.3287,-6.2873,-6.2847,-6.3197,-6.4001,-6.4467,-6.4908,-6.5284,-6.5375,-6.5375,-6.5362,-6.5698,-6.6009,-6.6111,-6.7082,-6.779,-6.7859,-6.8463,-6.9144,-6.9592,-6.9613,-6.9846,-7.0153,-6.9963,-6.9633,-6.9614,-6.9321,-6.9045,-6.9045,-6.8989,-6.8989,-6.8989,-6.8989,-6.9183,-6.9553,-6.9243,-6.9186,-6.9401,-6.9343,-6.8994,-6.8992,-6.9317,-6.9606,-6.9661,-7.0089,-7.0266,-7.0365,-7.0365,-7.0382,-7.0399,-7.0121,-6.9678,-6.7346,-6.6971,-6.7553,-6.7495,-6.6927,-6.604,-6.5286,-6.4704,-6.4527,-6.4449,-6.4411,-6.4148,-6.41,-6.4255,-6.4284,-6.4376,-6.457,-6.4558,-6.4597,-6.457,-6.457,-6.4556,-6.4581,-6.457,-6.457,-6.4517,-6.4364,-6.426,-6.4195,-6.404,-6.3637,-6.2949,-6.2274,-6.2002,-6.2002,-6.2663,-6.2973,-6.2934,-6.2368,-6.1965,-6.1783,-6.1795,-6.1417,-6.065,-6.0483,-6.02,-5.9538,-5.9449,-5.9437,-5.9476,-5.9607,-5.9672,-5.975,-6.1136,-6.1952,-6.203,-6.2613,-6.3079,-6.3221,-6.3439,-6.3828,-6.4488,-6.4566,-6.4566,-6.4551,-6.4542,-6.4697,-6.5134,-6.5328,-6.5755,-6.6299,-6.6648,-6.6765,-6.6788,-6.7487,-6.7859,-6.8036,-6.8735,-6.9222,-6.9207,-6.9362,-6.9827,-7.0273,-7.0448,-7.068,-7.1087,-7.0831,-7.0483,-7.0428,-7.0448,-7.0138,-6.9673,-6.9459,-6.9594,-6.9478,-6.9556,-6.9866,-7.039,-6.9983,-6.9944,-7.0215,-6.9866,-6.9517,-6.9634,-7.0002,-7.0388,-7.0505,-7.0893,-7.128,-7.1281,-7.1262,-7.1397,-7.1356,-7.1021,-7.0526,-6.7126,-6.7697,-6.7626,-6.7871,-6.8204,-6.7409,-6.6968,-6.6753,-6.6157,-6.5826,-6.5698,-6.4549,-6.445,-6.5032,-6.5056,-6.5444,-6.6159,-6.6237,-6.6198,-6.6198,-6.6275,-6.6275,-6.6159,-6.6266,-6.629,-6.6034,-6.5406,-6.5056,-6.4915,-6.4166,-6.3761,-6.3718,-6.372,-6.3711,-6.375,-6.3828,-6.3867,-6.3867,-6.3804,-6.339,-6.264,-6.2639,-6.2262,-6.1406,-6.1406,-6.1367,-6.1277,-6.1149,-6.1084,-6.1109,-6.1718,-6.2078,-6.2138,-6.2915,-6.34,-6.34,-6.3477,-6.3902,-6.4804,-6.5646,-6.6081,-6.6275,-6.6182,-6.6128,-6.6096,-6.6096,-6.5879,-6.5513,-6.5863,-6.6273,-6.645,-6.7088,-6.7476,-6.7557,-6.8294,-6.878,-6.8897,-6.9479,-6.9982,-7.0021,-7.0542,-7.112,-7.1081,-7.1081,-7.1158,-7.1296,-7.1197,-7.1059,-7.1042,-7.1063,-7.1063,-7.1025,-7.1125,-7.1126,-7.1087,-7.1262,-7.1068,-7.1203,-7.1203,-7.1028,-7.0986,-7.1004,-7.1042,-7.0638,-7.0947,-7.1063,-7.1102,-7.1274,-7.1317,-7.1396,-7.1455,-7.1513,-7.1564,-7.1481,-7.1186,-6.6901,-6.6941,-6.8274,-6.8999,-6.9177,-6.9021,-6.8574,-6.7903,-6.7348,-6.7,-6.6786,-6.5885,-6.5536,-6.5683,-6.5683,-6.5877,-6.6187,-6.6225,-6.6187,-6.6225,-6.6245,-6.6264,-6.6283,-6.6373,-6.6406,-6.6334,-6.6089,-6.5949,-6.5763,-6.5031,-6.4605,-6.4582,-6.424,-6.3983,-6.4022,-6.445,-6.4691,-6.4682,-6.5109,-6.4898,-6.4067,-6.3658,-6.334,-6.3042,-6.2951,-6.2976,-6.2976,-6.291,-6.2896,-6.2896,-6.32,-6.3363,-6.3363,-6.4123,-6.4554,-6.454,-6.4909,-6.5316,-6.5741,-6.6126,-6.6316,-6.632,-6.6283,-6.6283,-6.632,-6.6264,-6.6109,-6.5971,-6.62,-6.6549,-6.7038,-6.7444,-6.7813,-6.8317,-6.9032,-6.9536,-6.9574,-7.0289,-7.0831,-7.081,-7.112,-7.1269,-7.1224,-7.1208,-7.1214,-7.1253,-7.1291,-7.1291,-7.1291,-7.1291,-7.1291,-7.1291,-7.1373,-7.1355,-7.1355,-7.1355,-7.1355,-7.1334,-7.1334,-7.1313,-7.1313,-7.1291,-7.1291,-7.1291,-7.1291,-7.1291,-7.1253,-7.1291,-7.1313,-7.1334,-7.1435,-7.1513,-7.155,-7.1564,-7.1387,-6.656,-6.6399,-6.8458,-6.9552,-6.972,-6.9926,-6.9424,-6.8544,-6.8123,-6.7774,-6.7405,-6.6901,-6.6555,-6.6328,-6.62,-6.6165,-6.6165,-6.6126,-6.6126,-6.6165,-6.6205,-6.6205,-6.6225,-6.6281,-6.6334,-6.6316,-6.6373,-6.6373,-6.6299,-6.5773,-6.5424,-6.5347,-6.4876,-6.4621,-6.466,-6.5225,-6.5424,-6.5449,-6.5973,-6.5896,-6.5277,-6.4808,-6.4349,-6.3953,-6.3899,-6.3883,-6.3883,-6.389,-6.3834,-6.3873,-6.405,-6.4149,-6.4188,-6.4963,-6.5353,-6.5374,-6.5838,-6.6148,-6.6185,-6.6187,-6.6206,-6.6245,-6.6185,-6.6224,-6.6284,-6.6185,-6.6301,-6.6612,-6.667,-6.7019,-6.7445,-6.7987,-6.8509,-6.9087,-6.9839,-7.0281,-7.0358,-7.0876,-7.1139,-7.1201,-7.1139,-7.1178,-7.1091,-7.1124,-7.1214,-7.1291,-7.1291,-7.1291,-7.1291,-7.1291,-7.1291,-7.1291,-7.1291,-7.1291,-7.1291,-7.1291,-7.1291,-7.1291,-7.1291,-7.1291,-7.1291,-7.1291,-7.1291,-7.1291,-7.1291,-7.1291,-7.1291,-7.1291,-7.1291,-7.1334,-7.1435,-7.1494,-7.1513,-7.1568,-7.1568,-6.6036,-6.6244,-6.7754,-6.8847,-6.9498,-6.9631,-6.9244,-6.8458,-6.8452,-6.8027,-6.7348,-6.7216,-6.7155,-6.7078,-6.6689,-6.6477,-6.6477,-6.6406,-6.6389,-6.6389,-6.6406,-6.6477,-6.6493,-6.6493,-6.6406,-6.6263,-6.6245,-6.6162,-6.5958,-6.5951,-6.5958,-6.5942,-6.5933,-6.6051,-6.5973,-6.6012,-6.6128,-6.6069,-6.6105,-6.6084,-6.6088,-6.5989,-6.5178,-6.3942,-6.369,-6.3768,-6.371,-6.359,-6.3566,-6.3566,-6.427,-6.4586,-6.4677,-6.5394,-6.5856,-6.5856,-6.5974,-6.6063,-6.6144,-6.6162,-6.6204,-6.632,-6.6245,-6.6284,-6.6264,-6.6322,-6.6611,-6.7346,-6.7441,-6.7557,-6.7771,-6.8854,-6.9705,-6.9916,-7.056,-7.0913,-7.099,-7.0915,-7.0925,-7.0952,-7.0979,-7.103,-7.1106,-7.1224,-7.1269,-7.1291,-7.1291,-7.1291,-7.1291,-7.1291,-7.1291,-7.1291,-7.1291,-7.1291,-7.1291,-7.1291,-7.1291,-7.1291,-7.1291,-7.1291,-7.1291,-7.1291,-7.1291,-7.1291,-7.1291,-7.1291,-7.1291,-7.1291,-7.1313,-7.1394,-7.1435,-7.1475,-7.1475,-7.1494,-7.1494,-6.5997,-6.6588,-6.7093,-6.7832,-6.8579,-6.8729,-6.851,-6.8157,-6.8385,-6.8256,-6.7911,-6.7947,-6.7749,-6.7209,-6.7033,-6.6608,-6.6058,-6.6105,-6.6041,-6.5856,-6.5974,-6.5997,-6.5905,-6.5997,-6.6041,-6.5997,-6.6019,-6.6058,-6.6013,-6.608,-6.6102,-6.608,-6.6102,-6.6123,-6.6102,-6.6123,-6.6102,-6.6036,-6.6036,-6.6013,-6.6005,-6.5982,-6.5649,-6.5048,-6.5192,-6.5257,-6.5257,-6.5255,-6.5234,-6.5234,-6.5501,-6.5633,-6.5633,-6.5836,-6.5982,-6.5943,-6.5958,-6.5958,-6.6005,-6.5974,-6.5974,-6.599,-6.5895,-6.587,-6.5972,-6.6396,-6.6858,-6.7331,-6.8294,-6.8781,-6.8969,-6.9494,-7.0073,-7.0513,-7.0799,-7.0979,-7.0979,-7.0925,-7.0925,-7.1005,-7.103,-7.1056,-7.1056,-7.112,-7.1207,-7.1269,-7.1291,-7.1291,-7.1291,-7.1291,-7.1291,-7.1291,-7.1291,-7.1291,-7.1291,-7.1291,-7.1291,-7.1291,-7.1291,-7.1291,-7.1291,-7.1291,-7.1291,-7.1291,-7.1291,-7.1291,-7.1291,-7.1291,-7.1313,-7.1313,-7.1415,-7.1435,-7.1435,-7.1455,-7.1455,-6.5779,-6.6404,-6.6681,-6.7131,-6.7745,-6.8125,-6.8021,-6.7822,-6.8514,-6.8679,-6.8385,-6.8718,-6.8574,-6.8058,-6.7726,-6.705,-6.6127,-6.6059,-6.5832,-6.5597,-6.5756,-6.5782,-6.5678,-6.582,-6.5856,-6.5856,-6.5881,-6.5928,-6.5943,-6.599,-6.599,-6.5943,-6.5943,-6.5943,-6.5895,-6.5943,-6.5919,-6.5807,-6.5807,-6.582,-6.5781,-6.5781,-6.5755,-6.5755,-6.5919,-6.6013,-6.6013,-6.6013,-6.5974,-6.6013,-6.6013,-6.6036,-6.6036,-6.599,-6.5943,-6.5919,-6.5909,-6.5859,-6.5833,-6.5743,-6.5718,-6.5755,-6.5848,-6.5935,-6.6085,-6.6825,-6.739,-6.7983,-6.874,-6.9563,-6.9836,-6.9951,-7.0298,-7.0771,-7.0832,-7.0843,-7.0815,-7.0843,-7.0871,-7.0925,-7.1005,-7.103,-7.103,-7.1094,-7.1169,-7.1291,-7.1291,-7.1291,-7.1291,-7.1291,-7.1291,-7.1291,-7.1291,-7.1291,-7.1291,-7.1291,-7.1291,-7.1291,-7.1291,-7.1291,-7.1291,-7.1291,-7.1291,-7.1291,-7.1291,-7.1291,-7.1291,-7.1291,-7.1291,-7.1291,-7.1313,-7.1394,-7.1394,-7.1376,-7.1376,-6.549,-6.5703,-6.6509,-6.7016,-6.7291,-6.8013,-6.7947,-6.7639,-6.9012,-6.918,-6.8706,-6.9359,-6.9643,-6.9475,-6.8732,-6.7872,-6.6934,-6.6332,-6.5982,-6.5881,-6.5928,-6.5928,-6.5881,-6.5881,-6.5943,-6.5943,-6.5832,-6.5743,-6.5635,-6.5663,-6.5663,-6.5635,-6.5635,-6.5635,-6.5608,-6.5635,-6.5635,-6.5608,-6.558,-6.558,-6.558,-6.558,-6.5552,-6.558,-6.5635,-6.5635,-6.5635,-6.5635,-6.5663,-6.5635,-6.5635,-6.5674,-6.582,-6.5872,-6.5872,-6.582,-6.5769,-6.5769,-6.569,-6.56,-6.5532,-6.5761,-6.6279,-6.6574,-6.6863,-6.7582,-6.8348,-6.8846,-6.9259,-6.9625,-7.021,-7.0392,-7.0524,-7.0805,-7.0737,-7.0669,-7.0708,-7.0708,-7.0708,-7.0729,-7.0815,-7.0898,-7.0914,-7.1004,-7.1147,-7.1208,-7.1269,-7.1347,-7.1485,-7.1523,-7.1369,-7.1485,-7.1717,-7.191,-7.1601,-7.133,-7.133,-7.133,-7.1291,-7.1291,-7.1291,-7.1291,-7.1291,-7.1291,-7.1291,-7.1291,-7.1291,-7.1291,-7.1291,-7.1291,-7.1313,-7.1313,-7.1313,-7.1334,-7.1313,-6.685,-6.6557,-6.7225,-6.7629,-6.7784,-6.7956,-6.788,-6.7793,-6.8944,-6.9212,-6.9174,-6.9834,-6.9911,-6.9413,-6.9068,-6.8463,-6.7561,-6.6816,-6.6183,-6.5751,-6.5743,-6.5743,-6.5597,-6.5608,-6.5608,-6.5608,-6.5608,-6.558,-6.5552,-6.558,-6.558,-6.5552,-6.5523,-6.5494,-6.5465,-6.5494,-6.5523,-6.5523,-6.5552,-6.558,-6.5608,-6.558,-6.5552,-6.5523,-6.5523,-6.5523,-6.5465,-6.5552,-6.5608,-6.5608,-6.5608,-6.5608,-6.5674,-6.5646,-6.5646,-6.558,-6.5559,-6.5531,-6.5465,-6.5449,-6.565,-6.6116,-6.6389,-6.6777,-6.7349,-6.8145,-6.8755,-6.9098,-6.9556,-7.0086,-7.02,-7.0281,-7.0353,-7.0477,-7.0515,-7.0515,-7.0547,-7.0609,-7.0609,-7.0547,-7.0729,-7.0843,-7.0815,-7.0902,-7.1106,-7.127,-7.1246,-7.1424,-7.1982,-7.2081,-7.2529,-7.2916,-7.2955,-7.2529,-7.2181,-7.1794,-7.164,-7.1523,-7.1407,-7.1291,-7.1291,-7.1291,-7.1291,-7.1291,-7.1291,-7.1291,-7.1291,-7.1291,-7.1291,-7.1291,-7.1291,-7.1291,-7.1291,-7.1291,-7.1291,-6.7623,-6.7361,-6.773,-6.7959,-6.8012,-6.7928,-6.7897,-6.8012,-6.8814,-6.9196,-6.9349,-7.0037,-7.0151,-6.9731,-6.9655,-6.9158,-6.8356,-6.7821,-6.7171,-6.6285,-6.5714,-6.5532,-6.5413,-6.5413,-6.5413,-6.5413,-6.5435,-6.5465,-6.5465,-6.5494,-6.5532,-6.5465,-6.5465,-6.5435,-6.5413,-6.5435,-6.5465,-6.5465,-6.5494,-6.5523,-6.56,-6.5829,-6.5992,-6.6,-6.6208,-6.6139,-6.5879,-6.5902,-6.5771,-6.5571,-6.5523,-6.5494,-6.5465,-6.5465,-6.5435,-6.5435,-6.5388,-6.5359,-6.529,-6.5521,-6.5831,-6.6349,-6.6882,-6.7417,-6.8025,-6.8747,-6.9241,-6.9355,-6.9735,-7.0077,-7.0077,-7.0114,-7.0147,-7.0182,-7.0319,-7.0419,-7.0483,-7.0609,-7.0639,-7.0609,-7.0699,-7.0911,-7.1103,-7.1189,-7.1475,-7.1787,-7.1915,-7.1964,-7.2624,-7.2583,-7.2993,-7.3079,-7.2561,-7.2391,-7.2568,-7.2297,-7.1988,-7.1756,-7.1562,-7.1407,-7.1291,-7.1291,-7.1291,-7.1291,-7.1291,-7.1291,-7.1291,-7.1291,-7.1291,-7.1291,-7.1291,-7.1291,-7.1291,-7.1291,-7.1291,-6.7954,-6.7973,-6.8012,-6.8165,-6.8196,-6.8165,-6.8241,-6.8241,-6.8929,-6.9349,-6.9502,-7.0113,-7.0381,-7.0381,-7.0266,-6.9884,-6.9349,-6.9011,-6.8515,-6.756,-6.6522,-6.565,-6.5452,-6.5413,-6.5383,-6.5383,-6.5383,-6.5383,-6.5383,-6.5383,-6.5413,-6.5383,-6.5383,-6.5383,-6.5383,-6.5383,-6.5383,-6.5383,-6.5459,-6.5536,-6.5574,-6.63,-6.672,-6.6758,-6.7267,-6.7273,-6.6701,-6.6521,-6.6135,-6.5498,-6.5413,-6.5383,-6.5321,-6.5352,-6.5352,-6.5328,-6.5314,-6.5334,-6.5327,-6.5947,-6.6406,-6.663,-6.7654,-6.8641,-6.8792,-6.9323,-6.974,-6.9778,-6.9891,-6.9929,-6.9929,-6.9967,-7.0004,-7.0043,-7.0185,-7.0424,-7.0609,-7.0639,-7.0609,-7.0647,-7.0716,-7.0984,-7.1681,-7.181,-7.2364,-7.2831,-7.2993,-7.3001,-7.3197,-7.308,-7.2596,-7.2675,-7.3123,-7.3141,-7.3566,-7.3342,-7.3032,-7.2645,-7.2336,-7.2026,-7.1678,-7.1601,-7.1369,-7.1369,-7.1291,-7.1291,-7.1291,-7.1291,-7.1291,-7.1291,-7.1291,-7.1291,-7.1291,-7.1291,-7.1291,-6.9256,-6.8793,-6.9469,-6.9769,-6.9769,-6.9731,-6.9731,-6.9769,-6.996,-7.0037,-7.0151,-7.0304,-7.0419,-7.0419,-7.0419,-7.0266,-6.9928,-6.9399,-6.8984,-6.8564,-6.7583,-6.6357,-6.5574,-6.5352,-6.5321,-6.5321,-6.529,-6.5226,-6.5226,-6.5258,-6.5296,-6.5226,-6.5258,-6.5264,-6.5226,-6.5258,-6.5264,-6.534,-6.5874,-6.6102,-6.6255,-6.6902,-6.7359,-6.7398,-6.7593,-6.7593,-6.7326,-6.7292,-6.6607,-6.5378,-6.5226,-6.5226,-6.5308,-6.5237,-6.5237,-6.5318,-6.5631,-6.5866,-6.5985,-6.6595,-6.7315,-6.7883,-6.8337,-6.8868,-6.9512,-6.974,-6.9891,-6.9891,-6.9891,-6.9891,-6.9891,-6.9929,-6.9967,-7.0041,-7.0185,-7.0286,-7.0386,-7.0424,-7.0386,-7.0462,-7.0925,-7.1384,-7.1837,-7.2257,-7.275,-7.3111,-7.3275,-7.3399,-7.3756,-7.3806,-7.3445,-7.4571,-7.5053,-7.4745,-7.4586,-7.4402,-7.4115,-7.3651,-7.3342,-7.3071,-7.2645,-7.2297,-7.1872,-7.1523,-7.133,-7.1291,-7.1291,-7.1291,-7.1291,-7.1291,-7.1291,-7.1291,-7.1291,-7.1291,-7.1291,-6.9611,-6.9531,-7.0095,-7.0319,-7.0353,-7.0353,-7.0386,-7.0419,-7.0419,-7.0419,-7.0419,-7.0419,-7.0386,-7.0353,-7.0353,-7.0319,-7.0209,-6.9756,-6.9531,-6.9341,-6.8545,-6.7321,-6.6135,-6.5792,-6.5607,-6.5264,-6.5232,-6.5199,-6.5199,-6.5199,-6.5199,-6.5161,-6.5199,-6.5199,-6.5199,-6.5199,-6.5199,-6.5275,-6.5694,-6.6036,-6.6455,-6.7216,-6.7825,-6.8095,-6.8399,-6.8479,-6.8101,-6.7686,-6.7037,-6.6349,-6.6193,-6.6159,-6.6087,-6.5676,-6.5638,-6.5942,-6.6137,-6.6217,-6.6709,-6.7429,-6.8073,-6.8565,-6.8868,-6.9361,-6.974,-6.9891,-6.9891,-6.9891,-6.9891,-6.9891,-6.9891,-6.9891,-6.9929,-6.9967,-7.0076,-7.0182,-7.0255,-7.0598,-7.0712,-7.0941,-7.1439,-7.2126,-7.2465,-7.2993,-7.3445,-7.3791,-7.399,-7.4217,-7.4478,-7.4427,-7.4413,-7.5142,-7.539,-7.4834,-7.4667,-7.4562,-7.475,-7.4425,-7.4347,-7.4077,-7.3612,-7.3071,-7.2491,-7.1988,-7.1601,-7.133,-7.1407,-7.1407,-7.1291,-7.1291,-7.1291,-7.1291,-7.1291,-7.1485,-7.1446,-6.9317,-7.0185,-7.0223,-7.022,-7.0289,-7.0289,-7.0286,-7.0353,-7.0353,-7.0353,-7.0353,-7.0386,-7.0319,-7.0251,-7.0251,-7.0255,-7.0185,-7.0071,-7.0073,-6.9845,-6.9201,-6.8171,-6.6916,-6.6573,-6.6193,-6.5732,-6.5427,-6.5356,-6.5323,-6.528,-6.5166,-6.5166,-6.5166,-6.5128,-6.5133,-6.5166,-6.5204,-6.5394,-6.5665,-6.6197,-6.692,-6.7718,-6.8441,-6.8973,-6.9431,-6.9359,-6.8754,-6.8223,-6.773,-6.78,-6.761,-6.7309,-6.7199,-6.6556,-6.6594,-6.7049,-6.6821,-6.6897,-6.7504,-6.8262,-6.8755,-6.8944,-6.9512,-6.9891,-6.9891,-6.9891,-6.9891,-6.9891,-6.9891,-6.9891,-6.9891,-6.9891,-6.9891,-6.9929,-7.0004,-7.0077,-7.0378,-7.0948,-7.1403,-7.1443,-7.2166,-7.3079,-7.3609,-7.4025,-7.4249,-7.4409,-7.4562,-7.4638,-7.4714,-7.4599,-7.4519,-7.4587,-7.4619,-7.435,-7.4461,-7.4629,-7.4973,-7.5098,-7.5237,-7.5044,-7.4541,-7.396,-7.3226,-7.2723,-7.2529,-7.2104,-7.1678,-7.1601,-7.1523,-7.1291,-7.1291,-7.1291,-7.133,-7.1678,-7.1794,-6.9281,-7.0039,-7.0039,-7.0114,-7.0185,-7.0111,-7.0076,-7.0111,-7.0182,-7.0182,-7.0147,-7.0182,-7.0255,-7.022,-7.022,-7.022,-7.0149,-7.0114,-7.0041,-6.9929,-6.9853,-6.9132,-6.8146,-6.761,-6.7189,-6.6809,-6.6208,-6.5945,-6.5831,-6.5414,-6.4996,-6.5072,-6.5259,-6.4996,-6.5072,-6.5259,-6.5338,-6.5907,-6.6514,-6.7197,-6.7956,-6.8753,-6.9322,-6.9625,-6.9815,-6.9816,-6.9664,-6.9437,-6.9361,-6.9095,-6.8261,-6.7616,-6.7542,-6.7276,-6.7314,-6.754,-6.7921,-6.8073,-6.8452,-6.9058,-6.9588,-6.955,-6.9702,-6.9891,-6.9891,-6.9891,-6.9891,-6.9891,-6.9891,-6.9891,-6.9891,-6.9891,-6.9967,-7.0005,-7.0081,-7.0271,-7.0802,-7.118,-7.1369,-7.1674,-7.2585,-7.3496,-7.3801,-7.4447,-7.4752,-7.5017,-7.5015,-7.5011,-7.4859,-7.4749,-7.4676,-7.4637,-7.474,-7.4696,-7.4879,-7.5061,-7.5258,-7.5478,-7.5644,-7.577,-7.5306,-7.4966,-7.4309,-7.3844,-7.3574,-7.3032,-7.2413,-7.2142,-7.2104,-7.1717,-7.1369,-7.1407,-7.1562,-7.1872,-7.2297,-6.8717,-6.9815,-6.9815,-6.9854,-6.9967,-6.9891,-6.9891,-6.9966,-7.0039,-7.0077,-7.0039,-7.0149,-7.0149,-7.0076,-7.0076,-7.0114,-7.0041,-7.0004,-6.9967,-6.9891,-6.9854,-6.9626,-6.9323,-6.8754,-6.8297,-6.7576,-6.6971,-6.6708,-6.6556,-6.6329,-6.6177,-6.6063,-6.6025,-6.6177,-6.6063,-6.6025,-6.6329,-6.667,-6.7125,-6.7769,-6.8565,-6.902,-6.955,-6.9816,-6.9891,-6.9891,-6.9854,-6.9854,-6.9854,-6.9664,-6.9058,-6.8527,-6.8451,-6.8186,-6.8148,-6.8602,-6.8451,-6.8906,-6.9247,-6.9588,-6.9854,-6.9891,-6.9891,-6.9891,-6.9891,-6.9891,-6.9891,-6.9891,-6.9891,-6.9891,-6.9929,-7.0308,-7.0422,-7.0536,-7.0839,-7.1218,-7.1636,-7.1788,-7.2016,-7.2471,-7.3532,-7.4063,-7.4518,-7.4743,-7.4819,-7.4975,-7.4975,-7.4932,-7.4932,-7.4821,-7.4899,-7.4904,-7.5132,-7.5271,-7.5436,-7.5557,-7.5601,-7.5726,-7.5809,-7.5902,-7.5761,-7.5567,-7.5392,-7.4889,-7.4347,-7.3806,-7.3226,-7.2993,-7.2607,-7.2181,-7.1872,-7.1756,-7.1833,-7.2213,-7.2739,-6.7992,-6.9426,-6.9539,-6.9617,-6.9659,-6.9659,-6.9699,-6.9739,-6.9891,-6.9929,-6.9966,-7.0077,-7.0077,-7.0003,-6.9966,-6.9929,-6.9929,-6.9891,-6.9891,-6.9891,-6.9891,-6.9816,-6.9702,-6.955,-6.9171,-6.7883,-6.7655,-6.7579,-6.7542,-6.7428,-6.7049,-6.7314,-6.7314,-6.7125,-6.7276,-6.739,-6.7352,-6.7542,-6.7655,-6.811,-6.8754,-6.8982,-6.9361,-6.974,-6.9891,-6.9891,-6.9891,-6.9891,-6.9891,-6.9891,-6.9891,-6.9891,-6.9702,-6.9323,-6.9058,-6.9778,-6.9209,-6.9209,-6.9588,-6.9854,-6.9891,-6.9891,-6.9891,-6.9891,-6.9891,-6.9891,-6.9891,-6.9967,-7.0005,-7.0233,-7.0157,-7.0839,-7.1217,-7.1408,-7.1976,-7.2393,-7.2545,-7.2583,-7.2886,-7.3378,-7.4023,-7.4553,-7.4705,-7.4895,-7.4895,-7.4895,-7.4895,-7.4895,-7.4895,-7.4895,-7.4935,-7.4935,-7.5056,-7.5246,-7.5424,-7.5622,-7.5679,-7.571,-7.5831,-7.589,-7.5918,-7.5782,-7.5543,-7.5446,-7.4966,-7.4479,-7.3938,-7.3535,-7.3109,-7.2645,-7.2036,-7.1564,-7.1873,-7.2476,-7.3133,-6.7652,-6.8596,-6.9193,-6.9495,-6.9577,-6.9498,-6.9457,-6.9498,-6.9699,-6.9699,-6.9697,-6.9853,-6.9967,-6.9929,-6.9929,-6.9891,-6.9891,-6.9891,-6.9891,-6.9891,-6.9891,-6.9891,-6.9891,-6.9854,-6.9664,-6.9399,-6.883,-6.8413,-6.8224,-6.7769,-6.7731,-6.7504,-6.7542,-6.7542,-6.7579,-6.7466,-6.7921,-6.8337,-6.8413,-6.883,-6.9361,-6.955,-6.9588,-6.9891,-6.9891,-6.9891,-6.9891,-6.9891,-6.9891,-6.9891,-6.9891,-6.9891,-6.9854,-6.9702,-6.9702,-6.9778,-6.9702,-6.9664,-6.9854,-6.9891,-6.9891,-6.9891,-6.9891,-6.9891,-6.9891,-6.9891,-6.9929,-7.0119,-7.0498,-7.0839,-7.0915,-7.1673,-7.209,-7.2241,-7.2431,-7.2772,-7.3265,-7.3416,-7.3454,-7.3833,-7.444,-7.4895,-7.4895,-7.4895,-7.4895,-7.4895,-7.4895,-7.4895,-7.4895,-7.4895,-7.4895,-7.4895,-7.4935,-7.5095,-7.532,-7.5455,-7.5584,-7.5551,-7.5616,-7.5648,-7.5679,-7.5679,-7.5571,-7.5528,-7.5567,-7.5335,-7.478,-7.4007,-7.3186,-7.2469,-7.184,-7.1274,-7.2057,-7.28,-7.3437,-6.7416,-6.8207,-6.8951,-6.9332,-6.9369,-6.9369,-6.9289,-6.9369,-6.9539,-6.9617,-6.9657,-6.9815,-6.9891,-6.9891,-6.9891,-6.9891,-6.9891,-6.9891,-6.9891,-6.9891,-6.9891,-6.9891,-6.9891,-6.9891,-6.9891,-6.9778,-6.9437,-6.9247,-6.9247,-6.8944,-6.8603,-6.8716,-6.8679,-6.8679,-6.8716,-6.8754,-6.8868,-6.9209,-6.9247,-6.9399,-6.9854,-6.9891,-6.9891,-6.9891,-6.9891,-6.9891,-6.9891,-6.9891,-6.9891,-6.9891,-6.9891,-6.9891,-6.9891,-6.9891,-6.9891,-6.9891,-6.9891,-6.9891,-6.9891,-6.9891,-6.9891,-6.9891,-6.9891,-6.9891,-6.9891,-6.9929,-7.0081,-7.0498,-7.0726,-7.1295,-7.1711,-7.2545,-7.2922,-7.3113,-7.3341,-7.3795,-7.4136,-7.425,-7.4212,-7.4174,-7.4591,-7.4895,-7.4895,-7.4895,-7.4895,-7.4895,-7.4895,-7.4895,-7.4895,-7.4895,-7.4895,-7.4895,-7.4895,-7.4975,-7.5095,-7.5245,-7.5386,-7.5386,-7.5383,-7.5417,-7.5489,-7.5489,-7.5584,-7.5678,-7.5754,-7.5666,-7.4857,-7.3812,-7.3053,-7.2294,-7.1804,-7.1593,-7.2417,-7.3123,-7.3674,-6.7176,-6.7851,-6.879,-6.9203,-6.9203,-6.9203,-6.9203,-6.9246,-6.9453,-6.9577,-6.9617,-6.9776,-6.9891,-6.9891,-6.9891,-6.9891,-6.9891,-6.9891,-6.9891,-6.9891,-6.9891,-6.9891,-6.9891,-6.9891,-6.9891,-6.9854,-6.9816,-6.9891,-6.9778,-6.9702,-6.9816,-6.9664,-6.9816,-6.9891,-6.974,-6.9588,-6.9854,-6.9891,-6.9891,-6.9891,-6.9891,-6.9891,-6.9891,-6.9891,-6.9891,-6.9891,-6.9891,-6.9891,-6.9891,-6.9891,-6.9891,-6.9891,-6.9891,-6.9891,-6.9891,-6.9891,-6.9891,-6.9891,-6.9891,-6.9891,-6.9891,-6.9891,-6.9891,-6.9891,-6.9967,-7.0119,-7.0422,-7.0991,-7.1636,-7.1939,-7.262,-7.3376,-7.3793,-7.3944,-7.4402,-7.4857,-7.4781,-7.4743,-7.4705,-7.4743,-7.4895,-7.4895,-7.4895,-7.4895,-7.4895,-7.4895,-7.4895,-7.4895,-7.4895,-7.4895,-7.4895,-7.4895,-7.4895,-7.4895,-7.4935,-7.4975,-7.5056,-7.5056,-7.5133,-7.5208,-7.5283,-7.5321,-7.5424,-7.5485,-7.5451,-7.5183,-7.4413,-7.3667,-7.2886,-7.2234,-7.1789,-7.1816,-7.2444,-7.2987,-7.3521,-6.6838,-6.7063,-6.8602,-6.9203,-6.9203,-6.9203,-6.9203,-6.9203,-6.9332,-6.9495,-6.9577,-6.9659,-6.9777,-6.9853,-6.9891,-6.9891,-6.9891,-6.9891,-6.9891,-6.9891,-6.9891,-6.9891,-6.9891,-6.9891,-6.9853,-6.9853,-6.9853,-6.9891,-6.9891,-6.9891,-6.9891,-6.9891,-6.9891,-6.9891,-6.9891,-6.9891,-6.9891,-6.9891,-6.9891,-6.9891,-6.9891,-6.9891,-6.9891,-6.9891,-6.9891,-6.9891,-6.9891,-6.9891,-6.9891,-6.9891,-6.9891,-6.9891,-6.9891,-6.9891,-6.9891,-6.9891,-6.9891,-6.9891,-6.9891,-6.9891,-6.9891,-6.9891,-6.9891,-6.9891,-7.0119,-7.0536,-7.0915,-7.1104,-7.2241,-7.3151,-7.3492,-7.4212,-7.4629,-7.4667,-7.4743,-7.4895,-7.4895,-7.4895,-7.4895,-7.4895,-7.4895,-7.4895,-7.4895,-7.4895,-7.4895,-7.4895,-7.4895,-7.4895,-7.4895,-7.4895,-7.4895,-7.4895,-7.4895,-7.4895,-7.4895,-7.4895,-7.4895,-7.4895,-7.4975,-7.5017,-7.5094,-7.5094,-7.5015,-7.5095,-7.5018,-7.4866,-7.4243,-7.3505,-7.2696,-7.2019,-7.146,-7.1705,-7.2244,-7.2852,-7.3612,-6.7213,-6.6913,-6.8527,-6.9203,-6.9203,-6.9203,-6.9203,-6.9203,-6.9332,-6.9416,-6.9495,-6.9617,-6.9697,-6.9777,-6.9777,-6.9853,-6.9891,-6.9891,-6.9815,-6.9777,-6.9777,-6.9738,-6.9737,-6.9737,-6.9737,-6.9737,-6.9737,-6.9697,-6.9737,-6.9853,-6.9891,-6.9891,-6.9891,-6.9891,-6.9891,-6.9891,-6.9891,-6.9891,-6.9891,-6.9891,-6.9891,-6.9891,-6.9891,-6.9891,-6.9891,-6.9891,-6.9891,-6.9891,-6.9891,-6.9891,-6.9891,-6.9891,-6.9891,-6.9891,-6.9891,-6.9891,-6.9891,-6.9891,-6.9891,-6.9891,-6.9929,-6.9929,-6.9967,-7.0081,-7.0498,-7.0953,-7.1673,-7.2507,-7.3113,-7.372,-7.4174,-7.4667,-7.4819,-7.4895,-7.4781,-7.4895,-7.4895,-7.4895,-7.4895,-7.4895,-7.4895,-7.4895,-7.4895,-7.4895,-7.4895,-7.4895,-7.4895,-7.4895,-7.4895,-7.4895,-7.4895,-7.4895,-7.4895,-7.4895,-7.4895,-7.4895,-7.4895,-7.4895,-7.4895,-7.4935,-7.4935,-7.4895,-7.4895,-7.4895,-7.4975,-7.4638,-7.4063,-7.3339,-7.2503,-7.1784,-7.1065,-7.1788,-7.2546,-7.3646,-7.4332,-6.7626,-6.7251,-6.864,-6.9203,-6.9203,-6.9203,-6.9203,-6.9203,-6.9289,-6.9369,-6.9453,-6.9536,-6.9657,-6.9697,-6.9659,-6.9737,-6.9815,-6.9815,-6.9776,-6.9699,-6.9697,-6.9657,-6.9617,-6.9655,-6.9655,-6.9577,-6.9617,-6.9617,-6.9657,-6.9737,-6.9815,-6.9853,-6.9891,-6.9891,-6.9891,-6.9891,-6.9891,-6.9891,-6.9891,-6.9891,-6.9891,-6.9891,-6.9891,-6.9891,-6.9891,-6.9891,-6.9891,-6.9891,-6.9891,-6.9891,-6.9891,-6.9891,-6.9891,-6.9891,-6.9891,-6.9967,-7.0081,-7.0308,-7.0308,-7.0308,-7.0195,-7.0233,-7.0498,-7.0953,-7.1332,-7.1559,-7.2014,-7.3341,-7.3833,-7.4212,-7.444,-7.4516,-7.444,-7.444,-7.4478,-7.4667,-7.4857,-7.4895,-7.4895,-7.4895,-7.4895,-7.4895,-7.4895,-7.4895,-7.4895,-7.4895,-7.4895,-7.4895,-7.4895,-7.4895,-7.4895,-7.4895,-7.4895,-7.4895,-7.4895,-7.4895,-7.4895,-7.4895,-7.4895,-7.4895,-7.4895,-7.4895,-7.4895,-7.4895,-7.4895,-7.4442,-7.3954,-7.3117,-7.2317,-7.1978,-7.1826,-7.2243,-7.2999,-7.4136,-7.4781,-6.7964,-6.8002,-6.8865,-6.9203,-6.9203,-6.9203,-6.9203,-6.9203,-6.9203,-6.9289,-6.9411,-6.9536,-6.9577,-6.9617,-6.9617,-6.9617,-6.9617,-6.9617,-6.9617,-6.9617,-6.9577,-6.9577,-6.9536,-6.9536,-6.9577,-6.9577,-6.9536,-6.9536,-6.9577,-6.9577,-6.9697,-6.9699,-6.9815,-6.9891,-6.9891,-6.9891,-6.9891,-6.9891,-6.9891,-6.9891,-6.9891,-6.9891,-6.9891,-6.9891,-6.9891,-6.9891,-6.9891,-6.9891,-6.9891,-6.9891,-6.9891,-6.9891,-6.9891,-6.9891,-6.9891,-7.0195,-7.0574,-7.0839,-7.0953,-7.1029,-7.1029,-7.1218,-7.1559,-7.1976,-7.2279,-7.2999,-7.3492,-7.372,-7.425,-7.4326,-7.4099,-7.3757,-7.4136,-7.4212,-7.444,-7.4553,-7.4743,-7.4895,-7.4895,-7.4895,-7.4895,-7.4895,-7.4895,-7.4895,-7.4895,-7.4895,-7.4895,-7.4895,-7.4895,-7.4895,-7.4895,-7.4895,-7.4895,-7.4895,-7.4895,-7.4895,-7.4895,-7.4895,-7.4895,-7.4895,-7.4895,-7.4895,-7.4895,-7.4895,-7.4857,-7.4326,-7.3947,-7.3606,-7.3189,-7.262,-7.2507,-7.2924,-7.3416,-7.4364,-7.4781,-6.8753,-6.879,-6.9091,-6.9203,-6.9203,-6.9203,-6.9203,-6.9203,-6.9203,-6.9241,-6.9289,-6.9332,-6.9411,-6.9495,-6.9577,-6.9614,-6.9617,-6.962,-6.9577,-6.9536,-6.9495,-6.9453,-6.9411,-6.9332,-6.9332,-6.9332,-6.9332,-6.9332,-6.9369,-6.9416,-6.9457,-6.9539,-6.9699,-6.9777,-6.9815,-6.9891,-6.9891,-6.9891,-6.9891,-6.9891,-6.9891,-6.9891,-6.9891,-6.9891,-6.9891,-6.9891,-6.9891,-6.9891,-6.9891,-6.9891,-6.9891,-6.9891,-6.9929,-6.9929,-7.0157,-7.0536,-7.1029,-7.1408,-7.1824,-7.1862,-7.19,-7.1938,-7.2203,-7.262,-7.3075,-7.3492,-7.3947,-7.4288,-7.4629,-7.4591,-7.4516,-7.4402,-7.4516,-7.444,-7.4402,-7.4516,-7.4705,-7.4857,-7.4895,-7.4895,-7.4895,-7.4895,-7.4895,-7.4895,-7.4895,-7.4895,-7.4895,-7.4895,-7.4895,-7.4895,-7.4895,-7.4895,-7.4895,-7.4895,-7.4895,-7.4895,-7.4895,-7.4895,-7.4895,-7.4895,-7.4895,-7.4895,-7.4895,-7.4895,-7.4895,-7.4629,-7.444,-7.444,-7.3985,-7.3151,-7.3151,-7.353,-7.4099,-7.4629,-7.4781,-6.9203,-6.9203,-6.9203,-6.9203,-6.9203,-6.9203,-6.9203,-6.9203,-6.9203,-6.9203,-6.9203,-6.9203,-6.9246,-6.9332,-6.9453,-6.9453,-6.9495,-6.9457,-6.9457,-6.9374,-6.9332,-6.9246,-6.9203,-6.9203,-6.9203,-6.9203,-6.9203,-6.9203,-6.9203,-6.9289,-6.9374,-6.9457,-6.9539,-6.9659,-6.9815,-6.9891,-6.9891,-6.9891,-6.9891,-6.9891,-6.9891,-6.9891,-6.9891,-6.9891,-6.9891,-6.9891,-6.9891,-6.9891,-6.9891,-6.9891,-6.9891,-6.9891,-6.9967,-7.0157,-7.0536,-7.1029,-7.1597,-7.209,-7.2545,-7.2734,-7.2886,-7.3189,-7.3227,-7.3568,-7.3795,-7.3985,-7.4402,-7.4705,-7.4895,-7.4857,-7.4705,-7.4326,-7.425,-7.4099,-7.4099,-7.4212,-7.4667,-7.4895,-7.4895,-7.4895,-7.4895,-7.4895,-7.4895,-7.4895,-7.4895,-7.4895,-7.4895,-7.4895,-7.4895,-7.4895,-7.4895,-7.4895,-7.4895,-7.4895,-7.4895,-7.4895,-7.4895,-7.4895,-7.4895,-7.4895,-7.4895,-7.4895,-7.4895,-7.4895,-7.4895,-7.4895,-7.4819,-7.4667,-7.4174,-7.353,-7.3795,-7.4174,-7.4364,-7.4781,-7.4819,-6.9203,-6.9203,-6.9203,-6.9203,-6.9203,-6.9203,-6.9203,-6.9166,-6.9128,-6.9053,-6.8978,-6.9015,-6.9091,-6.9128,-6.9214,-6.9289,-6.9284,-6.9246,-6.9246,-6.9246,-6.9246,-6.9203,-6.9203,-6.9203,-6.9203,-6.9203,-6.9203,-6.9203,-6.9203,-6.9203,-6.9289,-6.9332,-6.9416,-6.9539,-6.9699,-6.9853,-6.9891,-6.9891,-6.9891,-6.9891,-6.9891,-6.9891,-6.9891,-6.9891,-6.9891,-6.9891,-6.9891,-6.9891,-6.9891,-6.9891,-6.9891,-6.9891,-6.9929,-7.046,-7.0839,-7.1066,-7.2431,-7.3151,-7.3492,-7.353,-7.3757,-7.4326,-7.425,-7.4478,-7.4743,-7.4819,-7.4743,-7.4895,-7.4895,-7.4553,-7.4099,-7.3795,-7.3947,-7.4023,-7.4099,-7.425,-7.4705,-7.4895,-7.4895,-7.4895,-7.4895,-7.4895,-7.4895,-7.4895,-7.4895,-7.4895,-7.4895,-7.4895,-7.4895,-7.4895,-7.4895,-7.4895,-7.4895,-7.4895,-7.4895,-7.4895,-7.4895,-7.4895,-7.4895,-7.4895,-7.4895,-7.4895,-7.4895,-7.4895,-7.4895,-7.4895,-7.4895,-7.4895,-7.444,-7.4136,-7.444,-7.4743,-7.4857,-7.4895,-7.4895,-6.9203,-6.9203,-6.9203,-6.9203,-6.9203,-6.9203,-6.9203,-6.9091,-6.864,-6.8114,-6.7814,-6.8114,-6.8415,-6.8527,-6.9021,-6.9209,-6.9203,-6.9289,-6.9289,-6.9203,-6.9203,-6.9203,-6.9203,-6.9203,-6.9203,-6.9203,-6.9203,-6.9203,-6.9203,-6.9203,-6.9203,-6.9246,-6.9332,-6.9495,-6.9617,-6.9697,-6.9697,-6.9738,-6.9777,-6.9777,-6.9891,-6.9891,-6.9891,-6.9891,-6.9891,-6.9891,-6.9891,-6.9891,-6.9891,-6.9891,-6.9891,-6.9929,-6.9967,-7.0422,-7.0649,-7.0953,-7.1976,-7.2203,-7.2583,-7.2886,-7.3492,-7.4288,-7.4819,-7.4819,-7.4895,-7.4895,-7.4895,-7.4895,-7.4895,-7.4667,-7.4591,-7.4516,-7.4591,-7.4591,-7.4629,-7.4667,-7.4895,-7.4895,-7.4895,-7.4895,-7.4895,-7.4895,-7.4895,-7.4857,-7.4857,-7.4854,-7.4854,-7.4854,-7.4854,-7.4895,-7.4895,-7.4895,-7.4895,-7.4895,-7.4895,-7.4895,-7.4895,-7.4895,-7.4895,-7.4895,-7.4895,-7.4895,-7.4895,-7.4895,-7.4895,-7.4895,-7.4895,-7.4895,-7.4895,-7.4857,-7.4895,-7.4895,-7.4895,-7.4895,-7.4895,-6.8978,-6.9203,-6.9203,-6.9053,-6.8828,-6.879,-6.8677,-6.834,-6.7814,-6.7251,-6.7025,-6.7401,-6.7776,-6.8157,-6.8575,-6.9139,-6.9166,-6.9246,-6.9289,-6.9203,-6.9203,-6.9203,-6.9203,-6.9203,-6.9203,-6.9203,-6.9203,-6.9203,-6.9203,-6.9203,-6.9203,-6.9203,-6.9289,-6.9332,-6.9453,-6.9536,-6.9657,-6.9699,-6.9738,-6.9777,-6.9815,-6.9891,-6.9891,-6.9891,-6.9891,-6.9891,-6.9891,-6.9891,-6.9891,-6.9891,-6.9929,-7.0081,-7.0195,-7.0384,-7.0725,-7.1256,-7.1597,-7.1938,-7.2317,-7.2431,-7.3037,-7.372,-7.425,-7.4591,-7.4819,-7.4895,-7.4895,-7.4895,-7.4895,-7.4895,-7.4895,-7.4895,-7.4895,-7.4895,-7.4854,-7.4854,-7.4854,-7.4854,-7.4854,-7.4854,-7.4854,-7.4854,-7.4854,-7.4857,-7.4778,-7.4774,-7.4774,-7.4812,-7.4812,-7.4812,-7.4854,-7.4854,-7.4854,-7.4895,-7.4895,-7.4895,-7.4895,-7.4895,-7.4895,-7.4895,-7.4895,-7.4895,-7.4895,-7.4895,-7.4895,-7.4895,-7.4895,-7.4895,-7.4895,-7.4895,-7.4895,-7.4895,-7.4895,-7.4854,-7.4854,-6.8452,-6.9128,-6.9166,-6.8715,-6.8114,-6.7926,-6.7438,-6.68,-6.6762,-6.6687,-6.665,-6.6687,-6.7213,-6.7851,-6.8039,-6.8565,-6.9091,-6.9203,-6.9203,-6.9203,-6.9203,-6.9203,-6.9203,-6.9203,-6.9203,-6.9203,-6.9203,-6.9203,-6.9203,-6.9203,-6.9203,-6.9203,-6.9203,-6.9246,-6.9289,-6.9453,-6.9577,-6.962,-6.9659,-6.9738,-6.9815,-6.9891,-6.9891,-6.9891,-6.9891,-6.9891,-6.9891,-6.9891,-6.9967,-7.0005,-7.0005,-7.0498,-7.0839,-7.1104,-7.1673,-7.2014,-7.2166,-7.2128,-7.1938,-7.19,-7.2166,-7.2581,-7.3187,-7.3909,-7.4364,-7.4478,-7.4553,-7.4705,-7.4743,-7.4857,-7.4895,-7.4854,-7.4854,-7.4854,-7.4854,-7.4854,-7.4854,-7.4854,-7.4854,-7.4812,-7.4812,-7.4812,-7.4774,-7.4737,-7.4699,-7.4649,-7.4644,-7.4601,-7.4644,-7.4691,-7.4691,-7.4733,-7.4812,-7.4854,-7.4895,-7.4895,-7.4895,-7.4895,-7.4895,-7.4895,-7.4895,-7.4895,-7.4895,-7.4895,-7.4895,-7.4895,-7.4895,-7.4895,-7.4854,-7.4854,-7.4854,-7.4854,-7.4812,-7.4812,-7.4771,-6.7589,-6.834,-6.834,-6.8227,-6.7814,-6.6725,-6.6087,-6.5899,-6.5861,-6.5598,-6.5073,-6.6274,-6.68,-6.7213,-6.834,-6.8828,-6.9091,-6.9203,-6.9203,-6.9203,-6.9203,-6.9203,-6.9203,-6.9203,-6.9203,-6.9203,-6.9203,-6.9203,-6.9203,-6.9203,-6.9203,-6.9203,-6.9203,-6.9203,-6.9203,-6.9246,-6.9374,-6.9498,-6.9579,-6.9661,-6.9778,-6.9854,-6.9854,-6.9891,-6.9891,-6.9891,-6.9891,-6.9891,-7.0081,-7.0612,-7.0687,-7.1142,-7.19,-7.1976,-7.2128,-7.1445,-7.137,-7.1218,-7.0725,-7.0574,-7.0876,-7.1632,-7.2235,-7.2656,-7.3149,-7.3717,-7.4058,-7.4361,-7.4664,-7.4774,-7.4774,-7.4774,-7.4771,-7.4729,-7.4729,-7.4691,-7.4691,-7.4691,-7.4691,-7.4691,-7.4691,-7.4691,-7.4691,-7.4619,-7.4582,-7.4525,-7.4513,-7.4469,-7.4469,-7.4557,-7.4563,-7.4649,-7.4691,-7.4771,-7.4854,-7.4854,-7.4895,-7.4895,-7.4854,-7.4854,-7.4854,-7.4854,-7.4854,-7.4854,-7.4812,-7.4854,-7.4895,-7.4854,-7.4771,-7.4812,-7.4812,-7.4774,-7.4733,-7.4691,-7.4649,-6.6762,-6.7476,-6.7513,-6.7326,-6.68,-6.5598,-6.5035,-6.5035,-6.5035,-6.4697,-6.4434,-6.5336,-6.5974,-6.6462,-6.7551,-6.834,-6.8715,-6.9053,-6.9203,-6.9203,-6.9203,-6.9203,-6.9203,-6.9203,-6.9203,-6.9203,-6.9203,-6.9203,-6.9203,-6.9203,-6.9203,-6.9203,-6.9203,-6.9203,-6.9203,-6.9203,-6.9246,-6.9332,-6.9457,-6.9542,-6.9661,-6.9777,-6.9777,-6.9853,-6.9853,-6.9891,-6.9891,-6.9891,-7.0308,-7.0953,-7.1104,-7.167,-7.2465,-7.2768,-7.2349,-7.1781,-7.1517,-7.1403,-7.1138,-7.0913,-7.0985,-7.1322,-7.1811,-7.2078,-7.2724,-7.3405,-7.3821,-7.4237,-7.4502,-7.4691,-7.4691,-7.4691,-7.4644,-7.4638,-7.4557,-7.4519,-7.4519,-7.4519,-7.4519,-7.4519,-7.4519,-7.4519,-7.4487,-7.446,-7.446,-7.4438,-7.438,-7.4335,-7.4335,-7.4425,-7.4469,-7.4476,-7.4563,-7.4649,-7.4733,-7.4812,-7.4812,-7.4771,-7.4691,-7.4691,-7.4771,-7.4771,-7.4691,-7.4691,-7.4649,-7.4729,-7.4771,-7.4691,-7.4649,-7.4691,-7.4691,-7.4649,-7.4606,-7.4563,-7.4557,-6.5899,-6.6687,-6.6687,-6.6274,-6.5486,-6.4697,-6.4322,-6.4284,-6.4319,-6.4284,-6.4322,-6.451,-6.5223,-6.6162,-6.7213,-6.7926,-6.849,-6.8978,-6.9203,-6.9203,-6.9203,-6.9203,-6.9203,-6.9203,-6.9203,-6.9203,-6.9203,-6.9203,-6.9203,-6.9203,-6.9203,-6.9203,-6.9203,-6.9203,-6.9203,-6.9203,-6.9203,-6.9246,-6.9332,-6.9416,-6.9539,-6.962,-6.9699,-6.9738,-6.9815,-6.9853,-6.9853,-7.0005,-7.0308,-7.0838,-7.1365,-7.1968,-7.2986,-7.3473,-7.2902,-7.2449,-7.2151,-7.1886,-7.1731,-7.158,-7.1694,-7.1878,-7.2067,-7.2213,-7.2784,-7.3317,-7.3813,-7.4039,-7.4266,-7.453,-7.4568,-7.4563,-7.4513,-7.4507,-7.4425,-7.4387,-7.4387,-7.4387,-7.4387,-7.4387,-7.4387,-7.4387,-7.4387,-7.4363,-7.4363,-7.4342,-7.4289,-7.4197,-7.4243,-7.4335,-7.438,-7.4425,-7.4476,-7.4563,-7.4606,-7.4649,-7.4649,-7.4606,-7.4563,-7.4563,-7.4606,-7.4563,-7.4519,-7.4519,-7.4563,-7.4563,-7.4563,-7.4519,-7.4563,-7.4606,-7.4606,-7.4519,-7.4476,-7.4469,-7.4425,-6.5073,-6.5824,-6.5824,-6.5674,-6.5411,-6.4541,-6.4203,-6.4284,-6.4079,-6.4121,-6.451,-6.5523,-6.6162,-6.6387,-6.7696,-6.8484,-6.8709,-6.8935,-6.9122,-6.916,-6.916,-6.9116,-6.916,-6.916,-6.916,-6.9203,-6.9203,-6.916,-6.916,-6.916,-6.916,-6.9203,-6.916,-6.916,-6.9203,-6.9203,-6.916,-6.9203,-6.9246,-6.9407,-6.957,-6.9614,-6.9657,-6.9735,-6.9812,-6.9926,-6.9926,-6.9848,-7.0642,-7.1471,-7.1694,-7.2675,-7.411,-7.418,-7.3803,-7.3161,-7.2854,-7.2628,-7.2359,-7.2234,-7.2228,-7.2272,-7.2466,-7.2642,-7.295,-7.3376,-7.3646,-7.3835,-7.4023,-7.4331,-7.4438,-7.4469,-7.438,-7.4372,-7.4327,-7.4289,-7.4289,-7.4289,-7.4289,-7.4289,-7.4289,-7.4252,-7.4252,-7.4289,-7.4243,-7.4243,-7.4243,-7.4197,-7.4197,-7.4243,-7.4289,-7.4335,-7.438,-7.4432,-7.4519,-7.4519,-7.4476,-7.4519,-7.4476,-7.4476,-7.4476,-7.4476,-7.4432,-7.4476,-7.4476,-7.4432,-7.4432,-7.4469,-7.4469,-7.4519,-7.4476,-7.4469,-7.4425,-7.438,-7.4289,-6.4507,-6.4878,-6.4837,-6.4795,-6.4683,-6.4229,-6.4042,-6.4121,-6.3958,-6.3958,-6.4271,-6.5436,-6.6111,-6.6373,-6.7754,-6.8578,-6.8653,-6.8915,-6.9027,-6.9065,-6.9109,-6.9065,-6.9065,-6.9109,-6.9065,-6.9065,-6.9065,-6.9065,-6.9109,-6.9065,-6.9065,-6.9072,-6.9072,-6.9072,-6.916,-6.916,-6.916,-6.9203,-6.9203,-6.9434,-6.9788,-6.9943,-7.0064,-7.0105,-7.0448,-7.0523,-7.0674,-7.0674,-7.1124,-7.1912,-7.2251,-7.2994,-7.4048,-7.4267,-7.4117,-7.3815,-7.3545,-7.3394,-7.3056,-7.2853,-7.28,-7.3004,-7.3161,-7.3492,-7.353,-7.3883,-7.3921,-7.4072,-7.4109,-7.4342,-7.4297,-7.4289,-7.4289,-7.4281,-7.4281,-7.4243,-7.4243,-7.4243,-7.4243,-7.4243,-7.4243,-7.4243,-7.4243,-7.4243,-7.4197,-7.4197,-7.4197,-7.4197,-7.4197,-7.4197,-7.4243,-7.4289,-7.4335,-7.438,-7.4425,-7.4425,-7.438,-7.4425,-7.4387,-7.4342,-7.4342,-7.4342,-7.4342,-7.4342,-7.438,-7.4335,-7.4335,-7.4335,-7.438,-7.4469,-7.438,-7.4335,-7.4289,-7.4289,-7.4243,-6.4203,-6.4042,-6.3958,-6.3953,-6.3915,-6.3873,-6.3873,-6.3915,-6.3873,-6.3873,-6.3985,-6.4806,-6.5105,-6.5858,-6.6979,-6.7464,-6.8024,-6.8705,-6.8929,-6.8921,-6.8967,-6.8967,-6.8967,-6.8921,-6.8929,-6.8929,-6.8967,-6.8967,-6.8967,-6.8967,-6.8975,-6.8983,-6.8983,-6.8975,-6.9109,-6.9116,-6.9072,-6.9235,-6.9466,-6.9842,-7.0223,-7.0567,-7.0654,-7.0997,-7.1492,-7.1912,-7.1949,-7.1949,-7.1949,-7.2397,-7.2837,-7.3545,-7.3951,-7.4243,-7.4243,-7.4056,-7.4018,-7.4018,-7.3972,-7.3859,-7.3972,-7.4085,-7.4197,-7.4197,-7.416,-7.416,-7.416,-7.416,-7.4197,-7.4197,-7.4197,-7.4197,-7.4235,-7.4235,-7.4197,-7.4197,-7.4197,-7.4197,-7.4197,-7.4197,-7.4197,-7.4197,-7.4197,-7.4197,-7.4197,-7.4197,-7.4197,-7.4197,-7.4197,-7.4197,-7.4197,-7.4243,-7.4243,-7.4289,-7.4335,-7.4335,-7.4289,-7.4289,-7.4335,-7.4243,-7.4197,-7.4243,-7.4289,-7.4243,-7.4243,-7.4243,-7.4243,-7.4243,-7.4289,-7.4335,-7.4289,-7.4243,-7.4289,-7.4243,-7.4197,-6.4042,-6.3915,-6.3915,-6.3915,-6.3873,-6.3867,-6.383,-6.3873,-6.3736,-6.3691,-6.3966,-6.4592,-6.5262,-6.6231,-6.7912,-6.8539,-6.8381,-6.88,-6.8884,-6.8921,-6.8875,-6.8875,-6.8875,-6.8828,-6.8921,-6.8875,-6.8875,-6.8921,-6.8828,-6.8875,-6.8929,-6.8983,-6.8929,-6.8975,-6.9116,-6.9116,-6.9072,-6.931,-6.9842,-7.033,-7.0442,-7.0749,-7.1056,-7.1357,-7.1695,-7.1814,-7.1814,-7.177,-7.2184,-7.2741,-7.3379,-7.3868,-7.4085,-7.4197,-7.4197,-7.4197,-7.4197,-7.4197,-7.4197,-7.4197,-7.4197,-7.4197,-7.4197,-7.4197,-7.416,-7.416,-7.4197,-7.4197,-7.4197,-7.4197,-7.4197,-7.4197,-7.4197,-7.4197,-7.4197,-7.4197,-7.4197,-7.4197,-7.4197,-7.4197,-7.4197,-7.4197,-7.4197,-7.4197,-7.4197,-7.4197,-7.4197,-7.4197,-7.4197,-7.4197,-7.4197,-7.4197,-7.4197,-7.4197,-7.4243,-7.4243,-7.4243,-7.4243,-7.4197,-7.4197,-7.4197,-7.4197,-7.4197,-7.4197,-7.4197,-7.4197,-7.4197,-7.4197,-7.4197,-7.4243,-7.4243,-7.4197,-7.4243,-7.4243,-7.4197]}]]